<?xml version="1.0" encoding="UTF-8" standalone="no" ?><gpx xmlns="http://www.topografix.com/GPX/1/1" xmlns:gpxx="http://www.garmin.com/xmlschemas/GpxExtensions/v3" xmlns:gpxtrkx="http://www.garmin.com/xmlschemas/TrackStatsExtension/v1" xmlns:wptx1="http://www.garmin.com/xmlschemas/WaypointExtension/v1" xmlns:gpxtpx="http://www.garmin.com/xmlschemas/TrackPointExtension/v1" creator="eTrex 30" version="1.1" xmlns:xsi="http://www.w3.org/2001/XMLSchema-instance" xsi:schemaLocation="http://www.topografix.com/GPX/1/1 http://www.topografix.com/GPX/1/1/gpx.xsd http://www.garmin.com/xmlschemas/GpxExtensions/v3 http://www8.garmin.com/xmlschemas/GpxExtensionsv3.xsd http://www.garmin.com/xmlschemas/TrackStatsExtension/v1 http://www8.garmin.com/xmlschemas/TrackStatsExtension.xsd http://www.garmin.com/xmlschemas/WaypointExtension/v1 http://www8.garmin.com/xmlschemas/WaypointExtensionv1.xsd http://www.garmin.com/xmlschemas/TrackPointExtension/v1 http://www.garmin.com/xmlschemas/TrackPointExtensionv1.xsd"><metadata><link href="http://www.garmin.com"><text>Garmin International</text></link><time>2026-08-09T11:51:56Z</time></metadata><trk><name>2026-08-09 13:51:53</name><extensions><gpxx:TrackExtension><gpxx:DisplayColor>Green</gpxx:DisplayColor></gpxx:TrackExtension></extensions><trkseg><trkpt lat="40.7150382455" lon="-3.9888888784"><ele>1095.08</ele><time>2026-08-09T07:46:18Z</time></trkpt><trkpt lat="40.7150390837" lon="-3.9888901357"><ele>1095.08</ele><time>2026-08-09T07:46:19Z</time></trkpt><trkpt lat="40.7150425203" lon="-3.9888918120"><ele>1085.47</ele><time>2026-08-09T07:46:22Z</time></trkpt><trkpt lat="40.7150441967" lon="-3.9888921473"><ele>1085.47</ele><time>2026-08-09T07:46:23Z</time></trkpt><trkpt lat="40.7150589488" lon="-3.9889068995"><ele>1085.47</ele><time>2026-08-09T07:46:56Z</time></trkpt><trkpt lat="40.7150680013" lon="-3.9888896327"><ele>1085.47</ele><time>2026-08-09T07:47:21Z</time></trkpt><trkpt lat="40.7150690909" lon="-3.9888944104"><ele>1085.47</ele><time>2026-08-09T07:47:51Z</time></trkpt><trkpt lat="40.7150633913" lon="-3.9889039658"><ele>1085.47</ele><time>2026-08-09T07:48:22Z</time></trkpt><trkpt lat="40.7150518242" lon="-3.9889136888"><ele>1085.95</ele><time>2026-08-09T07:48:50Z</time></trkpt><trkpt lat="40.7150467113" lon="-3.9889078215"><ele>1085.95</ele><time>2026-08-09T07:49:15Z</time></trkpt><trkpt lat="40.7150879502" lon="-3.9888801612"><ele>1085.95</ele><time>2026-08-09T07:49:28Z</time></trkpt><trkpt lat="40.7151098270" lon="-3.9888677560"><ele>1085.95</ele><time>2026-08-09T07:49:30Z</time></trkpt><trkpt lat="40.7151990104" lon="-3.9888645709"><ele>1085.95</ele><time>2026-08-09T07:49:39Z</time></trkpt><trkpt lat="40.7152428478" lon="-3.9888523333"><ele>1085.95</ele><time>2026-08-09T07:49:55Z</time></trkpt><trkpt lat="40.7152770460" lon="-3.9888616372"><ele>1085.95</ele><time>2026-08-09T07:49:58Z</time></trkpt><trkpt lat="40.7154404093" lon="-3.9890920557"><ele>1087.39</ele><time>2026-08-09T07:50:11Z</time></trkpt><trkpt lat="40.7156915311" lon="-3.9895481151"><ele>1089.79</ele><time>2026-08-09T07:50:29Z</time></trkpt><trkpt lat="40.7160092890" lon="-3.9898942038"><ele>1091.23</ele><time>2026-08-09T07:50:45Z</time></trkpt><trkpt lat="40.7163000572" lon="-3.9903018158"><ele>1093.16</ele><time>2026-08-09T07:51:02Z</time></trkpt><trkpt lat="40.7164608222" lon="-3.9907463081"><ele>1096.52</ele><time>2026-08-09T07:51:17Z</time></trkpt><trkpt lat="40.7166410331" lon="-3.9911949914"><ele>1098.44</ele><time>2026-08-09T07:51:32Z</time></trkpt><trkpt lat="40.7166583836" lon="-3.9911902137"><ele>1098.44</ele><time>2026-08-09T07:51:33Z</time></trkpt><trkpt lat="40.7166671008" lon="-3.9911814965"><ele>1098.44</ele><time>2026-08-09T07:51:34Z</time></trkpt><trkpt lat="40.7166774105" lon="-3.9911627211"><ele>1098.44</ele><time>2026-08-09T07:51:35Z</time></trkpt><trkpt lat="40.7166888937" lon="-3.9911420178"><ele>1098.92</ele><time>2026-08-09T07:51:36Z</time></trkpt><trkpt lat="40.7167026401" lon="-3.9911213983"><ele>1098.92</ele><time>2026-08-09T07:51:37Z</time></trkpt><trkpt lat="40.7169205695" lon="-3.9909469709"><ele>1099.89</ele><time>2026-08-09T07:51:50Z</time></trkpt><trkpt lat="40.7172115892" lon="-3.9911572728"><ele>1103.25</ele><time>2026-08-09T07:52:05Z</time></trkpt><trkpt lat="40.7175057102" lon="-3.9914488792"><ele>1106.61</ele><time>2026-08-09T07:52:21Z</time></trkpt><trkpt lat="40.7178011723" lon="-3.9916949719"><ele>1109.98</ele><time>2026-08-09T07:52:36Z</time></trkpt><trkpt lat="40.7179044373" lon="-3.9919035975"><ele>1111.90</ele><time>2026-08-09T07:52:44Z</time></trkpt><trkpt lat="40.7179181837" lon="-3.9919044357"><ele>1111.90</ele><time>2026-08-09T07:52:45Z</time></trkpt><trkpt lat="40.7180793677" lon="-3.9919568226"><ele>1113.82</ele><time>2026-08-09T07:52:59Z</time></trkpt><trkpt lat="40.7180811279" lon="-3.9919662103"><ele>1113.82</ele><time>2026-08-09T07:53:01Z</time></trkpt><trkpt lat="40.7181098778" lon="-3.9919652883"><ele>1113.82</ele><time>2026-08-09T07:53:12Z</time></trkpt><trkpt lat="40.7181135658" lon="-3.9919706527"><ele>1113.82</ele><time>2026-08-09T07:53:33Z</time></trkpt><trkpt lat="40.7181398850" lon="-3.9919674676"><ele>1113.82</ele><time>2026-08-09T07:53:39Z</time></trkpt><trkpt lat="40.7181537151" lon="-3.9919686411"><ele>1114.31</ele><time>2026-08-09T07:53:40Z</time></trkpt><trkpt lat="40.7181672100" lon="-3.9919732511"><ele>1114.31</ele><time>2026-08-09T07:53:41Z</time></trkpt><trkpt lat="40.7181773521" lon="-3.9919864945"><ele>1114.31</ele><time>2026-08-09T07:53:42Z</time></trkpt><trkpt lat="40.7181816269" lon="-3.9920061920"><ele>1114.31</ele><time>2026-08-09T07:53:43Z</time></trkpt><trkpt lat="40.7181828842" lon="-3.9920258056"><ele>1114.79</ele><time>2026-08-09T07:53:44Z</time></trkpt><trkpt lat="40.7182351872" lon="-3.9923043363"><ele>1117.19</ele><time>2026-08-09T07:53:56Z</time></trkpt><trkpt lat="40.7182284817" lon="-3.9925903268"><ele>1120.07</ele><time>2026-08-09T07:54:08Z</time></trkpt><trkpt lat="40.7181734964" lon="-3.9928722102"><ele>1122.96</ele><time>2026-08-09T07:54:20Z</time></trkpt><trkpt lat="40.7181807049" lon="-3.9932233281"><ele>1124.40</ele><time>2026-08-09T07:54:32Z</time></trkpt><trkpt lat="40.7181681320" lon="-3.9932478871"><ele>1124.88</ele><time>2026-08-09T07:54:33Z</time></trkpt><trkpt lat="40.7181518711" lon="-3.9932706021"><ele>1124.88</ele><time>2026-08-09T07:54:34Z</time></trkpt><trkpt lat="40.7181352749" lon="-3.9932915568"><ele>1125.36</ele><time>2026-08-09T07:54:35Z</time></trkpt><trkpt lat="40.7181177568" lon="-3.9933120925"><ele>1125.36</ele><time>2026-08-09T07:54:36Z</time></trkpt><trkpt lat="40.7180948742" lon="-3.9933582768"><ele>1125.84</ele><time>2026-08-09T07:54:38Z</time></trkpt><trkpt lat="40.7180928625" lon="-3.9933882840"><ele>1125.84</ele><time>2026-08-09T07:54:39Z</time></trkpt><trkpt lat="40.7180967182" lon="-3.9934188779"><ele>1125.84</ele><time>2026-08-09T07:54:40Z</time></trkpt><trkpt lat="40.7182827964" lon="-3.9937036950"><ele>1128.73</ele><time>2026-08-09T07:54:53Z</time></trkpt><trkpt lat="40.7182983868" lon="-3.9937222190"><ele>1129.21</ele><time>2026-08-09T07:54:54Z</time></trkpt><trkpt lat="40.7183112949" lon="-3.9937458560"><ele>1129.21</ele><time>2026-08-09T07:54:55Z</time></trkpt><trkpt lat="40.7183404639" lon="-3.9937932976"><ele>1130.17</ele><time>2026-08-09T07:54:57Z</time></trkpt><trkpt lat="40.7184858900" lon="-3.9940280747"><ele>1132.09</ele><time>2026-08-09T07:55:10Z</time></trkpt><trkpt lat="40.7184816152" lon="-3.9940608479"><ele>1132.09</ele><time>2026-08-09T07:55:11Z</time></trkpt><trkpt lat="40.7184728980" lon="-3.9940952975"><ele>1132.09</ele><time>2026-08-09T07:55:12Z</time></trkpt><trkpt lat="40.7184638456" lon="-3.9941265620"><ele>1132.09</ele><time>2026-08-09T07:55:22Z</time></trkpt><trkpt lat="40.7184521947" lon="-3.9941894263"><ele>1132.09</ele><time>2026-08-09T07:55:38Z</time></trkpt><trkpt lat="40.7184451539" lon="-3.9942129795"><ele>1132.09</ele><time>2026-08-09T07:55:39Z</time></trkpt><trkpt lat="40.7183021586" lon="-3.9946975373"><ele>1132.57</ele><time>2026-08-09T07:55:52Z</time></trkpt><trkpt lat="40.7181082014" lon="-3.9952865336"><ele>1131.13</ele><time>2026-08-09T07:56:03Z</time></trkpt><trkpt lat="40.7180770207" lon="-3.9953540079"><ele>1131.13</ele><time>2026-08-09T07:56:04Z</time></trkpt><trkpt lat="40.7180450857" lon="-3.9954092447"><ele>1130.17</ele><time>2026-08-09T07:56:05Z</time></trkpt><trkpt lat="40.7180154137" lon="-3.9954501484"><ele>1130.17</ele><time>2026-08-09T07:56:06Z</time></trkpt><trkpt lat="40.7179917768" lon="-3.9954801556"><ele>1130.17</ele><time>2026-08-09T07:56:07Z</time></trkpt><trkpt lat="40.7179467659" lon="-3.9955336321"><ele>1132.09</ele><time>2026-08-09T07:56:09Z</time></trkpt><trkpt lat="40.7176668942" lon="-3.9958136715"><ele>1134.97</ele><time>2026-08-09T07:56:20Z</time></trkpt><trkpt lat="40.7174309436" lon="-3.9960502926"><ele>1138.34</ele><time>2026-08-09T07:56:30Z</time></trkpt><trkpt lat="40.7172017824" lon="-3.9963636082"><ele>1140.74</ele><time>2026-08-09T07:56:42Z</time></trkpt><trkpt lat="40.7171088271" lon="-3.9963769354"><ele>1140.74</ele><time>2026-08-09T07:56:44Z</time></trkpt><trkpt lat="40.7170576975" lon="-3.9963988960"><ele>1140.74</ele><time>2026-08-09T07:56:45Z</time></trkpt><trkpt lat="40.7168869581" lon="-3.9965055976"><ele>1138.82</ele><time>2026-08-09T07:56:49Z</time></trkpt><trkpt lat="40.7165918313" lon="-3.9967603236"><ele>1135.94</ele><time>2026-08-09T07:56:55Z</time></trkpt><trkpt lat="40.7161655277" lon="-3.9972007088"><ele>1134.97</ele><time>2026-08-09T07:57:05Z</time></trkpt><trkpt lat="40.7158312574" lon="-3.9975654054"><ele>1134.49</ele><time>2026-08-09T07:57:17Z</time></trkpt><trkpt lat="40.7154931314" lon="-3.9980789647"><ele>1134.49</ele><time>2026-08-09T07:57:28Z</time></trkpt><trkpt lat="40.7151959930" lon="-3.9985063579"><ele>1133.53</ele><time>2026-08-09T07:57:37Z</time></trkpt><trkpt lat="40.7151386607" lon="-3.9986517839"><ele>1134.97</ele><time>2026-08-09T07:57:40Z</time></trkpt><trkpt lat="40.7149357349" lon="-3.9992148802"><ele>1135.45</ele><time>2026-08-09T07:57:52Z</time></trkpt><trkpt lat="40.7147970982" lon="-3.9995101746"><ele>1132.09</ele><time>2026-08-09T07:57:56Z</time></trkpt><trkpt lat="40.7147392631" lon="-3.9996783156"><ele>1131.61</ele><time>2026-08-09T07:57:58Z</time></trkpt><trkpt lat="40.7146197371" lon="-3.9999162778"><ele>1131.61</ele><time>2026-08-09T07:58:01Z</time></trkpt><trkpt lat="40.7145624887" lon="-3.9999783039"><ele>1131.61</ele><time>2026-08-09T07:58:02Z</time></trkpt><trkpt lat="40.7145017199" lon="-4.0000192914"><ele>1131.61</ele><time>2026-08-09T07:58:03Z</time></trkpt><trkpt lat="40.7144365087" lon="-4.0000431798"><ele>1131.13</ele><time>2026-08-09T07:58:04Z</time></trkpt><trkpt lat="40.7143788412" lon="-4.0000590216"><ele>1131.13</ele><time>2026-08-09T07:58:05Z</time></trkpt><trkpt lat="40.7142707985" lon="-4.0001002606"><ele>1131.13</ele><time>2026-08-09T07:58:07Z</time></trkpt><trkpt lat="40.7142254524" lon="-4.0001306031"><ele>1131.13</ele><time>2026-08-09T07:58:08Z</time></trkpt><trkpt lat="40.7142092753" lon="-4.0000817366"><ele>1129.21</ele><time>2026-08-09T07:59:12Z</time></trkpt><trkpt lat="40.7142128795" lon="-4.0000722650"><ele>1129.21</ele><time>2026-08-09T07:59:13Z</time></trkpt><trkpt lat="40.7142531127" lon="-4.0000902861"><ele>1129.21</ele><time>2026-08-09T07:59:23Z</time></trkpt><trkpt lat="40.7142328285" lon="-4.0001377277"><ele>1129.21</ele><time>2026-08-09T07:59:26Z</time></trkpt><trkpt lat="40.7142163999" lon="-4.0001223888"><ele>1129.21</ele><time>2026-08-09T07:59:27Z</time></trkpt><trkpt lat="40.7142013125" lon="-4.0001199581"><ele>1128.73</ele><time>2026-08-09T07:59:28Z</time></trkpt><trkpt lat="40.7141657732" lon="-4.0001154318"><ele>1127.28</ele><time>2026-08-09T07:59:29Z</time></trkpt><trkpt lat="40.7141389512" lon="-4.0001045354"><ele>1127.28</ele><time>2026-08-09T07:59:30Z</time></trkpt><trkpt lat="40.7141034119" lon="-4.0000889450"><ele>1126.32</ele><time>2026-08-09T07:59:31Z</time></trkpt><trkpt lat="40.7140645199" lon="-4.0000648890"><ele>1126.32</ele><time>2026-08-09T07:59:32Z</time></trkpt><trkpt lat="40.7140208501" lon="-4.0000350494"><ele>1125.36</ele><time>2026-08-09T07:59:33Z</time></trkpt><trkpt lat="40.7139812876" lon="-4.0000014380"><ele>1124.88</ele><time>2026-08-09T07:59:34Z</time></trkpt><trkpt lat="40.7139414735" lon="-3.9999631327"><ele>1124.88</ele><time>2026-08-09T07:59:35Z</time></trkpt><trkpt lat="40.7138757594" lon="-3.9998788945"><ele>1122.96</ele><time>2026-08-09T07:59:37Z</time></trkpt><trkpt lat="40.7138299104" lon="-3.9998494741"><ele>1120.07</ele><time>2026-08-09T07:59:38Z</time></trkpt><trkpt lat="40.7137655374" lon="-3.9998271782"><ele>1116.71</ele><time>2026-08-09T07:59:39Z</time></trkpt><trkpt lat="40.7137207780" lon="-3.9998106658"><ele>1113.82</ele><time>2026-08-09T07:59:40Z</time></trkpt><trkpt lat="40.7136797067" lon="-3.9998000208"><ele>1110.46</ele><time>2026-08-09T07:59:41Z</time></trkpt><trkpt lat="40.7136444189" lon="-3.9998018648"><ele>1107.58</ele><time>2026-08-09T07:59:42Z</time></trkpt><trkpt lat="40.7136087958" lon="-3.9998175390"><ele>1105.65</ele><time>2026-08-09T07:59:43Z</time></trkpt><trkpt lat="40.7135759387" lon="-3.9998446126"><ele>1104.21</ele><time>2026-08-09T07:59:44Z</time></trkpt><trkpt lat="40.7135372143" lon="-3.9999097399"><ele>1100.85</ele><time>2026-08-09T07:59:46Z</time></trkpt><trkpt lat="40.7135024294" lon="-3.9999689162"><ele>1097.96</ele><time>2026-08-09T07:59:48Z</time></trkpt><trkpt lat="40.7134854980" lon="-4.0000073053"><ele>1096.52</ele><time>2026-08-09T07:59:49Z</time></trkpt><trkpt lat="40.7134745177" lon="-4.0000344627"><ele>1095.56</ele><time>2026-08-09T07:59:50Z</time></trkpt><trkpt lat="40.7134604361" lon="-4.0000715945"><ele>1094.60</ele><time>2026-08-09T07:59:51Z</time></trkpt><trkpt lat="40.7134406548" lon="-4.0001101512"><ele>1093.64</ele><time>2026-08-09T07:59:52Z</time></trkpt><trkpt lat="40.7133978233" lon="-4.0002368856"><ele>1090.75</ele><time>2026-08-09T07:59:55Z</time></trkpt><trkpt lat="40.7133809756" lon="-4.0003267396"><ele>1089.31</ele><time>2026-08-09T07:59:57Z</time></trkpt><trkpt lat="40.7133606076" lon="-4.0004052781"><ele>1087.87</ele><time>2026-08-09T07:59:59Z</time></trkpt><trkpt lat="40.7133282535" lon="-4.0006858204"><ele>1084.50</ele><time>2026-08-09T08:00:05Z</time></trkpt><trkpt lat="40.7132778782" lon="-4.0010039974"><ele>1081.62</ele><time>2026-08-09T08:00:12Z</time></trkpt><trkpt lat="40.7132498827" lon="-4.0011392813"><ele>1081.62</ele><time>2026-08-09T08:00:15Z</time></trkpt><trkpt lat="40.7132333703" lon="-4.0011886507"><ele>1082.10</ele><time>2026-08-09T08:00:16Z</time></trkpt><trkpt lat="40.7132110745" lon="-4.0012222622"><ele>1081.62</ele><time>2026-08-09T08:00:17Z</time></trkpt><trkpt lat="40.7131766248" lon="-4.0012350865"><ele>1081.62</ele><time>2026-08-09T08:00:18Z</time></trkpt><trkpt lat="40.7131484617" lon="-4.0012375172"><ele>1080.66</ele><time>2026-08-09T08:00:19Z</time></trkpt><trkpt lat="40.7129951566" lon="-4.0014771558"><ele>1078.74</ele><time>2026-08-09T08:00:29Z</time></trkpt><trkpt lat="40.7128724456" lon="-4.0017525852"><ele>1077.78</ele><time>2026-08-09T08:00:37Z</time></trkpt><trkpt lat="40.7128529157" lon="-4.0017998591"><ele>1077.29</ele><time>2026-08-09T08:00:38Z</time></trkpt><trkpt lat="40.7127934042" lon="-4.0018885396"><ele>1075.85</ele><time>2026-08-09T08:00:40Z</time></trkpt><trkpt lat="40.7127666660" lon="-4.0019182116"><ele>1075.37</ele><time>2026-08-09T08:00:41Z</time></trkpt><trkpt lat="40.7127368264" lon="-4.0019410104"><ele>1074.41</ele><time>2026-08-09T08:00:42Z</time></trkpt><trkpt lat="40.7126600482" lon="-4.0020193812"><ele>1072.49</ele><time>2026-08-09T08:00:45Z</time></trkpt><trkpt lat="40.7125713676" lon="-4.0021565929"><ele>1069.60</ele><time>2026-08-09T08:00:50Z</time></trkpt><trkpt lat="40.7125196513" lon="-4.0020980034"><ele>1069.12</ele><time>2026-08-09T08:00:52Z</time></trkpt><trkpt lat="40.7125059050" lon="-4.0020485502"><ele>1069.12</ele><time>2026-08-09T08:00:53Z</time></trkpt><trkpt lat="40.7124997862" lon="-4.0020079818"><ele>1069.12</ele><time>2026-08-09T08:00:54Z</time></trkpt><trkpt lat="40.7124987803" lon="-4.0019777231"><ele>1069.60</ele><time>2026-08-09T08:00:55Z</time></trkpt><trkpt lat="40.7124966849" lon="-4.0019341372"><ele>1069.60</ele><time>2026-08-09T08:00:56Z</time></trkpt><trkpt lat="40.7124946732" lon="-4.0018647350"><ele>1069.12</ele><time>2026-08-09T08:00:57Z</time></trkpt><trkpt lat="40.7124973554" lon="-4.0017946623"><ele>1069.12</ele><time>2026-08-09T08:00:58Z</time></trkpt><trkpt lat="40.7125066593" lon="-4.0017390065"><ele>1069.60</ele><time>2026-08-09T08:00:59Z</time></trkpt><trkpt lat="40.7125123590" lon="-4.0017137770"><ele>1070.08</ele><time>2026-08-09T08:01:00Z</time></trkpt><trkpt lat="40.7125773188" lon="-4.0013770759"><ele>1073.45</ele><time>2026-08-09T08:01:08Z</time></trkpt><trkpt lat="40.7124371734" lon="-4.0011075977"><ele>1075.85</ele><time>2026-08-09T08:01:14Z</time></trkpt><trkpt lat="40.7124023046" lon="-4.0010661911"><ele>1075.37</ele><time>2026-08-09T08:01:15Z</time></trkpt><trkpt lat="40.7123651728" lon="-4.0010293946"><ele>1075.37</ele><time>2026-08-09T08:01:16Z</time></trkpt><trkpt lat="40.7119746599" lon="-4.0006077010"><ele>1073.45</ele><time>2026-08-09T08:01:28Z</time></trkpt><trkpt lat="40.7118097041" lon="-4.0002069622"><ele>1073.93</ele><time>2026-08-09T08:01:35Z</time></trkpt><trkpt lat="40.7117641903" lon="-4.0000071377"><ele>1073.93</ele><time>2026-08-09T08:01:38Z</time></trkpt><trkpt lat="40.7116383780" lon="-3.9995099232"><ele>1072.49</ele><time>2026-08-09T08:01:45Z</time></trkpt><trkpt lat="40.7115881704" lon="-3.9993880503"><ele>1072.49</ele><time>2026-08-09T08:01:47Z</time></trkpt><trkpt lat="40.7115616836" lon="-3.9993385971"><ele>1072.01</ele><time>2026-08-09T08:01:48Z</time></trkpt><trkpt lat="40.7115320954" lon="-3.9992942568"><ele>1072.01</ele><time>2026-08-09T08:01:49Z</time></trkpt><trkpt lat="40.7114985678" lon="-3.9992493298"><ele>1072.01</ele><time>2026-08-09T08:01:50Z</time></trkpt><trkpt lat="40.7114680577" lon="-3.9992087614"><ele>1073.45</ele><time>2026-08-09T08:01:51Z</time></trkpt><trkpt lat="40.7113624457" lon="-3.9990497567"><ele>1073.93</ele><time>2026-08-09T08:02:00Z</time></trkpt><trkpt lat="40.7113476936" lon="-3.9990353398"><ele>1073.93</ele><time>2026-08-09T08:02:13Z</time></trkpt><trkpt lat="40.7113289181" lon="-3.9990391117"><ele>1073.93</ele><time>2026-08-09T08:02:14Z</time></trkpt><trkpt lat="40.7113002520" lon="-3.9990521036"><ele>1073.93</ele><time>2026-08-09T08:02:15Z</time></trkpt><trkpt lat="40.7112715021" lon="-3.9990701247"><ele>1073.93</ele><time>2026-08-09T08:02:16Z</time></trkpt><trkpt lat="40.7112340350" lon="-3.9990955219"><ele>1073.93</ele><time>2026-08-09T08:02:17Z</time></trkpt><trkpt lat="40.7111904491" lon="-3.9991306420"><ele>1073.93</ele><time>2026-08-09T08:02:18Z</time></trkpt><trkpt lat="40.7111585140" lon="-3.9991640858"><ele>1072.97</ele><time>2026-08-09T08:02:19Z</time></trkpt><trkpt lat="40.7111251540" lon="-3.9992021397"><ele>1072.97</ele><time>2026-08-09T08:02:20Z</time></trkpt><trkpt lat="40.7109798118" lon="-3.9994240087"><ele>1074.41</ele><time>2026-08-09T08:02:26Z</time></trkpt><trkpt lat="40.7109190430" lon="-3.9998566825"><ele>1077.29</ele><time>2026-08-09T08:02:38Z</time></trkpt><trkpt lat="40.7111006789" lon="-4.0004456788"><ele>1080.18</ele><time>2026-08-09T08:02:55Z</time></trkpt><trkpt lat="40.7112281676" lon="-4.0007983893"><ele>1083.54</ele><time>2026-08-09T08:03:06Z</time></trkpt><trkpt lat="40.7112425845" lon="-4.0011011437"><ele>1086.43</ele><time>2026-08-09T08:03:15Z</time></trkpt><trkpt lat="40.7113626134" lon="-4.0013500024"><ele>1090.27</ele><time>2026-08-09T08:03:25Z</time></trkpt><trkpt lat="40.7114655431" lon="-4.0017499868"><ele>1091.71</ele><time>2026-08-09T08:03:39Z</time></trkpt><trkpt lat="40.7115822192" lon="-4.0021974128"><ele>1094.12</ele><time>2026-08-09T08:03:55Z</time></trkpt><trkpt lat="40.7116082869" lon="-4.0026156697"><ele>1097.48</ele><time>2026-08-09T08:04:10Z</time></trkpt><trkpt lat="40.7116295770" lon="-4.0029008221"><ele>1100.85</ele><time>2026-08-09T08:04:20Z</time></trkpt><trkpt lat="40.7115843985" lon="-4.0031369403"><ele>1104.21</ele><time>2026-08-09T08:04:29Z</time></trkpt><trkpt lat="40.7115323469" lon="-4.0034627449"><ele>1107.10</ele><time>2026-08-09T08:04:41Z</time></trkpt><trkpt lat="40.7114624418" lon="-4.0037414432"><ele>1110.46</ele><time>2026-08-09T08:04:51Z</time></trkpt><trkpt lat="40.7114357874" lon="-4.0037863702"><ele>1111.42</ele><time>2026-08-09T08:04:53Z</time></trkpt><trkpt lat="40.7114283275" lon="-4.0038124379"><ele>1111.42</ele><time>2026-08-09T08:04:54Z</time></trkpt><trkpt lat="40.7114215381" lon="-4.0038386732"><ele>1111.90</ele><time>2026-08-09T08:04:55Z</time></trkpt><trkpt lat="40.7114136592" lon="-4.0038655791"><ele>1111.90</ele><time>2026-08-09T08:04:56Z</time></trkpt><trkpt lat="40.7114067860" lon="-4.0038925689"><ele>1111.90</ele><time>2026-08-09T08:04:57Z</time></trkpt><trkpt lat="40.7113292534" lon="-4.0041275974"><ele>1115.27</ele><time>2026-08-09T08:05:06Z</time></trkpt><trkpt lat="40.7112249825" lon="-4.0043047071"><ele>1118.15</ele><time>2026-08-09T08:05:15Z</time></trkpt><trkpt lat="40.7110993378" lon="-4.0044596046"><ele>1121.52</ele><time>2026-08-09T08:05:24Z</time></trkpt><trkpt lat="40.7110161055" lon="-4.0047087986"><ele>1124.88</ele><time>2026-08-09T08:05:34Z</time></trkpt><trkpt lat="40.7110395748" lon="-4.0050379559"><ele>1128.24</ele><time>2026-08-09T08:05:45Z</time></trkpt><trkpt lat="40.7111738529" lon="-4.0053794347"><ele>1131.61</ele><time>2026-08-09T08:05:57Z</time></trkpt><trkpt lat="40.7112010941" lon="-4.0058219153"><ele>1134.49</ele><time>2026-08-09T08:06:11Z</time></trkpt><trkpt lat="40.7111679856" lon="-4.0059289522"><ele>1135.94</ele><time>2026-08-09T08:06:22Z</time></trkpt><trkpt lat="40.7111455221" lon="-4.0060187224"><ele>1136.42</ele><time>2026-08-09T08:06:41Z</time></trkpt><trkpt lat="40.7108903769" lon="-4.0062515717"><ele>1139.30</ele><time>2026-08-09T08:06:52Z</time></trkpt><trkpt lat="40.7106635626" lon="-4.0064765420"><ele>1141.70</ele><time>2026-08-09T08:07:03Z</time></trkpt><trkpt lat="40.7106502354" lon="-4.0065243188"><ele>1142.18</ele><time>2026-08-09T08:07:05Z</time></trkpt><trkpt lat="40.7106551807" lon="-4.0065420885"><ele>1142.18</ele><time>2026-08-09T08:07:06Z</time></trkpt><trkpt lat="40.7106615510" lon="-4.0065641329"><ele>1142.66</ele><time>2026-08-09T08:07:07Z</time></trkpt><trkpt lat="40.7107086573" lon="-4.0067997482"><ele>1144.59</ele><time>2026-08-09T08:07:17Z</time></trkpt><trkpt lat="40.7107156981" lon="-4.0068186913"><ele>1144.59</ele><time>2026-08-09T08:07:18Z</time></trkpt><trkpt lat="40.7107209787" lon="-4.0068409033"><ele>1144.59</ele><time>2026-08-09T08:07:19Z</time></trkpt><trkpt lat="40.7107883692" lon="-4.0071487706"><ele>1147.47</ele><time>2026-08-09T08:07:33Z</time></trkpt><trkpt lat="40.7106996048" lon="-4.0075839590"><ele>1150.84</ele><time>2026-08-09T08:07:50Z</time></trkpt><trkpt lat="40.7104987744" lon="-4.0079649165"><ele>1154.20</ele><time>2026-08-09T08:08:06Z</time></trkpt><trkpt lat="40.7103568688" lon="-4.0082174633"><ele>1157.08</ele><time>2026-08-09T08:08:17Z</time></trkpt><trkpt lat="40.7103653345" lon="-4.0082457103"><ele>1157.56</ele><time>2026-08-09T08:08:18Z</time></trkpt><trkpt lat="40.7103742193" lon="-4.0082736220"><ele>1157.56</ele><time>2026-08-09T08:08:19Z</time></trkpt><trkpt lat="40.7104975171" lon="-4.0086244885"><ele>1160.93</ele><time>2026-08-09T08:08:32Z</time></trkpt><trkpt lat="40.7108236570" lon="-4.0089779533"><ele>1163.81</ele><time>2026-08-09T08:08:48Z</time></trkpt><trkpt lat="40.7111843303" lon="-4.0091471840"><ele>1165.26</ele><time>2026-08-09T08:09:01Z</time></trkpt><trkpt lat="40.7115341909" lon="-4.0092596691"><ele>1165.26</ele><time>2026-08-09T08:09:12Z</time></trkpt><trkpt lat="40.7114549819" lon="-4.0095935203"><ele>1168.14</ele><time>2026-08-09T08:09:23Z</time></trkpt><trkpt lat="40.7113282476" lon="-4.0097314864"><ele>1171.02</ele><time>2026-08-09T08:09:30Z</time></trkpt><trkpt lat="40.7111738529" lon="-4.0098793432"><ele>1174.39</ele><time>2026-08-09T08:09:39Z</time></trkpt><trkpt lat="40.7110384014" lon="-4.0100061614"><ele>1177.75</ele><time>2026-08-09T08:09:47Z</time></trkpt><trkpt lat="40.7109410875" lon="-4.0101905633"><ele>1181.12</ele><time>2026-08-09T08:09:56Z</time></trkpt><trkpt lat="40.7108614594" lon="-4.0103728697"><ele>1184.48</ele><time>2026-08-09T08:10:05Z</time></trkpt><trkpt lat="40.7107903808" lon="-4.0105294436"><ele>1187.37</ele><time>2026-08-09T08:10:13Z</time></trkpt><trkpt lat="40.7107285224" lon="-4.0106939804"><ele>1190.73</ele><time>2026-08-09T08:10:21Z</time></trkpt><trkpt lat="40.7106309570" lon="-4.0109994169"><ele>1194.09</ele><time>2026-08-09T08:10:33Z</time></trkpt><trkpt lat="40.7104921527" lon="-4.0111181047"><ele>1197.46</ele><time>2026-08-09T08:10:41Z</time></trkpt><trkpt lat="40.7103214972" lon="-4.0111036040"><ele>1200.34</ele><time>2026-08-09T08:10:49Z</time></trkpt><trkpt lat="40.7101320662" lon="-4.0113230422"><ele>1203.71</ele><time>2026-08-09T08:11:00Z</time></trkpt><trkpt lat="40.7101616543" lon="-4.0116396267"><ele>1205.63</ele><time>2026-08-09T08:11:12Z</time></trkpt><trkpt lat="40.7100470737" lon="-4.0118543711"><ele>1207.55</ele><time>2026-08-09T08:11:22Z</time></trkpt><trkpt lat="40.7098834589" lon="-4.0119578876"><ele>1210.92</ele><time>2026-08-09T08:11:32Z</time></trkpt><trkpt lat="40.7098783460" lon="-4.0121556167"><ele>1214.28</ele><time>2026-08-09T08:11:41Z</time></trkpt><trkpt lat="40.7099009771" lon="-4.0123597998"><ele>1217.65</ele><time>2026-08-09T08:11:49Z</time></trkpt><trkpt lat="40.7099476643" lon="-4.0126794856"><ele>1220.53</ele><time>2026-08-09T08:12:01Z</time></trkpt><trkpt lat="40.7099433057" lon="-4.0127943177"><ele>1221.01</ele><time>2026-08-09T08:12:05Z</time></trkpt><trkpt lat="40.7099312358" lon="-4.0128163621"><ele>1221.49</ele><time>2026-08-09T08:12:06Z</time></trkpt><trkpt lat="40.7099172380" lon="-4.0128370654"><ele>1221.97</ele><time>2026-08-09T08:12:07Z</time></trkpt><trkpt lat="40.7099006418" lon="-4.0128585231"><ele>1222.45</ele><time>2026-08-09T08:12:08Z</time></trkpt><trkpt lat="40.7098862249" lon="-4.0128819086"><ele>1222.45</ele><time>2026-08-09T08:12:09Z</time></trkpt><trkpt lat="40.7098769210" lon="-4.0129060484"><ele>1222.93</ele><time>2026-08-09T08:12:10Z</time></trkpt><trkpt lat="40.7098719757" lon="-4.0129314456"><ele>1222.93</ele><time>2026-08-09T08:12:11Z</time></trkpt><trkpt lat="40.7098753285" lon="-4.0129601117"><ele>1222.93</ele><time>2026-08-09T08:12:12Z</time></trkpt><trkpt lat="40.7098859735" lon="-4.0129872691"><ele>1222.93</ele><time>2026-08-09T08:12:13Z</time></trkpt><trkpt lat="40.7098960318" lon="-4.0130150132"><ele>1222.93</ele><time>2026-08-09T08:12:14Z</time></trkpt><trkpt lat="40.7099020667" lon="-4.0130425058"><ele>1222.93</ele><time>2026-08-09T08:12:15Z</time></trkpt><trkpt lat="40.7099069282" lon="-4.0130723454"><ele>1222.93</ele><time>2026-08-09T08:12:16Z</time></trkpt><trkpt lat="40.7099082693" lon="-4.0131013468"><ele>1222.93</ele><time>2026-08-09T08:12:17Z</time></trkpt><trkpt lat="40.7099070959" lon="-4.0131329466"><ele>1222.93</ele><time>2026-08-09T08:12:18Z</time></trkpt><trkpt lat="40.7099058386" lon="-4.0131625347"><ele>1222.93</ele><time>2026-08-09T08:12:19Z</time></trkpt><trkpt lat="40.7099075150" lon="-4.0131925419"><ele>1222.93</ele><time>2026-08-09T08:12:20Z</time></trkpt><trkpt lat="40.7099132147" lon="-4.0132859163"><ele>1221.49</ele><time>2026-08-09T08:12:24Z</time></trkpt><trkpt lat="40.7099067606" lon="-4.0133015066"><ele>1221.49</ele><time>2026-08-09T08:12:39Z</time></trkpt><trkpt lat="40.7099304814" lon="-4.0133495349"><ele>1221.49</ele><time>2026-08-09T08:13:09Z</time></trkpt><trkpt lat="40.7099334151" lon="-4.0133656282"><ele>1221.01</ele><time>2026-08-09T08:13:10Z</time></trkpt><trkpt lat="40.7099369355" lon="-4.0133855771"><ele>1221.01</ele><time>2026-08-09T08:13:11Z</time></trkpt><trkpt lat="40.7099397015" lon="-4.0134023409"><ele>1221.01</ele><time>2026-08-09T08:13:12Z</time></trkpt><trkpt lat="40.7099408749" lon="-4.0134252235"><ele>1221.01</ele><time>2026-08-09T08:13:13Z</time></trkpt><trkpt lat="40.7099431381" lon="-4.0134474356"><ele>1221.01</ele><time>2026-08-09T08:13:14Z</time></trkpt><trkpt lat="40.7099468261" lon="-4.0134760179"><ele>1220.53</ele><time>2026-08-09T08:13:15Z</time></trkpt><trkpt lat="40.7099526096" lon="-4.0135071985"><ele>1221.01</ele><time>2026-08-09T08:13:16Z</time></trkpt><trkpt lat="40.7099431381" lon="-4.0139998030"><ele>1218.61</ele><time>2026-08-09T08:13:26Z</time></trkpt><trkpt lat="40.7099256199" lon="-4.0141272917"><ele>1217.65</ele><time>2026-08-09T08:13:28Z</time></trkpt><trkpt lat="40.7099151425" lon="-4.0141940117"><ele>1217.17</ele><time>2026-08-09T08:13:29Z</time></trkpt><trkpt lat="40.7098508533" lon="-4.0148149431"><ele>1212.84</ele><time>2026-08-09T08:13:38Z</time></trkpt><trkpt lat="40.7098399568" lon="-4.0148882009"><ele>1212.84</ele><time>2026-08-09T08:13:39Z</time></trkpt><trkpt lat="40.7097728178" lon="-4.0153449308"><ele>1209.96</ele><time>2026-08-09T08:13:45Z</time></trkpt><trkpt lat="40.7097542938" lon="-4.0154255647"><ele>1209.48</ele><time>2026-08-09T08:13:46Z</time></trkpt><trkpt lat="40.7095825486" lon="-4.0159281436"><ele>1207.55</ele><time>2026-08-09T08:13:52Z</time></trkpt><trkpt lat="40.7095415611" lon="-4.0160112921"><ele>1207.07</ele><time>2026-08-09T08:13:53Z</time></trkpt><trkpt lat="40.7089869305" lon="-4.0169167891"><ele>1203.71</ele><time>2026-08-09T08:14:06Z</time></trkpt><trkpt lat="40.7088772953" lon="-4.0170346387"><ele>1203.71</ele><time>2026-08-09T08:14:09Z</time></trkpt><trkpt lat="40.7087595295" lon="-4.0171550866"><ele>1203.71</ele><time>2026-08-09T08:14:12Z</time></trkpt><trkpt lat="40.7087259181" lon="-4.0171947330"><ele>1203.71</ele><time>2026-08-09T08:14:13Z</time></trkpt><trkpt lat="40.7082184777" lon="-4.0177364554"><ele>1203.23</ele><time>2026-08-09T08:14:29Z</time></trkpt><trkpt lat="40.7080978621" lon="-4.0178685542"><ele>1204.67</ele><time>2026-08-09T08:14:33Z</time></trkpt><trkpt lat="40.7076340914" lon="-4.0181863122"><ele>1206.59</ele><time>2026-08-09T08:14:48Z</time></trkpt><trkpt lat="40.7075288147" lon="-4.0182008967"><ele>1208.03</ele><time>2026-08-09T08:14:51Z</time></trkpt><trkpt lat="40.7071293332" lon="-4.0182610787"><ele>1211.40</ele><time>2026-08-09T08:15:05Z</time></trkpt><trkpt lat="40.7067986671" lon="-4.0184189100"><ele>1214.28</ele><time>2026-08-09T08:15:17Z</time></trkpt><trkpt lat="40.7064344734" lon="-4.0185642522"><ele>1215.72</ele><time>2026-08-09T08:15:29Z</time></trkpt><trkpt lat="40.7060961798" lon="-4.0186806768"><ele>1219.09</ele><time>2026-08-09T08:15:41Z</time></trkpt><trkpt lat="40.7057631668" lon="-4.0190244187"><ele>1222.45</ele><time>2026-08-09T08:15:56Z</time></trkpt><trkpt lat="40.7054263819" lon="-4.0195787977"><ele>1225.82</ele><time>2026-08-09T08:16:14Z</time></trkpt><trkpt lat="40.7051512878" lon="-4.0195586812"><ele>1227.74</ele><time>2026-08-09T08:16:24Z</time></trkpt><trkpt lat="40.7047187816" lon="-4.0195174422"><ele>1230.14</ele><time>2026-08-09T08:16:39Z</time></trkpt><trkpt lat="40.7044047955" lon="-4.0196358785"><ele>1230.62</ele><time>2026-08-09T08:16:49Z</time></trkpt><trkpt lat="40.7043752074" lon="-4.0196713340"><ele>1230.62</ele><time>2026-08-09T08:16:50Z</time></trkpt><trkpt lat="40.7043467928" lon="-4.0197098069"><ele>1230.62</ele><time>2026-08-09T08:16:51Z</time></trkpt><trkpt lat="40.7043192163" lon="-4.0197521355"><ele>1230.62</ele><time>2026-08-09T08:16:52Z</time></trkpt><trkpt lat="40.7042923942" lon="-4.0197964758"><ele>1230.62</ele><time>2026-08-09T08:16:53Z</time></trkpt><trkpt lat="40.7041846868" lon="-4.0199769381"><ele>1230.62</ele><time>2026-08-09T08:16:57Z</time></trkpt><trkpt lat="40.7041530032" lon="-4.0200129803"><ele>1230.62</ele><time>2026-08-09T08:16:58Z</time></trkpt><trkpt lat="40.7041201461" lon="-4.0200449992"><ele>1230.62</ele><time>2026-08-09T08:16:59Z</time></trkpt><trkpt lat="40.7040518336" lon="-4.0201058518"><ele>1230.62</ele><time>2026-08-09T08:17:01Z</time></trkpt><trkpt lat="40.7036132924" lon="-4.0204579756"><ele>1232.07</ele><time>2026-08-09T08:17:15Z</time></trkpt><trkpt lat="40.7035364304" lon="-4.0205442254"><ele>1232.07</ele><time>2026-08-09T08:17:17Z</time></trkpt><trkpt lat="40.7032632641" lon="-4.0208479855"><ele>1228.70</ele><time>2026-08-09T08:17:22Z</time></trkpt><trkpt lat="40.7029067818" lon="-4.0211614687"><ele>1227.26</ele><time>2026-08-09T08:17:27Z</time></trkpt><trkpt lat="40.7027731743" lon="-4.0212779772"><ele>1227.26</ele><time>2026-08-09T08:17:29Z</time></trkpt><trkpt lat="40.7025861740" lon="-4.0214550029"><ele>1226.78</ele><time>2026-08-09T08:17:33Z</time></trkpt><trkpt lat="40.7025053725" lon="-4.0215113293"><ele>1226.78</ele><time>2026-08-09T08:17:35Z</time></trkpt><trkpt lat="40.7024273369" lon="-4.0215504728"><ele>1228.22</ele><time>2026-08-09T08:17:37Z</time></trkpt><trkpt lat="40.7019990217" lon="-4.0218127426"><ele>1228.22</ele><time>2026-08-09T08:17:49Z</time></trkpt><trkpt lat="40.7018293720" lon="-4.0219044406"><ele>1226.78</ele><time>2026-08-09T08:17:53Z</time></trkpt><trkpt lat="40.7016750611" lon="-4.0219676401"><ele>1224.38</ele><time>2026-08-09T08:17:57Z</time></trkpt><trkpt lat="40.7016199082" lon="-4.0221103840"><ele>1221.97</ele><time>2026-08-09T08:18:00Z</time></trkpt><trkpt lat="40.7016260270" lon="-4.0221365355"><ele>1221.97</ele><time>2026-08-09T08:18:01Z</time></trkpt><trkpt lat="40.7016441319" lon="-4.0221705660"><ele>1221.49</ele><time>2026-08-09T08:18:02Z</time></trkpt><trkpt lat="40.7016669307" lon="-4.0221979748"><ele>1221.49</ele><time>2026-08-09T08:18:03Z</time></trkpt><trkpt lat="40.7016981952" lon="-4.0222120564"><ele>1221.01</ele><time>2026-08-09T08:18:04Z</time></trkpt><trkpt lat="40.7017310522" lon="-4.0222191811"><ele>1221.01</ele><time>2026-08-09T08:18:05Z</time></trkpt><trkpt lat="40.7017654181" lon="-4.0222228691"><ele>1221.01</ele><time>2026-08-09T08:18:06Z</time></trkpt><trkpt lat="40.7018193975" lon="-4.0222506132"><ele>1220.53</ele><time>2026-08-09T08:18:08Z</time></trkpt><trkpt lat="40.7018332276" lon="-4.0222797822"><ele>1219.57</ele><time>2026-08-09T08:18:09Z</time></trkpt><trkpt lat="40.7018358260" lon="-4.0223071910"><ele>1219.09</ele><time>2026-08-09T08:18:10Z</time></trkpt><trkpt lat="40.7018304616" lon="-4.0223389585"><ele>1219.09</ele><time>2026-08-09T08:18:11Z</time></trkpt><trkpt lat="40.7018183917" lon="-4.0223646909"><ele>1218.13</ele><time>2026-08-09T08:18:12Z</time></trkpt><trkpt lat="40.7018022146" lon="-4.0223871544"><ele>1217.65</ele><time>2026-08-09T08:18:13Z</time></trkpt><trkpt lat="40.7015538588" lon="-4.0226205904"><ele>1214.76</ele><time>2026-08-09T08:18:22Z</time></trkpt><trkpt lat="40.7015137933" lon="-4.0226593986"><ele>1213.32</ele><time>2026-08-09T08:18:23Z</time></trkpt><trkpt lat="40.7014904078" lon="-4.0227064211"><ele>1212.36</ele><time>2026-08-09T08:18:24Z</time></trkpt><trkpt lat="40.7014895696" lon="-4.0227484144"><ele>1211.88</ele><time>2026-08-09T08:18:25Z</time></trkpt><trkpt lat="40.7015077583" lon="-4.0227835346"><ele>1211.88</ele><time>2026-08-09T08:18:26Z</time></trkpt><trkpt lat="40.7015397772" lon="-4.0228055790"><ele>1211.40</ele><time>2026-08-09T08:18:27Z</time></trkpt><trkpt lat="40.7015790883" lon="-4.0228112787"><ele>1211.40</ele><time>2026-08-09T08:18:28Z</time></trkpt><trkpt lat="40.7016190700" lon="-4.0228067525"><ele>1210.92</ele><time>2026-08-09T08:18:29Z</time></trkpt><trkpt lat="40.7016634103" lon="-4.0228081774"><ele>1209.96</ele><time>2026-08-09T08:18:30Z</time></trkpt><trkpt lat="40.7017100975" lon="-4.0228116140"><ele>1209.96</ele><time>2026-08-09T08:18:31Z</time></trkpt><trkpt lat="40.7017634902" lon="-4.0228155535"><ele>1209.48</ele><time>2026-08-09T08:18:32Z</time></trkpt><trkpt lat="40.7019846048" lon="-4.0228391066"><ele>1208.51</ele><time>2026-08-09T08:18:36Z</time></trkpt><trkpt lat="40.7021438610" lon="-4.0228648391"><ele>1206.11</ele><time>2026-08-09T08:18:39Z</time></trkpt><trkpt lat="40.7022457011" lon="-4.0228613187"><ele>1204.67</ele><time>2026-08-09T08:18:41Z</time></trkpt><trkpt lat="40.7022954058" lon="-4.0228581335"><ele>1204.19</ele><time>2026-08-09T08:18:42Z</time></trkpt><trkpt lat="40.7023348007" lon="-4.0228725504"><ele>1203.23</ele><time>2026-08-09T08:18:43Z</time></trkpt><trkpt lat="40.7023618743" lon="-4.0229085926"><ele>1201.30</ele><time>2026-08-09T08:18:44Z</time></trkpt><trkpt lat="40.7023689989" lon="-4.0229577944"><ele>1200.82</ele><time>2026-08-09T08:18:45Z</time></trkpt><trkpt lat="40.7023539115" lon="-4.0230119415"><ele>1199.86</ele><time>2026-08-09T08:18:46Z</time></trkpt><trkpt lat="40.7023228984" lon="-4.0230591316"><ele>1199.86</ele><time>2026-08-09T08:18:47Z</time></trkpt><trkpt lat="40.7022824977" lon="-4.0231110156"><ele>1199.38</ele><time>2026-08-09T08:18:48Z</time></trkpt><trkpt lat="40.7021889556" lon="-4.0232078265"><ele>1198.42</ele><time>2026-08-09T08:18:50Z</time></trkpt><trkpt lat="40.7021326292" lon="-4.0232398454"><ele>1198.42</ele><time>2026-08-09T08:18:51Z</time></trkpt><trkpt lat="40.7020672504" lon="-4.0232709423"><ele>1198.42</ele><time>2026-08-09T08:18:52Z</time></trkpt><trkpt lat="40.7020011172" lon="-4.0233022068"><ele>1197.46</ele><time>2026-08-09T08:18:53Z</time></trkpt><trkpt lat="40.7019276917" lon="-4.0233338065"><ele>1196.50</ele><time>2026-08-09T08:18:54Z</time></trkpt><trkpt lat="40.7017779071" lon="-4.0234136861"><ele>1195.54</ele><time>2026-08-09T08:18:56Z</time></trkpt><trkpt lat="40.7016309723" lon="-4.0235146880"><ele>1194.09</ele><time>2026-08-09T08:18:58Z</time></trkpt><trkpt lat="40.7015619054" lon="-4.0235756245"><ele>1194.09</ele><time>2026-08-09T08:18:59Z</time></trkpt><trkpt lat="40.7013625838" lon="-4.0237658937"><ele>1192.65</ele><time>2026-08-09T08:19:02Z</time></trkpt><trkpt lat="40.7011524495" lon="-4.0239829011"><ele>1192.65</ele><time>2026-08-09T08:19:06Z</time></trkpt><trkpt lat="40.7011085283" lon="-4.0240207873"><ele>1192.65</ele><time>2026-08-09T08:19:07Z</time></trkpt><trkpt lat="40.7006347831" lon="-4.0243952069"><ele>1189.29</ele><time>2026-08-09T08:19:16Z</time></trkpt><trkpt lat="40.7003865950" lon="-4.0245794412"><ele>1186.40</ele><time>2026-08-09T08:19:20Z</time></trkpt><trkpt lat="40.7002646383" lon="-4.0246962849"><ele>1185.44</ele><time>2026-08-09T08:19:22Z</time></trkpt><trkpt lat="40.7001416758" lon="-4.0248141345"><ele>1183.52</ele><time>2026-08-09T08:19:24Z</time></trkpt><trkpt lat="40.7000801526" lon="-4.0248595644"><ele>1182.56</ele><time>2026-08-09T08:19:25Z</time></trkpt><trkpt lat="40.7000115048" lon="-4.0248975344"><ele>1181.60</ele><time>2026-08-09T08:19:26Z</time></trkpt><trkpt lat="40.6999415159" lon="-4.0249231830"><ele>1181.12</ele><time>2026-08-09T08:19:27Z</time></trkpt><trkpt lat="40.6998751312" lon="-4.0249404497"><ele>1179.67</ele><time>2026-08-09T08:19:28Z</time></trkpt><trkpt lat="40.6997637358" lon="-4.0249762405"><ele>1177.27</ele><time>2026-08-09T08:19:30Z</time></trkpt><trkpt lat="40.6997146178" lon="-4.0250013024"><ele>1176.31</ele><time>2026-08-09T08:19:31Z</time></trkpt><trkpt lat="40.6996714510" lon="-4.0250330698"><ele>1175.83</ele><time>2026-08-09T08:19:32Z</time></trkpt><trkpt lat="40.6996396836" lon="-4.0250714589"><ele>1174.87</ele><time>2026-08-09T08:19:33Z</time></trkpt><trkpt lat="40.6996193156" lon="-4.0251162183"><ele>1173.91</ele><time>2026-08-09T08:19:34Z</time></trkpt><trkpt lat="40.6996145379" lon="-4.0251669288"><ele>1172.47</ele><time>2026-08-09T08:19:35Z</time></trkpt><trkpt lat="40.6996270269" lon="-4.0252077486"><ele>1171.50</ele><time>2026-08-09T08:19:36Z</time></trkpt><trkpt lat="40.6996575370" lon="-4.0252318885"><ele>1171.98</ele><time>2026-08-09T08:19:37Z</time></trkpt><trkpt lat="40.6996928249" lon="-4.0252444614"><ele>1171.50</ele><time>2026-08-09T08:19:38Z</time></trkpt><trkpt lat="40.6997284479" lon="-4.0252557769"><ele>1171.02</ele><time>2026-08-09T08:19:39Z</time></trkpt><trkpt lat="40.6997601315" lon="-4.0252690203"><ele>1170.54</ele><time>2026-08-09T08:19:40Z</time></trkpt><trkpt lat="40.6997866184" lon="-4.0252845269"><ele>1170.06</ele><time>2026-08-09T08:19:41Z</time></trkpt><trkpt lat="40.6998097524" lon="-4.0252997819"><ele>1170.06</ele><time>2026-08-09T08:19:42Z</time></trkpt><trkpt lat="40.6998265162" lon="-4.0253154561"><ele>1169.58</ele><time>2026-08-09T08:19:43Z</time></trkpt><trkpt lat="40.6998385023" lon="-4.0253281966"><ele>1169.10</ele><time>2026-08-09T08:19:44Z</time></trkpt><trkpt lat="40.6998690125" lon="-4.0253463853"><ele>1169.10</ele><time>2026-08-09T08:19:59Z</time></trkpt><trkpt lat="40.6998743769" lon="-4.0253672563"><ele>1169.10</ele><time>2026-08-09T08:20:19Z</time></trkpt><trkpt lat="40.6998680066" lon="-4.0253879596"><ele>1168.62</ele><time>2026-08-09T08:20:20Z</time></trkpt><trkpt lat="40.6998669170" lon="-4.0254134405"><ele>1168.14</ele><time>2026-08-09T08:20:21Z</time></trkpt><trkpt lat="40.6998678390" lon="-4.0254247561"><ele>1168.14</ele><time>2026-08-09T08:20:22Z</time></trkpt><trkpt lat="40.6998525001" lon="-4.0254728682"><ele>1166.70</ele><time>2026-08-09T08:20:29Z</time></trkpt><trkpt lat="40.6998427771" lon="-4.0254888777"><ele>1166.70</ele><time>2026-08-09T08:20:30Z</time></trkpt><trkpt lat="40.6998314615" lon="-4.0255043004"><ele>1166.22</ele><time>2026-08-09T08:20:31Z</time></trkpt><trkpt lat="40.6998212356" lon="-4.0255208127"><ele>1166.22</ele><time>2026-08-09T08:20:32Z</time></trkpt><trkpt lat="40.6998142786" lon="-4.0255418513"><ele>1165.74</ele><time>2026-08-09T08:20:33Z</time></trkpt><trkpt lat="40.6998062320" lon="-4.0255723614"><ele>1165.74</ele><time>2026-08-09T08:20:34Z</time></trkpt><trkpt lat="40.6997954194" lon="-4.0255991835"><ele>1164.77</ele><time>2026-08-09T08:20:35Z</time></trkpt><trkpt lat="40.6997800805" lon="-4.0256261732"><ele>1164.77</ele><time>2026-08-09T08:20:36Z</time></trkpt><trkpt lat="40.6997540127" lon="-4.0256807394"><ele>1163.33</ele><time>2026-08-09T08:20:38Z</time></trkpt><trkpt lat="40.6997484807" lon="-4.0257132612"><ele>1162.85</ele><time>2026-08-09T08:20:39Z</time></trkpt><trkpt lat="40.6997404341" lon="-4.0257560927"><ele>1162.85</ele><time>2026-08-09T08:20:40Z</time></trkpt><trkpt lat="40.6997210719" lon="-4.0257984214"><ele>1162.37</ele><time>2026-08-09T08:20:41Z</time></trkpt><trkpt lat="40.6997012068" lon="-4.0258304402"><ele>1161.41</ele><time>2026-08-09T08:20:42Z</time></trkpt><trkpt lat="40.6996854488" lon="-4.0258632135"><ele>1160.93</ele><time>2026-08-09T08:20:43Z</time></trkpt><trkpt lat="40.6996712834" lon="-4.0258958191"><ele>1160.45</ele><time>2026-08-09T08:20:44Z</time></trkpt><trkpt lat="40.6996453833" lon="-4.0259315260"><ele>1159.97</ele><time>2026-08-09T08:20:54Z</time></trkpt><trkpt lat="40.6996490713" lon="-4.0259530675"><ele>1159.97</ele><time>2026-08-09T08:20:59Z</time></trkpt><trkpt lat="40.6996429525" lon="-4.0259829909"><ele>1159.97</ele><time>2026-08-09T08:21:00Z</time></trkpt><trkpt lat="40.6996282004" lon="-4.0260182787"><ele>1159.49</ele><time>2026-08-09T08:21:01Z</time></trkpt><trkpt lat="40.6996142864" lon="-4.0260564163"><ele>1159.49</ele><time>2026-08-09T08:21:02Z</time></trkpt><trkpt lat="40.6996028870" lon="-4.0261127427"><ele>1158.53</ele><time>2026-08-09T08:21:03Z</time></trkpt><trkpt lat="40.6995969359" lon="-4.0261618607"><ele>1158.53</ele><time>2026-08-09T08:21:04Z</time></trkpt><trkpt lat="40.6995875482" lon="-4.0262015071"><ele>1157.56</ele><time>2026-08-09T08:21:05Z</time></trkpt><trkpt lat="40.6995743886" lon="-4.0262399800"><ele>1157.08</ele><time>2026-08-09T08:21:06Z</time></trkpt><trkpt lat="40.6995587144" lon="-4.0262826439"><ele>1157.08</ele><time>2026-08-09T08:21:07Z</time></trkpt><trkpt lat="40.6994957663" lon="-4.0264710691"><ele>1155.16</ele><time>2026-08-09T08:21:13Z</time></trkpt><trkpt lat="40.6995323952" lon="-4.0267524496"><ele>1151.32</ele><time>2026-08-09T08:21:19Z</time></trkpt><trkpt lat="40.6995317247" lon="-4.0268069319"><ele>1151.80</ele><time>2026-08-09T08:21:20Z</time></trkpt><trkpt lat="40.6995362509" lon="-4.0269262902"><ele>1150.35</ele><time>2026-08-09T08:21:22Z</time></trkpt><trkpt lat="40.6995480694" lon="-4.0269880649"><ele>1149.87</ele><time>2026-08-09T08:21:23Z</time></trkpt><trkpt lat="40.6995682698" lon="-4.0270505939"><ele>1148.91</ele><time>2026-08-09T08:21:24Z</time></trkpt><trkpt lat="40.6996720377" lon="-4.0273111034"><ele>1145.55</ele><time>2026-08-09T08:21:29Z</time></trkpt><trkpt lat="40.6997245084" lon="-4.0275207348"><ele>1142.18</ele><time>2026-08-09T08:21:33Z</time></trkpt><trkpt lat="40.6997322198" lon="-4.0275827609"><ele>1140.74</ele><time>2026-08-09T08:21:34Z</time></trkpt><trkpt lat="40.6997364946" lon="-4.0276406799"><ele>1139.30</ele><time>2026-08-09T08:21:35Z</time></trkpt><trkpt lat="40.6997360755" lon="-4.0277030412"><ele>1138.34</ele><time>2026-08-09T08:21:36Z</time></trkpt><trkpt lat="40.6997341476" lon="-4.0277513210"><ele>1136.90</ele><time>2026-08-09T08:21:37Z</time></trkpt><trkpt lat="40.6997215748" lon="-4.0279197972"><ele>1133.53</ele><time>2026-08-09T08:21:40Z</time></trkpt><trkpt lat="40.6997196469" lon="-4.0279879421"><ele>1132.57</ele><time>2026-08-09T08:21:41Z</time></trkpt><trkpt lat="40.6997084990" lon="-4.0282292571"><ele>1129.21</ele><time>2026-08-09T08:21:44Z</time></trkpt><trkpt lat="40.6997002847" lon="-4.0284833964"><ele>1125.84</ele><time>2026-08-09T08:21:47Z</time></trkpt><trkpt lat="40.6997088343" lon="-4.0286231227"><ele>1123.92</ele><time>2026-08-09T08:21:49Z</time></trkpt><trkpt lat="40.6997232512" lon="-4.0286707319"><ele>1122.96</ele><time>2026-08-09T08:21:50Z</time></trkpt><trkpt lat="40.6997461338" lon="-4.0286922734"><ele>1122.96</ele><time>2026-08-09T08:21:51Z</time></trkpt><trkpt lat="40.6999955792" lon="-4.0288722329"><ele>1122.96</ele><time>2026-08-09T08:22:01Z</time></trkpt><trkpt lat="40.7000126783" lon="-4.0288686287"><ele>1123.44</ele><time>2026-08-09T08:22:02Z</time></trkpt><trkpt lat="40.7000305317" lon="-4.0288739093"><ele>1123.44</ele><time>2026-08-09T08:22:14Z</time></trkpt><trkpt lat="40.7000379078" lon="-4.0289012343"><ele>1123.44</ele><time>2026-08-09T08:22:31Z</time></trkpt><trkpt lat="40.7000523247" lon="-4.0289263800"><ele>1123.44</ele><time>2026-08-09T08:22:35Z</time></trkpt><trkpt lat="40.7003299333" lon="-4.0291572176"><ele>1125.84</ele><time>2026-08-09T08:22:45Z</time></trkpt><trkpt lat="40.7003749441" lon="-4.0291675273"><ele>1126.32</ele><time>2026-08-09T08:22:46Z</time></trkpt><trkpt lat="40.7004094776" lon="-4.0291730594"><ele>1126.32</ele><time>2026-08-09T08:22:47Z</time></trkpt><trkpt lat="40.7008138206" lon="-4.0291651804"><ele>1125.36</ele><time>2026-08-09T08:22:57Z</time></trkpt><trkpt lat="40.7014766615" lon="-4.0290693752"><ele>1124.88</ele><time>2026-08-09T08:23:15Z</time></trkpt><trkpt lat="40.7017946709" lon="-4.0290354285"><ele>1124.40</ele><time>2026-08-09T08:23:23Z</time></trkpt><trkpt lat="40.7018378377" lon="-4.0290257055"><ele>1124.40</ele><time>2026-08-09T08:23:24Z</time></trkpt><trkpt lat="40.7018813398" lon="-4.0290128812"><ele>1124.40</ele><time>2026-08-09T08:23:25Z</time></trkpt><trkpt lat="40.7019221596" lon="-4.0289962012"><ele>1124.40</ele><time>2026-08-09T08:23:26Z</time></trkpt><trkpt lat="40.7019587886" lon="-4.0289713070"><ele>1124.40</ele><time>2026-08-09T08:23:27Z</time></trkpt><trkpt lat="40.7019931544" lon="-4.0289348457"><ele>1124.40</ele><time>2026-08-09T08:23:28Z</time></trkpt><trkpt lat="40.7020232454" lon="-4.0289007314"><ele>1123.92</ele><time>2026-08-09T08:23:29Z</time></trkpt><trkpt lat="40.7020555157" lon="-4.0288659465"><ele>1123.92</ele><time>2026-08-09T08:23:30Z</time></trkpt><trkpt lat="40.7021940686" lon="-4.0287443250"><ele>1123.44</ele><time>2026-08-09T08:23:34Z</time></trkpt><trkpt lat="40.7022355590" lon="-4.0287281480"><ele>1123.44</ele><time>2026-08-09T08:23:35Z</time></trkpt><trkpt lat="40.7022749539" lon="-4.0287211072"><ele>1123.44</ele><time>2026-08-09T08:23:36Z</time></trkpt><trkpt lat="40.7023138460" lon="-4.0287178382"><ele>1123.44</ele><time>2026-08-09T08:23:37Z</time></trkpt><trkpt lat="40.7023499720" lon="-4.0287201013"><ele>1123.44</ele><time>2026-08-09T08:23:38Z</time></trkpt><trkpt lat="40.7023829967" lon="-4.0287257172"><ele>1123.44</ele><time>2026-08-09T08:23:39Z</time></trkpt><trkpt lat="40.7026560791" lon="-4.0287049301"><ele>1123.44</ele><time>2026-08-09T08:23:46Z</time></trkpt><trkpt lat="40.7028177660" lon="-4.0286890045"><ele>1124.88</ele><time>2026-08-09T08:23:50Z</time></trkpt><trkpt lat="40.7034084387" lon="-4.0285776090"><ele>1124.88</ele><time>2026-08-09T08:24:05Z</time></trkpt><trkpt lat="40.7039385103" lon="-4.0284448396"><ele>1124.88</ele><time>2026-08-09T08:24:18Z</time></trkpt><trkpt lat="40.7041818369" lon="-4.0284180176"><ele>1123.44</ele><time>2026-08-09T08:24:23Z</time></trkpt><trkpt lat="40.7047308516" lon="-4.0284071211"><ele>1123.44</ele><time>2026-08-09T08:24:36Z</time></trkpt><trkpt lat="40.7053774316" lon="-4.0283080470"><ele>1124.88</ele><time>2026-08-09T08:24:50Z</time></trkpt><trkpt lat="40.7060037274" lon="-4.0282202885"><ele>1126.32</ele><time>2026-08-09T08:25:07Z</time></trkpt><trkpt lat="40.7060912345" lon="-4.0281839948"><ele>1127.28</ele><time>2026-08-09T08:25:10Z</time></trkpt><trkpt lat="40.7061082497" lon="-4.0281559993"><ele>1127.28</ele><time>2026-08-09T08:25:11Z</time></trkpt><trkpt lat="40.7061195653" lon="-4.0281206276"><ele>1127.28</ele><time>2026-08-09T08:25:12Z</time></trkpt><trkpt lat="40.7061241753" lon="-4.0280829929"><ele>1127.76</ele><time>2026-08-09T08:25:13Z</time></trkpt><trkpt lat="40.7061281148" lon="-4.0280417539"><ele>1127.76</ele><time>2026-08-09T08:25:14Z</time></trkpt><trkpt lat="40.7061779033" lon="-4.0277447831"><ele>1131.13</ele><time>2026-08-09T08:25:22Z</time></trkpt><trkpt lat="40.7061851956" lon="-4.0277110040"><ele>1131.13</ele><time>2026-08-09T08:25:23Z</time></trkpt><trkpt lat="40.7062927354" lon="-4.0273029730"><ele>1134.49</ele><time>2026-08-09T08:25:35Z</time></trkpt><trkpt lat="40.7065467909" lon="-4.0266883280"><ele>1134.97</ele><time>2026-08-09T08:25:51Z</time></trkpt><trkpt lat="40.7067855075" lon="-4.0259878524"><ele>1136.42</ele><time>2026-08-09T08:26:07Z</time></trkpt><trkpt lat="40.7069805544" lon="-4.0253074933"><ele>1136.42</ele><time>2026-08-09T08:26:22Z</time></trkpt><trkpt lat="40.7072942890" lon="-4.0244015772"><ele>1133.53</ele><time>2026-08-09T08:26:37Z</time></trkpt><trkpt lat="40.7073250506" lon="-4.0243421495"><ele>1133.53</ele><time>2026-08-09T08:26:38Z</time></trkpt><trkpt lat="40.7074623462" lon="-4.0241171792"><ele>1133.53</ele><time>2026-08-09T08:26:42Z</time></trkpt><trkpt lat="40.7078011427" lon="-4.0236815717"><ele>1134.49</ele><time>2026-08-09T08:26:53Z</time></trkpt><trkpt lat="40.7080010511" lon="-4.0233920608"><ele>1137.86</ele><time>2026-08-09T08:27:02Z</time></trkpt><trkpt lat="40.7082063239" lon="-4.0230329800"><ele>1140.74</ele><time>2026-08-09T08:27:12Z</time></trkpt><trkpt lat="40.7082481496" lon="-4.0229401086"><ele>1141.22</ele><time>2026-08-09T08:27:21Z</time></trkpt><trkpt lat="40.7082983572" lon="-4.0226770006"><ele>1141.70</ele><time>2026-08-09T08:27:31Z</time></trkpt><trkpt lat="40.7085208129" lon="-4.0220353659"><ele>1142.66</ele><time>2026-08-09T08:27:45Z</time></trkpt><trkpt lat="40.7087529916" lon="-4.0215988364"><ele>1143.63</ele><time>2026-08-09T08:27:57Z</time></trkpt><trkpt lat="40.7090212125" lon="-4.0214374010"><ele>1145.55</ele><time>2026-08-09T08:28:05Z</time></trkpt><trkpt lat="40.7091084681" lon="-4.0213132650"><ele>1145.55</ele><time>2026-08-09T08:28:08Z</time></trkpt><trkpt lat="40.7091343682" lon="-4.0212700143"><ele>1145.55</ele><time>2026-08-09T08:28:09Z</time></trkpt><trkpt lat="40.7093279064" lon="-4.0210778173"><ele>1145.55</ele><time>2026-08-09T08:28:15Z</time></trkpt><trkpt lat="40.7093716599" lon="-4.0210626461"><ele>1146.03</ele><time>2026-08-09T08:28:16Z</time></trkpt><trkpt lat="40.7094139047" lon="-4.0210538451"><ele>1146.03</ele><time>2026-08-09T08:28:17Z</time></trkpt><trkpt lat="40.7099031564" lon="-4.0209354926"><ele>1148.43</ele><time>2026-08-09T08:28:31Z</time></trkpt><trkpt lat="40.7104147878" lon="-4.0207157191"><ele>1147.95</ele><time>2026-08-09T08:28:45Z</time></trkpt><trkpt lat="40.7107166201" lon="-4.0204729792"><ele>1146.99</ele><time>2026-08-09T08:28:53Z</time></trkpt><trkpt lat="40.7107522432" lon="-4.0204348415"><ele>1146.99</ele><time>2026-08-09T08:28:54Z</time></trkpt><trkpt lat="40.7107897103" lon="-4.0203951113"><ele>1146.99</ele><time>2026-08-09T08:28:55Z</time></trkpt><trkpt lat="40.7112979889" lon="-4.0198903531"><ele>1143.63</ele><time>2026-08-09T08:29:07Z</time></trkpt><trkpt lat="40.7116719056" lon="-4.0195839107"><ele>1140.26</ele><time>2026-08-09T08:29:14Z</time></trkpt><trkpt lat="40.7120287232" lon="-4.0193927195"><ele>1139.30</ele><time>2026-08-09T08:29:22Z</time></trkpt><trkpt lat="40.7120648492" lon="-4.0193640534"><ele>1139.30</ele><time>2026-08-09T08:29:23Z</time></trkpt><trkpt lat="40.7124246843" lon="-4.0188809205"><ele>1138.34</ele><time>2026-08-09T08:29:36Z</time></trkpt><trkpt lat="40.7125141192" lon="-4.0185038187"><ele>1139.78</ele><time>2026-08-09T08:29:44Z</time></trkpt><trkpt lat="40.7127866149" lon="-4.0180076100"><ele>1143.14</ele><time>2026-08-09T08:29:57Z</time></trkpt><trkpt lat="40.7129750401" lon="-4.0178995673"><ele>1144.59</ele><time>2026-08-09T08:30:04Z</time></trkpt><trkpt lat="40.7132420875" lon="-4.0176844876"><ele>1147.95</ele><time>2026-08-09T08:30:14Z</time></trkpt><trkpt lat="40.7137521263" lon="-4.0172591060"><ele>1150.84</ele><time>2026-08-09T08:30:33Z</time></trkpt><trkpt lat="40.7139817905" lon="-4.0170461219"><ele>1153.24</ele><time>2026-08-09T08:30:43Z</time></trkpt><trkpt lat="40.7142147236" lon="-4.0168197267"><ele>1154.20</ele><time>2026-08-09T08:30:52Z</time></trkpt><trkpt lat="40.7142193336" lon="-4.0167851932"><ele>1154.68</ele><time>2026-08-09T08:30:53Z</time></trkpt><trkpt lat="40.7142081857" lon="-4.0167444572"><ele>1155.16</ele><time>2026-08-09T08:30:54Z</time></trkpt><trkpt lat="40.7141961157" lon="-4.0167199820"><ele>1154.68</ele><time>2026-08-09T08:30:55Z</time></trkpt><trkpt lat="40.7141787652" lon="-4.0166831855"><ele>1154.68</ele><time>2026-08-09T08:30:56Z</time></trkpt><trkpt lat="40.7139704749" lon="-4.0162257850"><ele>1155.64</ele><time>2026-08-09T08:31:09Z</time></trkpt><trkpt lat="40.7139774319" lon="-4.0161967836"><ele>1155.64</ele><time>2026-08-09T08:31:10Z</time></trkpt><trkpt lat="40.7139871549" lon="-4.0161731467"><ele>1155.64</ele><time>2026-08-09T08:31:11Z</time></trkpt><trkpt lat="40.7139985543" lon="-4.0161447320"><ele>1155.64</ele><time>2026-08-09T08:31:12Z</time></trkpt><trkpt lat="40.7140087802" lon="-4.0161158144"><ele>1155.64</ele><time>2026-08-09T08:31:13Z</time></trkpt><trkpt lat="40.7140170783" lon="-4.0160851367"><ele>1155.64</ele><time>2026-08-09T08:31:14Z</time></trkpt><trkpt lat="40.7140906714" lon="-4.0158323385"><ele>1154.68</ele><time>2026-08-09T08:31:29Z</time></trkpt><trkpt lat="40.7141014002" lon="-4.0157964639"><ele>1154.68</ele><time>2026-08-09T08:31:47Z</time></trkpt><trkpt lat="40.7141061779" lon="-4.0157310013"><ele>1154.68</ele><time>2026-08-09T08:32:07Z</time></trkpt><trkpt lat="40.7141203433" lon="-4.0156956296"><ele>1154.68</ele><time>2026-08-09T08:32:21Z</time></trkpt><trkpt lat="40.7141607441" lon="-4.0156609286"><ele>1154.68</ele><time>2026-08-09T08:32:33Z</time></trkpt><trkpt lat="40.7141716406" lon="-4.0156535525"><ele>1154.68</ele><time>2026-08-09T08:32:47Z</time></trkpt><trkpt lat="40.7141935173" lon="-4.0156212822"><ele>1154.68</ele><time>2026-08-09T08:32:50Z</time></trkpt><trkpt lat="40.7142034918" lon="-4.0156065300"><ele>1154.68</ele><time>2026-08-09T08:32:51Z</time></trkpt><trkpt lat="40.7142196689" lon="-4.0155920293"><ele>1154.68</ele><time>2026-08-09T08:32:52Z</time></trkpt><trkpt lat="40.7142363489" lon="-4.0155805461"><ele>1154.68</ele><time>2026-08-09T08:32:53Z</time></trkpt><trkpt lat="40.7142529450" lon="-4.0155688114"><ele>1154.68</ele><time>2026-08-09T08:32:54Z</time></trkpt><trkpt lat="40.7142718043" lon="-4.0155551489"><ele>1154.68</ele><time>2026-08-09T08:32:55Z</time></trkpt><trkpt lat="40.7142923400" lon="-4.0155419055"><ele>1154.68</ele><time>2026-08-09T08:32:56Z</time></trkpt><trkpt lat="40.7143854629" lon="-4.0154880099"><ele>1155.16</ele><time>2026-08-09T08:33:04Z</time></trkpt><trkpt lat="40.7143989578" lon="-4.0154935420"><ele>1155.16</ele><time>2026-08-09T08:33:05Z</time></trkpt><trkpt lat="40.7144087646" lon="-4.0155059472"><ele>1155.16</ele><time>2026-08-09T08:33:06Z</time></trkpt><trkpt lat="40.7144155540" lon="-4.0155235492"><ele>1155.16</ele><time>2026-08-09T08:33:07Z</time></trkpt><trkpt lat="40.7144202478" lon="-4.0155373793"><ele>1155.16</ele><time>2026-08-09T08:33:08Z</time></trkpt><trkpt lat="40.7144274563" lon="-4.0155419055"><ele>1155.16</ele><time>2026-08-09T08:33:21Z</time></trkpt><trkpt lat="40.7144122850" lon="-4.0155429952"><ele>1155.16</ele><time>2026-08-09T08:33:51Z</time></trkpt><trkpt lat="40.7144307252" lon="-4.0155173466"><ele>1155.16</ele><time>2026-08-09T08:34:22Z</time></trkpt><trkpt lat="40.7144218404" lon="-4.0155250579"><ele>1155.16</ele><time>2026-08-09T08:34:46Z</time></trkpt><trkpt lat="40.7144664321" lon="-4.0156039316"><ele>1155.64</ele><time>2026-08-09T08:35:08Z</time></trkpt><trkpt lat="40.7146461401" lon="-4.0157421492"><ele>1157.56</ele><time>2026-08-09T08:35:17Z</time></trkpt><trkpt lat="40.7151421811" lon="-4.0159495175"><ele>1159.97</ele><time>2026-08-09T08:35:37Z</time></trkpt><trkpt lat="40.7155450154" lon="-4.0162816085"><ele>1161.41</ele><time>2026-08-09T08:35:54Z</time></trkpt><trkpt lat="40.7159081195" lon="-4.0167021286"><ele>1162.85</ele><time>2026-08-09T08:36:09Z</time></trkpt><trkpt lat="40.7159778569" lon="-4.0171046276"><ele>1161.89</ele><time>2026-08-09T08:36:21Z</time></trkpt><trkpt lat="40.7159936987" lon="-4.0171715152"><ele>1161.89</ele><time>2026-08-09T08:36:23Z</time></trkpt><trkpt lat="40.7160162460" lon="-4.0171932243"><ele>1161.89</ele><time>2026-08-09T08:36:24Z</time></trkpt><trkpt lat="40.7160404697" lon="-4.0172041208"><ele>1161.89</ele><time>2026-08-09T08:36:25Z</time></trkpt><trkpt lat="40.7161156554" lon="-4.0172208846"><ele>1162.85</ele><time>2026-08-09T08:36:28Z</time></trkpt><trkpt lat="40.7163890731" lon="-4.0175869223"><ele>1166.22</ele><time>2026-08-09T08:36:43Z</time></trkpt><trkpt lat="40.7165983692" lon="-4.0180235356"><ele>1169.58</ele><time>2026-08-09T08:36:58Z</time></trkpt><trkpt lat="40.7167629059" lon="-4.0185551997"><ele>1171.98</ele><time>2026-08-09T08:37:14Z</time></trkpt><trkpt lat="40.7169046439" lon="-4.0189079940"><ele>1175.35</ele><time>2026-08-09T08:37:25Z</time></trkpt><trkpt lat="40.7170089148" lon="-4.0192359779"><ele>1178.71</ele><time>2026-08-09T08:37:36Z</time></trkpt><trkpt lat="40.7171831746" lon="-4.0194618702"><ele>1182.08</ele><time>2026-08-09T08:37:46Z</time></trkpt><trkpt lat="40.7173481304" lon="-4.0197016764"><ele>1185.44</ele><time>2026-08-09T08:37:57Z</time></trkpt><trkpt lat="40.7173696719" lon="-4.0201346856"><ele>1188.81</ele><time>2026-08-09T08:38:10Z</time></trkpt><trkpt lat="40.7174486294" lon="-4.0204251185"><ele>1191.69</ele><time>2026-08-09T08:38:19Z</time></trkpt><trkpt lat="40.7175708376" lon="-4.0207703691"><ele>1195.54</ele><time>2026-08-09T08:38:30Z</time></trkpt><trkpt lat="40.7175990008" lon="-4.0213475469"><ele>1197.94</ele><time>2026-08-09T08:38:45Z</time></trkpt><trkpt lat="40.7176324446" lon="-4.0218444262"><ele>1200.82</ele><time>2026-08-09T08:38:58Z</time></trkpt><trkpt lat="40.7178032678" lon="-4.0222939476"><ele>1203.71</ele><time>2026-08-09T08:39:12Z</time></trkpt><trkpt lat="40.7181423996" lon="-4.0226082690"><ele>1206.11</ele><time>2026-08-09T08:39:26Z</time></trkpt><trkpt lat="40.7184642646" lon="-4.0228686109"><ele>1207.07</ele><time>2026-08-09T08:39:38Z</time></trkpt><trkpt lat="40.7188391034" lon="-4.0233986825"><ele>1207.55</ele><time>2026-08-09T08:39:53Z</time></trkpt><trkpt lat="40.7192114275" lon="-4.0238467790"><ele>1210.44</ele><time>2026-08-09T08:40:09Z</time></trkpt><trkpt lat="40.7195901219" lon="-4.0239177737"><ele>1210.92</ele><time>2026-08-09T08:40:22Z</time></trkpt><trkpt lat="40.7196051255" lon="-4.0239269938"><ele>1210.92</ele><time>2026-08-09T08:40:23Z</time></trkpt><trkpt lat="40.7196154352" lon="-4.0239430033"><ele>1210.92</ele><time>2026-08-09T08:40:24Z</time></trkpt><trkpt lat="40.7196215540" lon="-4.0239623655"><ele>1210.92</ele><time>2026-08-09T08:40:25Z</time></trkpt><trkpt lat="40.7196190394" lon="-4.0239830688"><ele>1210.92</ele><time>2026-08-09T08:40:26Z</time></trkpt><trkpt lat="40.7196062990" lon="-4.0240051132"><ele>1210.92</ele><time>2026-08-09T08:40:27Z</time></trkpt><trkpt lat="40.7195972465" lon="-4.0240207035"><ele>1210.92</ele><time>2026-08-09T08:40:28Z</time></trkpt><trkpt lat="40.7195861824" lon="-4.0240438376"><ele>1210.92</ele><time>2026-08-09T08:40:29Z</time></trkpt><trkpt lat="40.7193747908" lon="-4.0245210193"><ele>1212.84</ele><time>2026-08-09T08:40:47Z</time></trkpt><trkpt lat="40.7192173786" lon="-4.0249883942"><ele>1215.72</ele><time>2026-08-09T08:41:05Z</time></trkpt><trkpt lat="40.7191703562" lon="-4.0253188089"><ele>1219.09</ele><time>2026-08-09T08:41:15Z</time></trkpt><trkpt lat="40.7192542590" lon="-4.0257021133"><ele>1222.45</ele><time>2026-08-09T08:41:27Z</time></trkpt><trkpt lat="40.7193409279" lon="-4.0259742737"><ele>1225.34</ele><time>2026-08-09T08:41:36Z</time></trkpt><trkpt lat="40.7194216456" lon="-4.0263625234"><ele>1228.70</ele><time>2026-08-09T08:41:49Z</time></trkpt><trkpt lat="40.7194758765" lon="-4.0268614981"><ele>1232.07</ele><time>2026-08-09T08:42:04Z</time></trkpt><trkpt lat="40.7195150200" lon="-4.0272062458"><ele>1235.43</ele><time>2026-08-09T08:42:15Z</time></trkpt><trkpt lat="40.7194838393" lon="-4.0274696890"><ele>1238.32</ele><time>2026-08-09T08:42:23Z</time></trkpt><trkpt lat="40.7193827536" lon="-4.0279196296"><ele>1241.68</ele><time>2026-08-09T08:42:36Z</time></trkpt><trkpt lat="40.7193605416" lon="-4.0283749346"><ele>1244.56</ele><time>2026-08-09T08:42:49Z</time></trkpt><trkpt lat="40.7193203084" lon="-4.0288124699"><ele>1247.93</ele><time>2026-08-09T08:43:01Z</time></trkpt><trkpt lat="40.7192463800" lon="-4.0291862190"><ele>1251.29</ele><time>2026-08-09T08:43:12Z</time></trkpt><trkpt lat="40.7191005349" lon="-4.0297011193"><ele>1253.22</ele><time>2026-08-09T08:43:28Z</time></trkpt><trkpt lat="40.7188923284" lon="-4.0302031953"><ele>1252.74</ele><time>2026-08-09T08:43:39Z</time></trkpt><trkpt lat="40.7186882291" lon="-4.0306916088"><ele>1248.89</ele><time>2026-08-09T08:43:47Z</time></trkpt><trkpt lat="40.7186612394" lon="-4.0307578258"><ele>1248.89</ele><time>2026-08-09T08:43:48Z</time></trkpt><trkpt lat="40.7184289768" lon="-4.0313371830"><ele>1246.97</ele><time>2026-08-09T08:43:57Z</time></trkpt><trkpt lat="40.7183950301" lon="-4.0319545940"><ele>1246.97</ele><time>2026-08-09T08:44:08Z</time></trkpt><trkpt lat="40.7184376102" lon="-4.0324808937"><ele>1246.49</ele><time>2026-08-09T08:44:17Z</time></trkpt><trkpt lat="40.7184563857" lon="-4.0325295087"><ele>1246.49</ele><time>2026-08-09T08:44:18Z</time></trkpt><trkpt lat="40.7184793521" lon="-4.0325752739"><ele>1246.49</ele><time>2026-08-09T08:44:19Z</time></trkpt><trkpt lat="40.7185078505" lon="-4.0326221287"><ele>1246.49</ele><time>2026-08-09T08:44:20Z</time></trkpt><trkpt lat="40.7185361814" lon="-4.0326606855"><ele>1246.49</ele><time>2026-08-09T08:44:21Z</time></trkpt><trkpt lat="40.7185679488" lon="-4.0326994937"><ele>1246.49</ele><time>2026-08-09T08:44:22Z</time></trkpt><trkpt lat="40.7189380936" lon="-4.0332403779"><ele>1247.93</ele><time>2026-08-09T08:44:37Z</time></trkpt><trkpt lat="40.7189167198" lon="-4.0338282008"><ele>1250.33</ele><time>2026-08-09T08:44:50Z</time></trkpt><trkpt lat="40.7188209146" lon="-4.0344306920"><ele>1253.70</ele><time>2026-08-09T08:45:05Z</time></trkpt><trkpt lat="40.7188494131" lon="-4.0350023378"><ele>1256.58</ele><time>2026-08-09T08:45:20Z</time></trkpt><trkpt lat="40.7189222518" lon="-4.0350667946"><ele>1257.06</ele><time>2026-08-09T08:45:30Z</time></trkpt><trkpt lat="40.7189328969" lon="-4.0350614302"><ele>1257.06</ele><time>2026-08-09T08:45:41Z</time></trkpt><trkpt lat="40.7191872038" lon="-4.0350418165"><ele>1259.94</ele><time>2026-08-09T08:45:53Z</time></trkpt><trkpt lat="40.7194487192" lon="-4.0351278987"><ele>1262.83</ele><time>2026-08-09T08:46:06Z</time></trkpt><trkpt lat="40.7197373081" lon="-4.0352929384"><ele>1266.19</ele><time>2026-08-09T08:46:20Z</time></trkpt><trkpt lat="40.7200844865" lon="-4.0354130510"><ele>1269.56</ele><time>2026-08-09T08:46:35Z</time></trkpt><trkpt lat="40.7203466725" lon="-4.0355200879"><ele>1272.44</ele><time>2026-08-09T08:46:46Z</time></trkpt><trkpt lat="40.7206224371" lon="-4.0356659330"><ele>1275.33</ele><time>2026-08-09T08:46:59Z</time></trkpt><trkpt lat="40.7207575534" lon="-4.0360035561"><ele>1278.69</ele><time>2026-08-09T08:47:11Z</time></trkpt><trkpt lat="40.7209276222" lon="-4.0363425203"><ele>1282.06</ele><time>2026-08-09T08:47:24Z</time></trkpt><trkpt lat="40.7211193163" lon="-4.0363183804"><ele>1285.42</ele><time>2026-08-09T08:47:33Z</time></trkpt><trkpt lat="40.7213887945" lon="-4.0360057354"><ele>1287.82</ele><time>2026-08-09T08:47:47Z</time></trkpt><trkpt lat="40.7217496354" lon="-4.0357148834"><ele>1290.71</ele><time>2026-08-09T08:48:03Z</time></trkpt><trkpt lat="40.7222524658" lon="-4.0353090316"><ele>1293.11</ele><time>2026-08-09T08:48:23Z</time></trkpt><trkpt lat="40.7227158174" lon="-4.0352922678"><ele>1295.99</ele><time>2026-08-09T08:48:39Z</time></trkpt><trkpt lat="40.7230482437" lon="-4.0352980513"><ele>1299.36</ele><time>2026-08-09T08:48:51Z</time></trkpt><trkpt lat="40.7233877108" lon="-4.0351506975"><ele>1303.20</ele><time>2026-08-09T08:49:04Z</time></trkpt><trkpt lat="40.7237982564" lon="-4.0349041019"><ele>1305.13</ele><time>2026-08-09T08:49:20Z</time></trkpt><trkpt lat="40.7240373082" lon="-4.0346486215"><ele>1303.69</ele><time>2026-08-09T08:49:27Z</time></trkpt><trkpt lat="40.7241471950" lon="-4.0345059615"><ele>1302.24</ele><time>2026-08-09T08:49:30Z</time></trkpt><trkpt lat="40.7241700776" lon="-4.0344431810"><ele>1302.24</ele><time>2026-08-09T08:49:31Z</time></trkpt><trkpt lat="40.7241829857" lon="-4.0343688335"><ele>1302.24</ele><time>2026-08-09T08:49:32Z</time></trkpt><trkpt lat="40.7241844106" lon="-4.0342884511"><ele>1302.24</ele><time>2026-08-09T08:49:33Z</time></trkpt><trkpt lat="40.7241757773" lon="-4.0342109185"><ele>1302.24</ele><time>2026-08-09T08:49:34Z</time></trkpt><trkpt lat="40.7241587620" lon="-4.0341289435"><ele>1301.28</ele><time>2026-08-09T08:49:35Z</time></trkpt><trkpt lat="40.7241286710" lon="-4.0339649096"><ele>1300.80</ele><time>2026-08-09T08:49:37Z</time></trkpt><trkpt lat="40.7241253182" lon="-4.0338847786"><ele>1300.32</ele><time>2026-08-09T08:49:38Z</time></trkpt><trkpt lat="40.7241357956" lon="-4.0338013787"><ele>1300.32</ele><time>2026-08-09T08:49:39Z</time></trkpt><trkpt lat="40.7241603546" lon="-4.0337274503"><ele>1298.88</ele><time>2026-08-09T08:49:40Z</time></trkpt><trkpt lat="40.7242008392" lon="-4.0336598083"><ele>1298.40</ele><time>2026-08-09T08:49:41Z</time></trkpt><trkpt lat="40.7242479455" lon="-4.0336076729"><ele>1298.40</ele><time>2026-08-09T08:49:42Z</time></trkpt><trkpt lat="40.7242939621" lon="-4.0335609857"><ele>1298.40</ele><time>2026-08-09T08:49:43Z</time></trkpt><trkpt lat="40.7246408053" lon="-4.0331450757"><ele>1295.99</ele><time>2026-08-09T08:49:51Z</time></trkpt><trkpt lat="40.7247040048" lon="-4.0330981370"><ele>1295.03</ele><time>2026-08-09T08:49:52Z</time></trkpt><trkpt lat="40.7247579843" lon="-4.0330708120"><ele>1294.55</ele><time>2026-08-09T08:49:53Z</time></trkpt><trkpt lat="40.7248169929" lon="-4.0330532100"><ele>1294.55</ele><time>2026-08-09T08:49:54Z</time></trkpt><trkpt lat="40.7248801086" lon="-4.0330452472"><ele>1293.59</ele><time>2026-08-09T08:49:55Z</time></trkpt><trkpt lat="40.7249377761" lon="-4.0330419783"><ele>1293.11</ele><time>2026-08-09T08:49:56Z</time></trkpt><trkpt lat="40.7250015624" lon="-4.0330383740"><ele>1293.11</ele><time>2026-08-09T08:49:57Z</time></trkpt><trkpt lat="40.7251309790" lon="-4.0330107976"><ele>1291.19</ele><time>2026-08-09T08:49:59Z</time></trkpt><trkpt lat="40.7251923345" lon="-4.0329798684"><ele>1290.71</ele><time>2026-08-09T08:50:00Z</time></trkpt><trkpt lat="40.7252546120" lon="-4.0329363663"><ele>1289.75</ele><time>2026-08-09T08:50:01Z</time></trkpt><trkpt lat="40.7253075857" lon="-4.0328880865"><ele>1289.75</ele><time>2026-08-09T08:50:02Z</time></trkpt><trkpt lat="40.7253624871" lon="-4.0328319278"><ele>1288.30</ele><time>2026-08-09T08:50:03Z</time></trkpt><trkpt lat="40.7254719548" lon="-4.0327243879"><ele>1287.34</ele><time>2026-08-09T08:50:05Z</time></trkpt><trkpt lat="40.7255850267" lon="-4.0326298401"><ele>1286.38</ele><time>2026-08-09T08:50:07Z</time></trkpt><trkpt lat="40.7256474718" lon="-4.0325937979"><ele>1285.90</ele><time>2026-08-09T08:50:08Z</time></trkpt><trkpt lat="40.7257157844" lon="-4.0325609408"><ele>1285.90</ele><time>2026-08-09T08:50:09Z</time></trkpt><trkpt lat="40.7260429300" lon="-4.0324368887"><ele>1282.06</ele><time>2026-08-09T08:50:14Z</time></trkpt><trkpt lat="40.7261751965" lon="-4.0323991701"><ele>1281.09</ele><time>2026-08-09T08:50:16Z</time></trkpt><trkpt lat="40.7264045253" lon="-4.0323610324"><ele>1280.13</ele><time>2026-08-09T08:50:19Z</time></trkpt><trkpt lat="40.7264739275" lon="-4.0323637985"><ele>1279.17</ele><time>2026-08-09T08:50:20Z</time></trkpt><trkpt lat="40.7265535556" lon="-4.0323668160"><ele>1278.69</ele><time>2026-08-09T08:50:21Z</time></trkpt><trkpt lat="40.7266906835" lon="-4.0323566739"><ele>1277.73</ele><time>2026-08-09T08:50:23Z</time></trkpt><trkpt lat="40.7269651908" lon="-4.0323213022"><ele>1274.85</ele><time>2026-08-09T08:50:27Z</time></trkpt><trkpt lat="40.7271215972" lon="-4.0322883613"><ele>1273.88</ele><time>2026-08-09T08:50:29Z</time></trkpt><trkpt lat="40.7276410237" lon="-4.0321409237"><ele>1271.48</ele><time>2026-08-09T08:50:35Z</time></trkpt><trkpt lat="40.7277184725" lon="-4.0321445279"><ele>1271.00</ele><time>2026-08-09T08:50:36Z</time></trkpt><trkpt lat="40.7278030459" lon="-4.0321665723"><ele>1271.00</ele><time>2026-08-09T08:50:37Z</time></trkpt><trkpt lat="40.7278713584" lon="-4.0321969986"><ele>1271.00</ele><time>2026-08-09T08:50:38Z</time></trkpt><trkpt lat="40.7279477175" lon="-4.0322390758"><ele>1271.00</ele><time>2026-08-09T08:50:39Z</time></trkpt><trkpt lat="40.7280125935" lon="-4.0322695021"><ele>1270.04</ele><time>2026-08-09T08:50:40Z</time></trkpt><trkpt lat="40.7280880306" lon="-4.0322890319"><ele>1270.04</ele><time>2026-08-09T08:50:41Z</time></trkpt><trkpt lat="40.7281494699" lon="-4.0322934743"><ele>1270.04</ele><time>2026-08-09T08:50:42Z</time></trkpt><trkpt lat="40.7282163575" lon="-4.0322875232"><ele>1270.04</ele><time>2026-08-09T08:50:43Z</time></trkpt><trkpt lat="40.7282720972" lon="-4.0322778840"><ele>1270.52</ele><time>2026-08-09T08:50:44Z</time></trkpt><trkpt lat="40.7285030186" lon="-4.0322331246"><ele>1269.56</ele><time>2026-08-09T08:50:49Z</time></trkpt><trkpt lat="40.7285417430" lon="-4.0322363935"><ele>1269.08</ele><time>2026-08-09T08:50:50Z</time></trkpt><trkpt lat="40.7285872567" lon="-4.0322491340"><ele>1269.08</ele><time>2026-08-09T08:50:51Z</time></trkpt><trkpt lat="40.7288712356" lon="-4.0323614515"><ele>1264.75</ele><time>2026-08-09T08:50:57Z</time></trkpt><trkpt lat="40.7290288154" lon="-4.0324386489"><ele>1261.87</ele><time>2026-08-09T08:51:00Z</time></trkpt><trkpt lat="40.7290722337" lon="-4.0324739367"><ele>1260.91</ele><time>2026-08-09T08:51:01Z</time></trkpt><trkpt lat="40.7291170768" lon="-4.0325237252"><ele>1259.94</ele><time>2026-08-09T08:51:02Z</time></trkpt><trkpt lat="40.7292388659" lon="-4.0326728392"><ele>1257.54</ele><time>2026-08-09T08:51:05Z</time></trkpt><trkpt lat="40.7292903308" lon="-4.0327114798"><ele>1256.10</ele><time>2026-08-09T08:51:06Z</time></trkpt><trkpt lat="40.7293227687" lon="-4.0327305067"><ele>1255.62</ele><time>2026-08-09T08:51:07Z</time></trkpt><trkpt lat="40.7293579727" lon="-4.0327377990"><ele>1254.66</ele><time>2026-08-09T08:51:08Z</time></trkpt><trkpt lat="40.7293854654" lon="-4.0327254776"><ele>1254.66</ele><time>2026-08-09T08:51:09Z</time></trkpt><trkpt lat="40.7294188254" lon="-4.0327013377"><ele>1254.66</ele><time>2026-08-09T08:51:10Z</time></trkpt><trkpt lat="40.7296179794" lon="-4.0325752739"><ele>1256.58</ele><time>2026-08-09T08:51:19Z</time></trkpt><trkpt lat="40.7296317257" lon="-4.0325532295"><ele>1256.58</ele><time>2026-08-09T08:51:20Z</time></trkpt><trkpt lat="40.7297015470" lon="-4.0324927960"><ele>1257.54</ele><time>2026-08-09T08:51:29Z</time></trkpt><trkpt lat="40.7297801692" lon="-4.0323973261"><ele>1258.02</ele><time>2026-08-09T08:51:33Z</time></trkpt><trkpt lat="40.7297924906" lon="-4.0323672350"><ele>1258.02</ele><time>2026-08-09T08:51:34Z</time></trkpt><trkpt lat="40.7298083324" lon="-4.0323375631"><ele>1258.02</ele><time>2026-08-09T08:51:35Z</time></trkpt><trkpt lat="40.7298214920" lon="-4.0323074721"><ele>1258.02</ele><time>2026-08-09T08:51:36Z</time></trkpt><trkpt lat="40.7298331428" lon="-4.0322795603"><ele>1258.02</ele><time>2026-08-09T08:51:37Z</time></trkpt><trkpt lat="40.7298499066" lon="-4.0322570130"><ele>1258.02</ele><time>2026-08-09T08:51:38Z</time></trkpt><trkpt lat="40.7298717834" lon="-4.0322316997"><ele>1258.02</ele><time>2026-08-09T08:51:39Z</time></trkpt><trkpt lat="40.7299469691" lon="-4.0320435259"><ele>1258.98</ele><time>2026-08-09T08:51:45Z</time></trkpt><trkpt lat="40.7299514953" lon="-4.0320071485"><ele>1259.46</ele><time>2026-08-09T08:51:46Z</time></trkpt><trkpt lat="40.7299567759" lon="-4.0319781471"><ele>1259.46</ele><time>2026-08-09T08:51:47Z</time></trkpt><trkpt lat="40.7299653254" lon="-4.0319479723"><ele>1259.94</ele><time>2026-08-09T08:51:48Z</time></trkpt><trkpt lat="40.7299792394" lon="-4.0319139417"><ele>1259.94</ele><time>2026-08-09T08:51:49Z</time></trkpt><trkpt lat="40.7299960870" lon="-4.0318804979"><ele>1259.94</ele><time>2026-08-09T08:51:50Z</time></trkpt><trkpt lat="40.7300561853" lon="-4.0314316470"><ele>1262.35</ele><time>2026-08-09T08:52:02Z</time></trkpt><trkpt lat="40.7301622164" lon="-4.0310975444"><ele>1264.27</ele><time>2026-08-09T08:52:13Z</time></trkpt><trkpt lat="40.7302771322" lon="-4.0307424031"><ele>1267.16</ele><time>2026-08-09T08:52:24Z</time></trkpt><trkpt lat="40.7303804811" lon="-4.0305227973"><ele>1268.12</ele><time>2026-08-09T08:52:31Z</time></trkpt><trkpt lat="40.7303923834" lon="-4.0304896049"><ele>1268.12</ele><time>2026-08-09T08:52:32Z</time></trkpt><trkpt lat="40.7304217201" lon="-4.0304295067"><ele>1268.12</ele><time>2026-08-09T08:52:34Z</time></trkpt><trkpt lat="40.7304426748" lon="-4.0304023493"><ele>1268.12</ele><time>2026-08-09T08:52:35Z</time></trkpt><trkpt lat="40.7305066288" lon="-4.0302744415"><ele>1268.12</ele><time>2026-08-09T08:52:39Z</time></trkpt><trkpt lat="40.7305094786" lon="-4.0302430093"><ele>1268.60</ele><time>2026-08-09T08:52:40Z</time></trkpt><trkpt lat="40.7305127475" lon="-4.0302140918"><ele>1268.60</ele><time>2026-08-09T08:52:41Z</time></trkpt><trkpt lat="40.7305194531" lon="-4.0301850904"><ele>1268.60</ele><time>2026-08-09T08:52:42Z</time></trkpt><trkpt lat="40.7305273321" lon="-4.0301536582"><ele>1269.08</ele><time>2026-08-09T08:52:43Z</time></trkpt><trkpt lat="40.7305355463" lon="-4.0301184542"><ele>1269.08</ele><time>2026-08-09T08:52:44Z</time></trkpt><trkpt lat="40.7305570878" lon="-4.0300504770"><ele>1269.56</ele><time>2026-08-09T08:52:46Z</time></trkpt><trkpt lat="40.7305634581" lon="-4.0300165303"><ele>1269.56</ele><time>2026-08-09T08:52:47Z</time></trkpt><trkpt lat="40.7305742707" lon="-4.0299801528"><ele>1270.04</ele><time>2026-08-09T08:52:48Z</time></trkpt><trkpt lat="40.7306849118" lon="-4.0295259375"><ele>1272.44</ele><time>2026-08-09T08:53:01Z</time></trkpt><trkpt lat="40.7308325171" lon="-4.0291904937"><ele>1273.88</ele><time>2026-08-09T08:53:12Z</time></trkpt><trkpt lat="40.7308486942" lon="-4.0291694552"><ele>1273.88</ele><time>2026-08-09T08:53:13Z</time></trkpt><trkpt lat="40.7308637816" lon="-4.0291432198"><ele>1273.88</ele><time>2026-08-09T08:53:14Z</time></trkpt><trkpt lat="40.7308775280" lon="-4.0291148890"><ele>1273.88</ele><time>2026-08-09T08:53:15Z</time></trkpt><trkpt lat="40.7308939565" lon="-4.0290832892"><ele>1273.88</ele><time>2026-08-09T08:53:16Z</time></trkpt><trkpt lat="40.7309074514" lon="-4.0290521085"><ele>1273.88</ele><time>2026-08-09T08:53:17Z</time></trkpt><trkpt lat="40.7309185993" lon="-4.0290156472"><ele>1274.36</ele><time>2026-08-09T08:53:18Z</time></trkpt><trkpt lat="40.7309317589" lon="-4.0289876517"><ele>1274.36</ele><time>2026-08-09T08:53:19Z</time></trkpt><trkpt lat="40.7309501991" lon="-4.0289651044"><ele>1274.85</ele><time>2026-08-09T08:53:20Z</time></trkpt><trkpt lat="40.7309665438" lon="-4.0289425571"><ele>1274.85</ele><time>2026-08-09T08:53:21Z</time></trkpt><trkpt lat="40.7309814636" lon="-4.0289169922"><ele>1274.85</ele><time>2026-08-09T08:53:22Z</time></trkpt><trkpt lat="40.7309977245" lon="-4.0288920980"><ele>1274.85</ele><time>2026-08-09T08:53:23Z</time></trkpt><trkpt lat="40.7310083695" lon="-4.0288627613"><ele>1274.85</ele><time>2026-08-09T08:53:24Z</time></trkpt><trkpt lat="40.7310176734" lon="-4.0288349334"><ele>1275.81</ele><time>2026-08-09T08:53:25Z</time></trkpt><trkpt lat="40.7310340181" lon="-4.0288058482"><ele>1275.81</ele><time>2026-08-09T08:53:26Z</time></trkpt><trkpt lat="40.7310460042" lon="-4.0287772659"><ele>1275.81</ele><time>2026-08-09T08:53:27Z</time></trkpt><trkpt lat="40.7310577389" lon="-4.0287456661"><ele>1275.81</ele><time>2026-08-09T08:53:28Z</time></trkpt><trkpt lat="40.7311214413" lon="-4.0285134036"><ele>1277.25</ele><time>2026-08-09T08:53:35Z</time></trkpt><trkpt lat="40.7311320864" lon="-4.0284885094"><ele>1277.25</ele><time>2026-08-09T08:53:36Z</time></trkpt><trkpt lat="40.7311397977" lon="-4.0284587536"><ele>1277.25</ele><time>2026-08-09T08:53:37Z</time></trkpt><trkpt lat="40.7312433142" lon="-4.0281040315"><ele>1279.65</ele><time>2026-08-09T08:53:48Z</time></trkpt><trkpt lat="40.7314170711" lon="-4.0278053842"><ele>1279.65</ele><time>2026-08-09T08:53:59Z</time></trkpt><trkpt lat="40.7314666081" lon="-4.0276265983"><ele>1279.65</ele><time>2026-08-09T08:54:04Z</time></trkpt><trkpt lat="40.7314706314" lon="-4.0275935736"><ele>1279.65</ele><time>2026-08-09T08:54:05Z</time></trkpt><trkpt lat="40.7314801030" lon="-4.0275624767"><ele>1279.65</ele><time>2026-08-09T08:54:06Z</time></trkpt><trkpt lat="40.7314887363" lon="-4.0275262669"><ele>1279.65</ele><time>2026-08-09T08:54:07Z</time></trkpt><trkpt lat="40.7314933464" lon="-4.0274825972"><ele>1279.65</ele><time>2026-08-09T08:54:08Z</time></trkpt><trkpt lat="40.7315684482" lon="-4.0271028131"><ele>1280.13</ele><time>2026-08-09T08:54:18Z</time></trkpt><trkpt lat="40.7316216733" lon="-4.0267511085"><ele>1280.13</ele><time>2026-08-09T08:54:29Z</time></trkpt><trkpt lat="40.7316199970" lon="-4.0267270524"><ele>1280.13</ele><time>2026-08-09T08:54:30Z</time></trkpt><trkpt lat="40.7316227630" lon="-4.0266987216"><ele>1280.61</ele><time>2026-08-09T08:54:31Z</time></trkpt><trkpt lat="40.7316314802" lon="-4.0266653616"><ele>1280.61</ele><time>2026-08-09T08:54:32Z</time></trkpt><trkpt lat="40.7316394430" lon="-4.0266321693"><ele>1281.09</ele><time>2026-08-09T08:54:33Z</time></trkpt><trkpt lat="40.7316491660" lon="-4.0265982226"><ele>1281.09</ele><time>2026-08-09T08:54:34Z</time></trkpt><trkpt lat="40.7316643372" lon="-4.0265671257"><ele>1281.09</ele><time>2026-08-09T08:54:35Z</time></trkpt><trkpt lat="40.7316796761" lon="-4.0265353583"><ele>1281.09</ele><time>2026-08-09T08:54:36Z</time></trkpt><trkpt lat="40.7316919975" lon="-4.0265027527"><ele>1281.09</ele><time>2026-08-09T08:54:37Z</time></trkpt><trkpt lat="40.7317024749" lon="-4.0264720749"><ele>1281.09</ele><time>2026-08-09T08:54:38Z</time></trkpt><trkpt lat="40.7317129523" lon="-4.0264357813"><ele>1281.09</ele><time>2026-08-09T08:54:39Z</time></trkpt><trkpt lat="40.7317397743" lon="-4.0260629542"><ele>1283.02</ele><time>2026-08-09T08:54:49Z</time></trkpt><trkpt lat="40.7317358349" lon="-4.0260388143"><ele>1283.02</ele><time>2026-08-09T08:54:50Z</time></trkpt><trkpt lat="40.7317347452" lon="-4.0260071307"><ele>1283.02</ele><time>2026-08-09T08:54:51Z</time></trkpt><trkpt lat="40.7317370921" lon="-4.0259352140"><ele>1283.50</ele><time>2026-08-09T08:54:53Z</time></trkpt><trkpt lat="40.7317465637" lon="-4.0258998424"><ele>1283.98</ele><time>2026-08-09T08:54:54Z</time></trkpt><trkpt lat="40.7317563705" lon="-4.0258584358"><ele>1283.98</ele><time>2026-08-09T08:54:55Z</time></trkpt><trkpt lat="40.7317617349" lon="-4.0258193761"><ele>1283.98</ele><time>2026-08-09T08:54:56Z</time></trkpt><trkpt lat="40.7317670994" lon="-4.0257845912"><ele>1283.98</ele><time>2026-08-09T08:54:57Z</time></trkpt><trkpt lat="40.7317726314" lon="-4.0257529914"><ele>1283.98</ele><time>2026-08-09T08:54:58Z</time></trkpt><trkpt lat="40.7317754813" lon="-4.0257201344"><ele>1283.98</ele><time>2026-08-09T08:54:59Z</time></trkpt><trkpt lat="40.7317771576" lon="-4.0256852657"><ele>1283.98</ele><time>2026-08-09T08:55:00Z</time></trkpt><trkpt lat="40.7317823544" lon="-4.0256465413"><ele>1283.98</ele><time>2026-08-09T08:55:01Z</time></trkpt><trkpt lat="40.7317864615" lon="-4.0256088227"><ele>1283.98</ele><time>2026-08-09T08:55:02Z</time></trkpt><trkpt lat="40.7317861263" lon="-4.0255735349"><ele>1283.98</ele><time>2026-08-09T08:55:03Z</time></trkpt><trkpt lat="40.7317883056" lon="-4.0255441144"><ele>1283.98</ele><time>2026-08-09T08:55:04Z</time></trkpt><trkpt lat="40.7317959331" lon="-4.0255107544"><ele>1283.98</ele><time>2026-08-09T08:55:05Z</time></trkpt><trkpt lat="40.7317993697" lon="-4.0254763886"><ele>1283.98</ele><time>2026-08-09T08:55:06Z</time></trkpt><trkpt lat="40.7317935023" lon="-4.0254429448"><ele>1283.98</ele><time>2026-08-09T08:55:07Z</time></trkpt><trkpt lat="40.7317871321" lon="-4.0254136082"><ele>1283.98</ele><time>2026-08-09T08:55:08Z</time></trkpt><trkpt lat="40.7317850366" lon="-4.0253808349"><ele>1283.98</ele><time>2026-08-09T08:55:09Z</time></trkpt><trkpt lat="40.7317859586" lon="-4.0253434516"><ele>1283.98</ele><time>2026-08-09T08:55:10Z</time></trkpt><trkpt lat="40.7317892276" lon="-4.0253043082"><ele>1283.98</ele><time>2026-08-09T08:55:11Z</time></trkpt><trkpt lat="40.7318203244" lon="-4.0248931758"><ele>1285.42</ele><time>2026-08-09T08:55:22Z</time></trkpt><trkpt lat="40.7318428718" lon="-4.0243964642"><ele>1286.38</ele><time>2026-08-09T08:55:35Z</time></trkpt><trkpt lat="40.7318714540" lon="-4.0239764471"><ele>1286.38</ele><time>2026-08-09T08:55:46Z</time></trkpt><trkpt lat="40.7319028862" lon="-4.0237810649"><ele>1285.42</ele><time>2026-08-09T08:55:50Z</time></trkpt><trkpt lat="40.7319251820" lon="-4.0237357188"><ele>1285.42</ele><time>2026-08-09T08:55:51Z</time></trkpt><trkpt lat="40.7319563627" lon="-4.0236902051"><ele>1285.42</ele><time>2026-08-09T08:55:52Z</time></trkpt><trkpt lat="40.7319891360" lon="-4.0236533247"><ele>1285.42</ele><time>2026-08-09T08:55:53Z</time></trkpt><trkpt lat="40.7320289500" lon="-4.0236192942"><ele>1285.42</ele><time>2026-08-09T08:55:54Z</time></trkpt><trkpt lat="40.7320728712" lon="-4.0235966630"><ele>1285.42</ele><time>2026-08-09T08:55:55Z</time></trkpt><trkpt lat="40.7321191393" lon="-4.0235788934"><ele>1285.42</ele><time>2026-08-09T08:55:56Z</time></trkpt><trkpt lat="40.7321598753" lon="-4.0235594474"><ele>1285.42</ele><time>2026-08-09T08:55:57Z</time></trkpt><trkpt lat="40.7321991865" lon="-4.0235320386"><ele>1286.86</ele><time>2026-08-09T08:55:58Z</time></trkpt><trkpt lat="40.7322356477" lon="-4.0235024504"><ele>1286.86</ele><time>2026-08-09T08:55:59Z</time></trkpt><trkpt lat="40.7325016893" lon="-4.0232044738"><ele>1289.27</ele><time>2026-08-09T08:56:09Z</time></trkpt><trkpt lat="40.7326839957" lon="-4.0229808446"><ele>1289.75</ele><time>2026-08-09T08:56:16Z</time></trkpt><trkpt lat="40.7326867618" lon="-4.0229352470"><ele>1289.75</ele><time>2026-08-09T08:56:17Z</time></trkpt><trkpt lat="40.7326814812" lon="-4.0228947625"><ele>1290.23</ele><time>2026-08-09T08:56:18Z</time></trkpt><trkpt lat="40.7326765358" lon="-4.0228535235"><ele>1290.23</ele><time>2026-08-09T08:56:19Z</time></trkpt><trkpt lat="40.7326762844" lon="-4.0228092670"><ele>1290.23</ele><time>2026-08-09T08:56:20Z</time></trkpt><trkpt lat="40.7326872647" lon="-4.0227665193"><ele>1290.23</ele><time>2026-08-09T08:56:21Z</time></trkpt><trkpt lat="40.7327093929" lon="-4.0227303095"><ele>1290.23</ele><time>2026-08-09T08:56:22Z</time></trkpt><trkpt lat="40.7327359635" lon="-4.0227016434"><ele>1290.23</ele><time>2026-08-09T08:56:23Z</time></trkpt><trkpt lat="40.7327602711" lon="-4.0226761624"><ele>1290.23</ele><time>2026-08-09T08:56:24Z</time></trkpt><trkpt lat="40.7328463532" lon="-4.0225710534"><ele>1290.23</ele><time>2026-08-09T08:56:28Z</time></trkpt><trkpt lat="40.7328779530" lon="-4.0225592349"><ele>1290.23</ele><time>2026-08-09T08:56:29Z</time></trkpt><trkpt lat="40.7329167612" lon="-4.0225519426"><ele>1290.23</ele><time>2026-08-09T08:56:30Z</time></trkpt><trkpt lat="40.7329608500" lon="-4.0225511882"><ele>1288.30</ele><time>2026-08-09T08:56:31Z</time></trkpt><trkpt lat="40.7330129016" lon="-4.0225553792"><ele>1288.30</ele><time>2026-08-09T08:56:32Z</time></trkpt><trkpt lat="40.7331154123" lon="-4.0225667786"><ele>1286.38</ele><time>2026-08-09T08:56:34Z</time></trkpt><trkpt lat="40.7331567351" lon="-4.0225607436"><ele>1285.90</ele><time>2026-08-09T08:56:35Z</time></trkpt><trkpt lat="40.7331903465" lon="-4.0225501824"><ele>1284.94</ele><time>2026-08-09T08:56:36Z</time></trkpt><trkpt lat="40.7332203537" lon="-4.0225370228"><ele>1284.94</ele><time>2026-08-09T08:56:37Z</time></trkpt><trkpt lat="40.7332460862" lon="-4.0225287247"><ele>1284.46</ele><time>2026-08-09T08:56:38Z</time></trkpt><trkpt lat="40.7332739141" lon="-4.0225295629"><ele>1284.46</ele><time>2026-08-09T08:56:39Z</time></trkpt><trkpt lat="40.7333008200" lon="-4.0225313231"><ele>1284.46</ele><time>2026-08-09T08:56:40Z</time></trkpt><trkpt lat="40.7333266363" lon="-4.0225305688"><ele>1283.98</ele><time>2026-08-09T08:56:41Z</time></trkpt><trkpt lat="40.7333501894" lon="-4.0225325804"><ele>1283.02</ele><time>2026-08-09T08:56:42Z</time></trkpt><trkpt lat="40.7333714794" lon="-4.0225474164"><ele>1282.54</ele><time>2026-08-09T08:56:43Z</time></trkpt><trkpt lat="40.7333957870" lon="-4.0225692932"><ele>1282.54</ele><time>2026-08-09T08:56:44Z</time></trkpt><trkpt lat="40.7334183343" lon="-4.0225869790"><ele>1282.54</ele><time>2026-08-09T08:56:45Z</time></trkpt><trkpt lat="40.7334401272" lon="-4.0226128791"><ele>1282.54</ele><time>2026-08-09T08:56:46Z</time></trkpt><trkpt lat="40.7335824519" lon="-4.0228015557"><ele>1281.09</ele><time>2026-08-09T08:56:55Z</time></trkpt><trkpt lat="40.7335922588" lon="-4.0228199121"><ele>1281.09</ele><time>2026-08-09T08:57:09Z</time></trkpt><trkpt lat="40.7336019818" lon="-4.0228322335"><ele>1281.09</ele><time>2026-08-09T08:57:10Z</time></trkpt><trkpt lat="40.7336208411" lon="-4.0228422079"><ele>1281.57</ele><time>2026-08-09T08:57:21Z</time></trkpt><trkpt lat="40.7337764930" lon="-4.0227977838"><ele>1281.09</ele><time>2026-08-09T08:57:29Z</time></trkpt><trkpt lat="40.7337852102" lon="-4.0227899048"><ele>1281.09</ele><time>2026-08-09T08:57:30Z</time></trkpt><trkpt lat="40.7339874655" lon="-4.0225442313"><ele>1282.54</ele><time>2026-08-09T08:57:44Z</time></trkpt><trkpt lat="40.7342830952" lon="-4.0223425627"><ele>1285.42</ele><time>2026-08-09T08:57:58Z</time></trkpt><trkpt lat="40.7346971612" lon="-4.0222348552"><ele>1288.78</ele><time>2026-08-09T08:58:16Z</time></trkpt><trkpt lat="40.7349973172" lon="-4.0223120525"><ele>1291.19</ele><time>2026-08-09T08:58:30Z</time></trkpt><trkpt lat="40.7353326771" lon="-4.0224957839"><ele>1293.11</ele><time>2026-08-09T08:58:44Z</time></trkpt><trkpt lat="40.7357187476" lon="-4.0224545449"><ele>1294.07</ele><time>2026-08-09T08:58:55Z</time></trkpt><trkpt lat="40.7362237573" lon="-4.0222538821"><ele>1295.99</ele><time>2026-08-09T08:59:09Z</time></trkpt><trkpt lat="40.7364457101" lon="-4.0223018266"><ele>1296.48</ele><time>2026-08-09T08:59:17Z</time></trkpt><trkpt lat="40.7364718616" lon="-4.0223220270"><ele>1296.96</ele><time>2026-08-09T08:59:18Z</time></trkpt><trkpt lat="40.7365015335" lon="-4.0223433170"><ele>1297.92</ele><time>2026-08-09T08:59:19Z</time></trkpt><trkpt lat="40.7365332171" lon="-4.0223646909"><ele>1297.92</ele><time>2026-08-09T08:59:20Z</time></trkpt><trkpt lat="40.7365643140" lon="-4.0223866515"><ele>1297.92</ele><time>2026-08-09T08:59:21Z</time></trkpt><trkpt lat="40.7365953270" lon="-4.0224063490"><ele>1297.92</ele><time>2026-08-09T08:59:22Z</time></trkpt><trkpt lat="40.7368751988" lon="-4.0228472371"><ele>1296.48</ele><time>2026-08-09T08:59:36Z</time></trkpt><trkpt lat="40.7368005160" lon="-4.0236260835"><ele>1293.59</ele><time>2026-08-09T08:59:52Z</time></trkpt><trkpt lat="40.7367589418" lon="-4.0240882616"><ele>1291.67</ele><time>2026-08-09T09:00:05Z</time></trkpt><trkpt lat="40.7367679104" lon="-4.0241073724"><ele>1292.15</ele><time>2026-08-09T09:00:06Z</time></trkpt><trkpt lat="40.7367803995" lon="-4.0241281595"><ele>1292.15</ele><time>2026-08-09T09:00:07Z</time></trkpt><trkpt lat="40.7367938943" lon="-4.0241477732"><ele>1292.15</ele><time>2026-08-09T09:00:08Z</time></trkpt><trkpt lat="40.7368038688" lon="-4.0241631120"><ele>1292.15</ele><time>2026-08-09T09:00:09Z</time></trkpt><trkpt lat="40.7368047070" lon="-4.0241942927"><ele>1292.15</ele><time>2026-08-09T09:00:11Z</time></trkpt><trkpt lat="40.7367975824" lon="-4.0242223721"><ele>1292.15</ele><time>2026-08-09T09:00:12Z</time></trkpt><trkpt lat="40.7368009351" lon="-4.0246547945"><ele>1294.55</ele><time>2026-08-09T09:00:25Z</time></trkpt><trkpt lat="40.7369359676" lon="-4.0253006201"><ele>1298.40</ele><time>2026-08-09T09:00:41Z</time></trkpt><trkpt lat="40.7370860036" lon="-4.0256902110"><ele>1301.28</ele><time>2026-08-09T09:00:53Z</time></trkpt><trkpt lat="40.7371655479" lon="-4.0260580927"><ele>1304.65</ele><time>2026-08-09T09:01:03Z</time></trkpt><trkpt lat="40.7374074496" lon="-4.0265284851"><ele>1306.09</ele><time>2026-08-09T09:01:17Z</time></trkpt><trkpt lat="40.7375206053" lon="-4.0266629308"><ele>1306.09</ele><time>2026-08-09T09:01:28Z</time></trkpt><trkpt lat="40.7377093658" lon="-4.0268734843"><ele>1305.13</ele><time>2026-08-09T09:01:40Z</time></trkpt><trkpt lat="40.7377769239" lon="-4.0269341692"><ele>1305.13</ele><time>2026-08-09T09:01:42Z</time></trkpt><trkpt lat="40.7379619125" lon="-4.0270556230"><ele>1305.13</ele><time>2026-08-09T09:01:47Z</time></trkpt><trkpt lat="40.7379956078" lon="-4.0270935930"><ele>1305.13</ele><time>2026-08-09T09:01:48Z</time></trkpt><trkpt lat="40.7380263694" lon="-4.0271392744"><ele>1305.13</ele><time>2026-08-09T09:01:49Z</time></trkpt><trkpt lat="40.7380886469" lon="-4.0272370074"><ele>1305.13</ele><time>2026-08-09T09:01:51Z</time></trkpt><trkpt lat="40.7381562889" lon="-4.0273222513"><ele>1305.13</ele><time>2026-08-09T09:01:53Z</time></trkpt><trkpt lat="40.7385450415" lon="-4.0276337229"><ele>1305.13</ele><time>2026-08-09T09:02:05Z</time></trkpt><trkpt lat="40.7386837620" lon="-4.0277084894"><ele>1306.09</ele><time>2026-08-09T09:02:09Z</time></trkpt><trkpt lat="40.7392427512" lon="-4.0280070528"><ele>1308.01</ele><time>2026-08-09T09:02:24Z</time></trkpt><trkpt lat="40.7395315915" lon="-4.0280835796"><ele>1308.01</ele><time>2026-08-09T09:02:31Z</time></trkpt><trkpt lat="40.7400578912" lon="-4.0280628763"><ele>1311.38</ele><time>2026-08-09T09:02:45Z</time></trkpt><trkpt lat="40.7405803353" lon="-4.0280472022"><ele>1311.86</ele><time>2026-08-09T09:02:57Z</time></trkpt><trkpt lat="40.7407180499" lon="-4.0279981680"><ele>1311.86</ele><time>2026-08-09T09:03:00Z</time></trkpt><trkpt lat="40.7408097479" lon="-4.0279744472"><ele>1311.86</ele><time>2026-08-09T09:03:02Z</time></trkpt><trkpt lat="40.7409305312" lon="-4.0279134270"><ele>1311.86</ele><time>2026-08-09T09:03:05Z</time></trkpt><trkpt lat="40.7409722731" lon="-4.0278886165"><ele>1311.86</ele><time>2026-08-09T09:03:06Z</time></trkpt><trkpt lat="40.7412321959" lon="-4.0277392510"><ele>1311.86</ele><time>2026-08-09T09:03:12Z</time></trkpt><trkpt lat="40.7413228881" lon="-4.0276996884"><ele>1311.86</ele><time>2026-08-09T09:03:14Z</time></trkpt><trkpt lat="40.7414987404" lon="-4.0275958367"><ele>1310.41</ele><time>2026-08-09T09:03:18Z</time></trkpt><trkpt lat="40.7415379677" lon="-4.0275722835"><ele>1310.41</ele><time>2026-08-09T09:03:19Z</time></trkpt><trkpt lat="40.7415744290" lon="-4.0275497362"><ele>1310.41</ele><time>2026-08-09T09:03:20Z</time></trkpt><trkpt lat="40.7419248763" lon="-4.0273581259"><ele>1310.41</ele><time>2026-08-09T09:03:28Z</time></trkpt><trkpt lat="40.7419952843" lon="-4.0272983629"><ele>1310.41</ele><time>2026-08-09T09:03:30Z</time></trkpt><trkpt lat="40.7423937600" lon="-4.0269169025"><ele>1311.86</ele><time>2026-08-09T09:03:42Z</time></trkpt><trkpt lat="40.7428480592" lon="-4.0267272200"><ele>1312.34</ele><time>2026-08-09T09:03:51Z</time></trkpt><trkpt lat="40.7428939920" lon="-4.0267010685"><ele>1312.34</ele><time>2026-08-09T09:03:52Z</time></trkpt><trkpt lat="40.7429436967" lon="-4.0266704746"><ele>1312.34</ele><time>2026-08-09T09:03:53Z</time></trkpt><trkpt lat="40.7429864444" lon="-4.0266340133"><ele>1312.34</ele><time>2026-08-09T09:03:54Z</time></trkpt><trkpt lat="40.7430307008" lon="-4.0265899245"><ele>1312.34</ele><time>2026-08-09T09:03:55Z</time></trkpt><trkpt lat="40.7431621291" lon="-4.0264739189"><ele>1312.34</ele><time>2026-08-09T09:03:58Z</time></trkpt><trkpt lat="40.7432165276" lon="-4.0264512878"><ele>1312.34</ele><time>2026-08-09T09:03:59Z</time></trkpt><trkpt lat="40.7432668190" lon="-4.0264372900"><ele>1312.34</ele><time>2026-08-09T09:04:00Z</time></trkpt><trkpt lat="40.7434998360" lon="-4.0264246333"><ele>1310.90</ele><time>2026-08-09T09:04:04Z</time></trkpt><trkpt lat="40.7437059470" lon="-4.0264472645"><ele>1310.41</ele><time>2026-08-09T09:04:08Z</time></trkpt><trkpt lat="40.7437961362" lon="-4.0264408104"><ele>1311.86</ele><time>2026-08-09T09:04:10Z</time></trkpt><trkpt lat="40.7438415661" lon="-4.0264335182"><ele>1311.86</ele><time>2026-08-09T09:04:11Z</time></trkpt><trkpt lat="40.7439810410" lon="-4.0264072828"><ele>1311.86</ele><time>2026-08-09T09:04:14Z</time></trkpt><trkpt lat="40.7440278959" lon="-4.0264103003"><ele>1311.86</ele><time>2026-08-09T09:04:15Z</time></trkpt><trkpt lat="40.7440751698" lon="-4.0264273155"><ele>1311.86</ele><time>2026-08-09T09:04:16Z</time></trkpt><trkpt lat="40.7443947718" lon="-4.0266652778"><ele>1313.30</ele><time>2026-08-09T09:04:27Z</time></trkpt><trkpt lat="40.7445045747" lon="-4.0267370269"><ele>1313.30</ele><time>2026-08-09T09:04:30Z</time></trkpt><trkpt lat="40.7445460651" lon="-4.0267602447"><ele>1313.30</ele><time>2026-08-09T09:04:31Z</time></trkpt><trkpt lat="40.7445873879" lon="-4.0267826244"><ele>1313.30</ele><time>2026-08-09T09:04:32Z</time></trkpt><trkpt lat="40.7448696066" lon="-4.0268815309"><ele>1313.30</ele><time>2026-08-09T09:04:39Z</time></trkpt><trkpt lat="40.7454599440" lon="-4.0266920161"><ele>1310.90</ele><time>2026-08-09T09:04:50Z</time></trkpt><trkpt lat="40.7460657880" lon="-4.0263360366"><ele>1310.90</ele><time>2026-08-09T09:05:03Z</time></trkpt><trkpt lat="40.7463047560" lon="-4.0262611862"><ele>1310.90</ele><time>2026-08-09T09:05:08Z</time></trkpt><trkpt lat="40.7464391179" lon="-4.0262505412"><ele>1310.90</ele><time>2026-08-09T09:05:11Z</time></trkpt><trkpt lat="40.7464837935" lon="-4.0262652934"><ele>1310.90</ele><time>2026-08-09T09:05:12Z</time></trkpt><trkpt lat="40.7465146389" lon="-4.0262806322"><ele>1310.90</ele><time>2026-08-09T09:05:13Z</time></trkpt><trkpt lat="40.7465498429" lon="-4.0262989886"><ele>1310.90</ele><time>2026-08-09T09:05:14Z</time></trkpt><trkpt lat="40.7465810236" lon="-4.0263148304"><ele>1310.90</ele><time>2026-08-09T09:05:15Z</time></trkpt><trkpt lat="40.7466068398" lon="-4.0263320971"><ele>1310.90</ele><time>2026-08-09T09:05:16Z</time></trkpt><trkpt lat="40.7466298062" lon="-4.0263531357"><ele>1310.90</ele><time>2026-08-09T09:05:17Z</time></trkpt><trkpt lat="40.7466474921" lon="-4.0263738390"><ele>1310.90</ele><time>2026-08-09T09:05:18Z</time></trkpt><trkpt lat="40.7466647588" lon="-4.0263944585"><ele>1310.90</ele><time>2026-08-09T09:05:19Z</time></trkpt><trkpt lat="40.7466825284" lon="-4.0264130663"><ele>1310.90</ele><time>2026-08-09T09:05:20Z</time></trkpt><trkpt lat="40.7467753999" lon="-4.0265154932"><ele>1312.34</ele><time>2026-08-09T09:05:25Z</time></trkpt><trkpt lat="40.7469980232" lon="-4.0267880727"><ele>1315.22</ele><time>2026-08-09T09:05:37Z</time></trkpt><trkpt lat="40.7471798267" lon="-4.0271895658"><ele>1318.59</ele><time>2026-08-09T09:05:50Z</time></trkpt><trkpt lat="40.7472628076" lon="-4.0277257562"><ele>1319.07</ele><time>2026-08-09T09:06:03Z</time></trkpt><trkpt lat="40.7472317107" lon="-4.0282554086"><ele>1321.47</ele><time>2026-08-09T09:06:16Z</time></trkpt><trkpt lat="40.7472088281" lon="-4.0288707241"><ele>1323.87</ele><time>2026-08-09T09:06:30Z</time></trkpt><trkpt lat="40.7473462075" lon="-4.0294618160"><ele>1324.83</ele><time>2026-08-09T09:06:42Z</time></trkpt><trkpt lat="40.7474928908" lon="-4.0297407657"><ele>1325.80</ele><time>2026-08-09T09:06:48Z</time></trkpt><trkpt lat="40.7475131750" lon="-4.0297890455"><ele>1325.80</ele><time>2026-08-09T09:06:49Z</time></trkpt><trkpt lat="40.7475277595" lon="-4.0298381634"><ele>1325.80</ele><time>2026-08-09T09:06:50Z</time></trkpt><trkpt lat="40.7475657295" lon="-4.0299943183"><ele>1325.80</ele><time>2026-08-09T09:06:53Z</time></trkpt><trkpt lat="40.7478844933" lon="-4.0305270720"><ele>1328.20</ele><time>2026-08-09T09:07:07Z</time></trkpt><trkpt lat="40.7479154225" lon="-4.0305652097"><ele>1328.20</ele><time>2026-08-09T09:07:08Z</time></trkpt><trkpt lat="40.7479443401" lon="-4.0306088794"><ele>1328.20</ele><time>2026-08-09T09:07:09Z</time></trkpt><trkpt lat="40.7482678816" lon="-4.0311097819"><ele>1328.20</ele><time>2026-08-09T09:07:20Z</time></trkpt><trkpt lat="40.7483536284" lon="-4.0311848838"><ele>1328.20</ele><time>2026-08-09T09:07:22Z</time></trkpt><trkpt lat="40.7484395429" lon="-4.0312409587"><ele>1327.24</ele><time>2026-08-09T09:07:24Z</time></trkpt><trkpt lat="40.7486763317" lon="-4.0313541144"><ele>1329.16</ele><time>2026-08-09T09:07:30Z</time></trkpt><trkpt lat="40.7487122901" lon="-4.0313792601"><ele>1329.16</ele><time>2026-08-09T09:07:31Z</time></trkpt><trkpt lat="40.7493110932" lon="-4.0316324774"><ele>1331.08</ele><time>2026-08-09T09:07:47Z</time></trkpt><trkpt lat="40.7497203816" lon="-4.0316074993"><ele>1331.08</ele><time>2026-08-09T09:08:02Z</time></trkpt><trkpt lat="40.7501557376" lon="-4.0316257719"><ele>1329.64</ele><time>2026-08-09T09:08:13Z</time></trkpt><trkpt lat="40.7502502017" lon="-4.0316382609"><ele>1329.64</ele><time>2026-08-09T09:08:15Z</time></trkpt><trkpt lat="40.7504180074" lon="-4.0316952579"><ele>1329.16</ele><time>2026-08-09T09:08:19Z</time></trkpt><trkpt lat="40.7504590787" lon="-4.0317169670"><ele>1329.16</ele><time>2026-08-09T09:08:20Z</time></trkpt><trkpt lat="40.7509155571" lon="-4.0319100022"><ele>1326.76</ele><time>2026-08-09T09:08:32Z</time></trkpt><trkpt lat="40.7511398569" lon="-4.0318787377"><ele>1325.80</ele><time>2026-08-09T09:08:38Z</time></trkpt><trkpt lat="40.7511771563" lon="-4.0318594594"><ele>1325.80</ele><time>2026-08-09T09:08:39Z</time></trkpt><trkpt lat="40.7512143720" lon="-4.0318355709"><ele>1325.80</ele><time>2026-08-09T09:08:40Z</time></trkpt><trkpt lat="40.7512500789" lon="-4.0318054799"><ele>1325.31</ele><time>2026-08-09T09:08:41Z</time></trkpt><trkpt lat="40.7512854505" lon="-4.0317686833"><ele>1325.31</ele><time>2026-08-09T09:08:42Z</time></trkpt><trkpt lat="40.7513176370" lon="-4.0317334794"><ele>1325.31</ele><time>2026-08-09T09:08:43Z</time></trkpt><trkpt lat="40.7516656537" lon="-4.0312452335"><ele>1325.31</ele><time>2026-08-09T09:08:56Z</time></trkpt><trkpt lat="40.7519593555" lon="-4.0309142321"><ele>1326.76</ele><time>2026-08-09T09:09:06Z</time></trkpt><trkpt lat="40.7523171790" lon="-4.0306086279"><ele>1326.76</ele><time>2026-08-09T09:09:17Z</time></trkpt><trkpt lat="40.7525424007" lon="-4.0305657126"><ele>1326.76</ele><time>2026-08-09T09:09:23Z</time></trkpt><trkpt lat="40.7527919300" lon="-4.0304694045"><ele>1324.83</ele><time>2026-08-09T09:09:29Z</time></trkpt><trkpt lat="40.7528385334" lon="-4.0304577537"><ele>1324.83</ele><time>2026-08-09T09:09:30Z</time></trkpt><trkpt lat="40.7528873999" lon="-4.0304536466"><ele>1324.35</ele><time>2026-08-09T09:09:31Z</time></trkpt><trkpt lat="40.7529275492" lon="-4.0304595139"><ele>1324.35</ele><time>2026-08-09T09:09:32Z</time></trkpt><trkpt lat="40.7529666927" lon="-4.0304705780"><ele>1324.35</ele><time>2026-08-09T09:09:33Z</time></trkpt><trkpt lat="40.7530026510" lon="-4.0304808877"><ele>1323.87</ele><time>2026-08-09T09:09:34Z</time></trkpt><trkpt lat="40.7531779166" lon="-4.0304945502"><ele>1322.91</ele><time>2026-08-09T09:09:38Z</time></trkpt><trkpt lat="40.7532206643" lon="-4.0304916166"><ele>1322.91</ele><time>2026-08-09T09:09:39Z</time></trkpt><trkpt lat="40.7532623224" lon="-4.0304875094"><ele>1322.91</ele><time>2026-08-09T09:09:40Z</time></trkpt><trkpt lat="40.7533096801" lon="-4.0304825641"><ele>1322.43</ele><time>2026-08-09T09:09:41Z</time></trkpt><trkpt lat="40.7533575408" lon="-4.0304759424"><ele>1322.43</ele><time>2026-08-09T09:09:42Z</time></trkpt><trkpt lat="40.7534060720" lon="-4.0304709133"><ele>1321.95</ele><time>2026-08-09T09:09:43Z</time></trkpt><trkpt lat="40.7534637395" lon="-4.0304687340"><ele>1321.47</ele><time>2026-08-09T09:09:44Z</time></trkpt><trkpt lat="40.7535173837" lon="-4.0304718353"><ele>1321.47</ele><time>2026-08-09T09:09:45Z</time></trkpt><trkpt lat="40.7535696868" lon="-4.0304857492"><ele>1320.03</ele><time>2026-08-09T09:09:46Z</time></trkpt><trkpt lat="40.7536200620" lon="-4.0305229649"><ele>1319.55</ele><time>2026-08-09T09:09:47Z</time></trkpt><trkpt lat="40.7536711078" lon="-4.0305797104"><ele>1318.59</ele><time>2026-08-09T09:09:48Z</time></trkpt><trkpt lat="40.7537195552" lon="-4.0306368750"><ele>1318.59</ele><time>2026-08-09T09:09:49Z</time></trkpt><trkpt lat="40.7537715230" lon="-4.0306767728"><ele>1319.07</ele><time>2026-08-09T09:09:50Z</time></trkpt><trkpt lat="40.7538287714" lon="-4.0306919441"><ele>1318.10</ele><time>2026-08-09T09:09:51Z</time></trkpt><trkpt lat="40.7538804039" lon="-4.0306890104"><ele>1318.10</ele><time>2026-08-09T09:09:52Z</time></trkpt><trkpt lat="40.7539317850" lon="-4.0306698997"><ele>1318.10</ele><time>2026-08-09T09:09:53Z</time></trkpt><trkpt lat="40.7539751194" lon="-4.0306411497"><ele>1317.62</ele><time>2026-08-09T09:09:54Z</time></trkpt><trkpt lat="40.7540132571" lon="-4.0306034312"><ele>1316.66</ele><time>2026-08-09T09:09:55Z</time></trkpt><trkpt lat="40.7540436834" lon="-4.0305643715"><ele>1316.18</ele><time>2026-08-09T09:09:56Z</time></trkpt><trkpt lat="40.7540677395" lon="-4.0305263177"><ele>1315.70</ele><time>2026-08-09T09:09:57Z</time></trkpt><trkpt lat="40.7540863473" lon="-4.0304909460"><ele>1315.70</ele><time>2026-08-09T09:09:58Z</time></trkpt><trkpt lat="40.7541071344" lon="-4.0304616932"><ele>1315.70</ele><time>2026-08-09T09:09:59Z</time></trkpt><trkpt lat="40.7543463539" lon="-4.0301285964"><ele>1316.18</ele><time>2026-08-09T09:10:11Z</time></trkpt><trkpt lat="40.7543999143" lon="-4.0300064720"><ele>1317.62</ele><time>2026-08-09T09:10:16Z</time></trkpt><trkpt lat="40.7545125671" lon="-4.0297758020"><ele>1320.51</ele><time>2026-08-09T09:10:25Z</time></trkpt><trkpt lat="40.7546485215" lon="-4.0295675118"><ele>1323.87</ele><time>2026-08-09T09:10:35Z</time></trkpt><trkpt lat="40.7548006531" lon="-4.0292523522"><ele>1327.24</ele><time>2026-08-09T09:10:48Z</time></trkpt><trkpt lat="40.7550864760" lon="-4.0288408007"><ele>1330.12</ele><time>2026-08-09T09:11:05Z</time></trkpt><trkpt lat="40.7553152181" lon="-4.0286305826"><ele>1333.01</ele><time>2026-08-09T09:11:18Z</time></trkpt><trkpt lat="40.7554995362" lon="-4.0284321830"><ele>1336.37</ele><time>2026-08-09T09:11:29Z</time></trkpt><trkpt lat="40.7556829322" lon="-4.0281444322"><ele>1339.25</ele><time>2026-08-09T09:11:41Z</time></trkpt><trkpt lat="40.7558504026" lon="-4.0278294403"><ele>1341.66</ele><time>2026-08-09T09:11:53Z</time></trkpt><trkpt lat="40.7560073957" lon="-4.0274893865"><ele>1345.02</ele><time>2026-08-09T09:12:04Z</time></trkpt><trkpt lat="40.7562341262" lon="-4.0271127038"><ele>1348.39</ele><time>2026-08-09T09:12:16Z</time></trkpt><trkpt lat="40.7564687356" lon="-4.0266573988"><ele>1352.23</ele><time>2026-08-09T09:12:29Z</time></trkpt><trkpt lat="40.7567697298" lon="-4.0262994077"><ele>1354.15</ele><time>2026-08-09T09:12:42Z</time></trkpt><trkpt lat="40.7569897547" lon="-4.0260246489"><ele>1357.04</ele><time>2026-08-09T09:12:54Z</time></trkpt><trkpt lat="40.7572894916" lon="-4.0256327111"><ele>1359.44</ele><time>2026-08-09T09:13:07Z</time></trkpt><trkpt lat="40.7575056609" lon="-4.0253328066"><ele>1361.84</ele><time>2026-08-09T09:13:19Z</time></trkpt><trkpt lat="40.7577577047" lon="-4.0250413679"><ele>1365.21</ele><time>2026-08-09T09:13:32Z</time></trkpt><trkpt lat="40.7581334654" lon="-4.0248727240"><ele>1368.09</ele><time>2026-08-09T09:13:47Z</time></trkpt><trkpt lat="40.7585081365" lon="-4.0245888289"><ele>1370.50</ele><time>2026-08-09T09:14:02Z</time></trkpt><trkpt lat="40.7588143274" lon="-4.0241937060"><ele>1373.38</ele><time>2026-08-09T09:14:17Z</time></trkpt><trkpt lat="40.7591268886" lon="-4.0239444282"><ele>1374.34</ele><time>2026-08-09T09:14:29Z</time></trkpt><trkpt lat="40.7594056707" lon="-4.0239962284"><ele>1374.82</ele><time>2026-08-09T09:14:36Z</time></trkpt><trkpt lat="40.7595902402" lon="-4.0240726713"><ele>1377.23</ele><time>2026-08-09T09:14:43Z</time></trkpt><trkpt lat="40.7596153021" lon="-4.0240569133"><ele>1377.23</ele><time>2026-08-09T09:14:44Z</time></trkpt><trkpt lat="40.7596381009" lon="-4.0240316000"><ele>1377.71</ele><time>2026-08-09T09:14:45Z</time></trkpt><trkpt lat="40.7598026376" lon="-4.0238329489"><ele>1380.59</ele><time>2026-08-09T09:14:52Z</time></trkpt><trkpt lat="40.7598214969" lon="-4.0237958170"><ele>1381.55</ele><time>2026-08-09T09:14:53Z</time></trkpt><trkpt lat="40.7598608918" lon="-4.0237263311"><ele>1382.03</ele><time>2026-08-09T09:14:55Z</time></trkpt><trkpt lat="40.7601812482" lon="-4.0231339820"><ele>1382.99</ele><time>2026-08-09T09:15:12Z</time></trkpt><trkpt lat="40.7604936417" lon="-4.0225726459"><ele>1384.92</ele><time>2026-08-09T09:15:29Z</time></trkpt><trkpt lat="40.7607955579" lon="-4.0220217872"><ele>1387.32</ele><time>2026-08-09T09:15:45Z</time></trkpt><trkpt lat="40.7609870005" lon="-4.0216180310"><ele>1390.68</ele><time>2026-08-09T09:15:57Z</time></trkpt><trkpt lat="40.7611836400" lon="-4.0212581959"><ele>1392.13</ele><time>2026-08-09T09:16:08Z</time></trkpt><trkpt lat="40.7615318242" lon="-4.0209347382"><ele>1393.57</ele><time>2026-08-09T09:16:21Z</time></trkpt><trkpt lat="40.7617532741" lon="-4.0207656752"><ele>1394.05</ele><time>2026-08-09T09:16:31Z</time></trkpt><trkpt lat="40.7619390171" lon="-4.0206070896"><ele>1395.49</ele><time>2026-08-09T09:16:42Z</time></trkpt><trkpt lat="40.7620144542" lon="-4.0204544552"><ele>1398.86</ele><time>2026-08-09T09:16:50Z</time></trkpt><trkpt lat="40.7622008678" lon="-4.0202338435"><ele>1400.78</ele><time>2026-08-09T09:17:03Z</time></trkpt><trkpt lat="40.7624122594" lon="-4.0200895909"><ele>1404.14</ele><time>2026-08-09T09:17:16Z</time></trkpt><trkpt lat="40.7626141794" lon="-4.0198740922"><ele>1407.51</ele><time>2026-08-09T09:17:30Z</time></trkpt><trkpt lat="40.7628114894" lon="-4.0196932945"><ele>1410.87</ele><time>2026-08-09T09:17:43Z</time></trkpt><trkpt lat="40.7630092185" lon="-4.0195561666"><ele>1414.24</ele><time>2026-08-09T09:17:55Z</time></trkpt><trkpt lat="40.7631766889" lon="-4.0194347966"><ele>1417.12</ele><time>2026-08-09T09:18:04Z</time></trkpt><trkpt lat="40.7632477675" lon="-4.0193814877"><ele>1418.08</ele><time>2026-08-09T09:18:08Z</time></trkpt><trkpt lat="40.7632635254" lon="-4.0193677414"><ele>1418.08</ele><time>2026-08-09T09:18:09Z</time></trkpt><trkpt lat="40.7632823009" lon="-4.0193550009"><ele>1418.08</ele><time>2026-08-09T09:18:10Z</time></trkpt><trkpt lat="40.7633018307" lon="-4.0193438530"><ele>1418.08</ele><time>2026-08-09T09:18:11Z</time></trkpt><trkpt lat="40.7633197680" lon="-4.0193332080"><ele>1418.56</ele><time>2026-08-09T09:18:12Z</time></trkpt><trkpt lat="40.7635123841" lon="-4.0191777237"><ele>1421.93</ele><time>2026-08-09T09:18:23Z</time></trkpt><trkpt lat="40.7635618374" lon="-4.0190992691"><ele>1423.85</ele><time>2026-08-09T09:18:28Z</time></trkpt><trkpt lat="40.7635836303" lon="-4.0190311242"><ele>1424.81</ele><time>2026-08-09T09:18:32Z</time></trkpt><trkpt lat="40.7635829598" lon="-4.0190097503"><ele>1425.29</ele><time>2026-08-09T09:18:33Z</time></trkpt><trkpt lat="40.7634993084" lon="-4.0188603010"><ele>1428.66</ele><time>2026-08-09T09:18:43Z</time></trkpt><trkpt lat="40.7634448260" lon="-4.0188051481"><ele>1429.14</ele><time>2026-08-09T09:18:47Z</time></trkpt><trkpt lat="40.7634251285" lon="-4.0187984426"><ele>1429.62</ele><time>2026-08-09T09:18:48Z</time></trkpt><trkpt lat="40.7634066045" lon="-4.0187900607"><ele>1429.62</ele><time>2026-08-09T09:18:49Z</time></trkpt><trkpt lat="40.7633902598" lon="-4.0187797509"><ele>1430.10</ele><time>2026-08-09T09:18:50Z</time></trkpt><trkpt lat="40.7633740827" lon="-4.0187719557"><ele>1430.10</ele><time>2026-08-09T09:18:51Z</time></trkpt><trkpt lat="40.7633597497" lon="-4.0187618136"><ele>1430.10</ele><time>2026-08-09T09:18:52Z</time></trkpt><trkpt lat="40.7633448299" lon="-4.0187533479"><ele>1431.06</ele><time>2026-08-09T09:18:53Z</time></trkpt><trkpt lat="40.7633295748" lon="-4.0187463071"><ele>1431.06</ele><time>2026-08-09T09:18:54Z</time></trkpt><trkpt lat="40.7633156609" lon="-4.0187366679"><ele>1431.06</ele><time>2026-08-09T09:18:55Z</time></trkpt><trkpt lat="40.7633009087" lon="-4.0187276155"><ele>1431.54</ele><time>2026-08-09T09:18:56Z</time></trkpt><trkpt lat="40.7632858213" lon="-4.0187199041"><ele>1431.54</ele><time>2026-08-09T09:18:57Z</time></trkpt><trkpt lat="40.7630813867" lon="-4.0186110232"><ele>1434.91</ele><time>2026-08-09T09:19:10Z</time></trkpt><trkpt lat="40.7627819013" lon="-4.0184704587"><ele>1436.83</ele><time>2026-08-09T09:19:26Z</time></trkpt><trkpt lat="40.7624840923" lon="-4.0182721429"><ele>1439.23</ele><time>2026-08-09T09:19:40Z</time></trkpt><trkpt lat="40.7623222377" lon="-4.0181283094"><ele>1442.11</ele><time>2026-08-09T09:19:51Z</time></trkpt><trkpt lat="40.7621461339" lon="-4.0179455839"><ele>1445.48</ele><time>2026-08-09T09:20:02Z</time></trkpt><trkpt lat="40.7619042322" lon="-4.0177530516"><ele>1446.92</ele><time>2026-08-09T09:20:14Z</time></trkpt><trkpt lat="40.7617474068" lon="-4.0176002495"><ele>1447.88</ele><time>2026-08-09T09:20:29Z</time></trkpt><trkpt lat="40.7617029827" lon="-4.0175673924"><ele>1447.88</ele><time>2026-08-09T09:20:54Z</time></trkpt><trkpt lat="40.7617215905" lon="-4.0175282490"><ele>1448.36</ele><time>2026-08-09T09:21:15Z</time></trkpt><trkpt lat="40.7617162261" lon="-4.0174798016"><ele>1448.84</ele><time>2026-08-09T09:21:55Z</time></trkpt><trkpt lat="40.7617059164" lon="-4.0174719226"><ele>1448.84</ele><time>2026-08-09T09:22:19Z</time></trkpt><trkpt lat="40.7617210038" lon="-4.0174513869"><ele>1449.32</ele><time>2026-08-09T09:23:00Z</time></trkpt><trkpt lat="40.7617282122" lon="-4.0174871776"><ele>1449.32</ele><time>2026-08-09T09:23:34Z</time></trkpt><trkpt lat="40.7617024798" lon="-4.0175180230"><ele>1448.36</ele><time>2026-08-09T09:24:02Z</time></trkpt><trkpt lat="40.7616586424" lon="-4.0175098926"><ele>1449.81</ele><time>2026-08-09T09:24:28Z</time></trkpt><trkpt lat="40.7616503444" lon="-4.0175093897"><ele>1449.81</ele><time>2026-08-09T09:24:29Z</time></trkpt><trkpt lat="40.7616381068" lon="-4.0175112337"><ele>1449.81</ele><time>2026-08-09T09:24:30Z</time></trkpt><trkpt lat="40.7614153158" lon="-4.0174415801"><ele>1452.21</ele><time>2026-08-09T09:24:46Z</time></trkpt><trkpt lat="40.7612808701" lon="-4.0173611138"><ele>1454.61</ele><time>2026-08-09T09:24:57Z</time></trkpt><trkpt lat="40.7612673752" lon="-4.0173521452"><ele>1454.61</ele><time>2026-08-09T09:24:58Z</time></trkpt><trkpt lat="40.7612522040" lon="-4.0173446015"><ele>1455.09</ele><time>2026-08-09T09:24:59Z</time></trkpt><trkpt lat="40.7610839792" lon="-4.0172560047"><ele>1458.46</ele><time>2026-08-09T09:25:12Z</time></trkpt><trkpt lat="40.7610132359" lon="-4.0172140952"><ele>1459.90</ele><time>2026-08-09T09:25:17Z</time></trkpt><trkpt lat="40.7610007469" lon="-4.0172008518"><ele>1459.90</ele><time>2026-08-09T09:25:18Z</time></trkpt><trkpt lat="40.7609911077" lon="-4.0171853453"><ele>1460.38</ele><time>2026-08-09T09:25:19Z</time></trkpt><trkpt lat="40.7609424926" lon="-4.0171065554"><ele>1461.82</ele><time>2026-08-09T09:25:24Z</time></trkpt><trkpt lat="40.7608474419" lon="-4.0170003567"><ele>1465.19</ele><time>2026-08-09T09:25:34Z</time></trkpt><trkpt lat="40.7608345337" lon="-4.0169925615"><ele>1465.19</ele><time>2026-08-09T09:25:35Z</time></trkpt><trkpt lat="40.7608212065" lon="-4.0169876162"><ele>1465.19</ele><time>2026-08-09T09:25:36Z</time></trkpt><trkpt lat="40.7608026825" lon="-4.0169814136"><ele>1466.15</ele><time>2026-08-09T09:25:37Z</time></trkpt><trkpt lat="40.7607834041" lon="-4.0169784799"><ele>1466.15</ele><time>2026-08-09T09:25:38Z</time></trkpt><trkpt lat="40.7607666403" lon="-4.0169760492"><ele>1466.15</ele><time>2026-08-09T09:25:39Z</time></trkpt><trkpt lat="40.7605000958" lon="-4.0170020331"><ele>1469.03</ele><time>2026-08-09T09:25:54Z</time></trkpt><trkpt lat="40.7604612876" lon="-4.0170091577"><ele>1469.51</ele><time>2026-08-09T09:25:56Z</time></trkpt><trkpt lat="40.7604461163" lon="-4.0170214791"><ele>1469.99</ele><time>2026-08-09T09:25:57Z</time></trkpt><trkpt lat="40.7604319509" lon="-4.0170339681"><ele>1470.47</ele><time>2026-08-09T09:25:58Z</time></trkpt><trkpt lat="40.7604176179" lon="-4.0170418471"><ele>1470.47</ele><time>2026-08-09T09:25:59Z</time></trkpt><trkpt lat="40.7604020275" lon="-4.0170488879"><ele>1470.47</ele><time>2026-08-09T09:26:00Z</time></trkpt><trkpt lat="40.7603524067" lon="-4.0170711000"><ele>1470.95</ele><time>2026-08-09T09:26:03Z</time></trkpt><trkpt lat="40.7601755485" lon="-4.0172275063"><ele>1469.99</ele><time>2026-08-09T09:26:16Z</time></trkpt><trkpt lat="40.7601295318" lon="-4.0172516461"><ele>1469.99</ele><time>2026-08-09T09:26:53Z</time></trkpt><trkpt lat="40.7601336390" lon="-4.0172480419"><ele>1470.47</ele><time>2026-08-09T09:27:27Z</time></trkpt><trkpt lat="40.7601358183" lon="-4.0172494669"><ele>1470.47</ele><time>2026-08-09T09:27:58Z</time></trkpt><trkpt lat="40.7601260953" lon="-4.0172721818"><ele>1470.95</ele><time>2026-08-09T09:28:29Z</time></trkpt><trkpt lat="40.7601047214" lon="-4.0172643028"><ele>1470.95</ele><time>2026-08-09T09:28:50Z</time></trkpt><trkpt lat="40.7601149473" lon="-4.0172296017"><ele>1471.44</ele><time>2026-08-09T09:29:23Z</time></trkpt><trkpt lat="40.7600986864" lon="-4.0172565077"><ele>1471.44</ele><time>2026-08-09T09:29:52Z</time></trkpt><trkpt lat="40.7600945793" lon="-4.0172219742"><ele>1471.44</ele><time>2026-08-09T09:30:21Z</time></trkpt><trkpt lat="40.7600881252" lon="-4.0172509756"><ele>1471.44</ele><time>2026-08-09T09:30:25Z</time></trkpt><trkpt lat="40.7600768935" lon="-4.0172555856"><ele>1471.44</ele><time>2026-08-09T09:30:26Z</time></trkpt><trkpt lat="40.7600606326" lon="-4.0172601119"><ele>1471.44</ele><time>2026-08-09T09:30:27Z</time></trkpt><trkpt lat="40.7600446232" lon="-4.0172683261"><ele>1471.44</ele><time>2026-08-09T09:30:28Z</time></trkpt><trkpt lat="40.7600317989" lon="-4.0172849223"><ele>1471.44</ele><time>2026-08-09T09:30:29Z</time></trkpt><trkpt lat="40.7600147836" lon="-4.0172966570"><ele>1471.44</ele><time>2026-08-09T09:30:30Z</time></trkpt><trkpt lat="40.7598482352" lon="-4.0173055418"><ele>1470.95</ele><time>2026-08-09T09:30:36Z</time></trkpt><trkpt lat="40.7598183956" lon="-4.0172863472"><ele>1470.95</ele><time>2026-08-09T09:30:37Z</time></trkpt><trkpt lat="40.7597893104" lon="-4.0172605310"><ele>1470.47</ele><time>2026-08-09T09:30:38Z</time></trkpt><trkpt lat="40.7597619016" lon="-4.0172233153"><ele>1470.47</ele><time>2026-08-09T09:30:39Z</time></trkpt><trkpt lat="40.7597380131" lon="-4.0171779692"><ele>1469.99</ele><time>2026-08-09T09:30:40Z</time></trkpt><trkpt lat="40.7597173098" lon="-4.0171317849"><ele>1469.51</ele><time>2026-08-09T09:30:41Z</time></trkpt><trkpt lat="40.7596743107" lon="-4.0170387458"><ele>1469.51</ele><time>2026-08-09T09:30:43Z</time></trkpt><trkpt lat="40.7595979515" lon="-4.0168997739"><ele>1469.03</ele><time>2026-08-09T09:30:46Z</time></trkpt><trkpt lat="40.7595332433" lon="-4.0168120153"><ele>1469.03</ele><time>2026-08-09T09:30:48Z</time></trkpt><trkpt lat="40.7595023979" lon="-4.0167716146"><ele>1469.03</ele><time>2026-08-09T09:30:49Z</time></trkpt><trkpt lat="40.7594744861" lon="-4.0167292021"><ele>1468.55</ele><time>2026-08-09T09:30:50Z</time></trkpt><trkpt lat="40.7594478317" lon="-4.0166928247"><ele>1468.55</ele><time>2026-08-09T09:30:51Z</time></trkpt><trkpt lat="40.7594235241" lon="-4.0166592970"><ele>1468.55</ele><time>2026-08-09T09:30:52Z</time></trkpt><trkpt lat="40.7591750007" lon="-4.0164261125"><ele>1469.03</ele><time>2026-08-09T09:31:02Z</time></trkpt><trkpt lat="40.7591376174" lon="-4.0164455585"><ele>1469.03</ele><time>2026-08-09T09:31:03Z</time></trkpt><trkpt lat="40.7591067720" lon="-4.0164790023"><ele>1469.03</ele><time>2026-08-09T09:31:04Z</time></trkpt><trkpt lat="40.7590797823" lon="-4.0165217500"><ele>1469.03</ele><time>2026-08-09T09:31:05Z</time></trkpt><trkpt lat="40.7590548042" lon="-4.0165682696"><ele>1469.03</ele><time>2026-08-09T09:31:06Z</time></trkpt><trkpt lat="40.7590330113" lon="-4.0166112687"><ele>1469.03</ele><time>2026-08-09T09:31:07Z</time></trkpt><trkpt lat="40.7589043491" lon="-4.0168233309"><ele>1469.03</ele><time>2026-08-09T09:31:12Z</time></trkpt><trkpt lat="40.7584235631" lon="-4.0174098965"><ele>1468.55</ele><time>2026-08-09T09:31:27Z</time></trkpt><trkpt lat="40.7583798096" lon="-4.0174889378"><ele>1469.51</ele><time>2026-08-09T09:31:29Z</time></trkpt><trkpt lat="40.7580952439" lon="-4.0180180874"><ele>1471.92</ele><time>2026-08-09T09:31:45Z</time></trkpt><trkpt lat="40.7578553539" lon="-4.0184538625"><ele>1474.32</ele><time>2026-08-09T09:31:58Z</time></trkpt><trkpt lat="40.7575251069" lon="-4.0189734567"><ele>1477.20</ele><time>2026-08-09T09:32:13Z</time></trkpt><trkpt lat="40.7572352607" lon="-4.0194936376"><ele>1479.61</ele><time>2026-08-09T09:32:26Z</time></trkpt><trkpt lat="40.7569419779" lon="-4.0197641216"><ele>1482.49</ele><time>2026-08-09T09:32:36Z</time></trkpt><trkpt lat="40.7565441728" lon="-4.0202299878"><ele>1483.93</ele><time>2026-08-09T09:32:50Z</time></trkpt><trkpt lat="40.7561894506" lon="-4.0207045712"><ele>1484.41</ele><time>2026-08-09T09:33:05Z</time></trkpt><trkpt lat="40.7559876144" lon="-4.0208673477"><ele>1484.41</ele><time>2026-08-09T09:33:16Z</time></trkpt><trkpt lat="40.7559448667" lon="-4.0208984446"><ele>1484.41</ele><time>2026-08-09T09:33:28Z</time></trkpt><trkpt lat="40.7559093274" lon="-4.0209089220"><ele>1484.89</ele><time>2026-08-09T09:33:42Z</time></trkpt><trkpt lat="40.7559136022" lon="-4.0208555292"><ele>1484.89</ele><time>2026-08-09T09:34:16Z</time></trkpt><trkpt lat="40.7558698487" lon="-4.0208527632"><ele>1485.37</ele><time>2026-08-09T09:34:52Z</time></trkpt><trkpt lat="40.7558835950" lon="-4.0208358318"><ele>1485.85</ele><time>2026-08-09T09:35:18Z</time></trkpt><trkpt lat="40.7558789011" lon="-4.0208536852"><ele>1485.85</ele><time>2026-08-09T09:35:44Z</time></trkpt><trkpt lat="40.7558768895" lon="-4.0208664257"><ele>1486.82</ele><time>2026-08-09T09:36:02Z</time></trkpt><trkpt lat="40.7558708545" lon="-4.0208857879"><ele>1487.30</ele><time>2026-08-09T09:36:17Z</time></trkpt><trkpt lat="40.7558547612" lon="-4.0209230874"><ele>1487.78</ele><time>2026-08-09T09:36:32Z</time></trkpt><trkpt lat="40.7558255084" lon="-4.0209485684"><ele>1487.78</ele><time>2026-08-09T09:36:49Z</time></trkpt><trkpt lat="40.7557994407" lon="-4.0209649131"><ele>1487.78</ele><time>2026-08-09T09:37:04Z</time></trkpt><trkpt lat="40.7557943277" lon="-4.0209810063"><ele>1487.78</ele><time>2026-08-09T09:37:14Z</time></trkpt><trkpt lat="40.7557751331" lon="-4.0209744684"><ele>1487.78</ele><time>2026-08-09T09:37:15Z</time></trkpt><trkpt lat="40.7557526696" lon="-4.0209670085"><ele>1487.78</ele><time>2026-08-09T09:37:16Z</time></trkpt><trkpt lat="40.7557221595" lon="-4.0209598001"><ele>1487.78</ele><time>2026-08-09T09:37:17Z</time></trkpt><trkpt lat="40.7556960080" lon="-4.0209563635"><ele>1487.78</ele><time>2026-08-09T09:37:18Z</time></trkpt><trkpt lat="40.7556669228" lon="-4.0209605545"><ele>1487.78</ele><time>2026-08-09T09:37:19Z</time></trkpt><trkpt lat="40.7556403521" lon="-4.0209717024"><ele>1487.78</ele><time>2026-08-09T09:37:20Z</time></trkpt><trkpt lat="40.7556126919" lon="-4.0209909808"><ele>1488.26</ele><time>2026-08-09T09:37:21Z</time></trkpt><trkpt lat="40.7555938326" lon="-4.0210094210"><ele>1488.26</ele><time>2026-08-09T09:37:22Z</time></trkpt><trkpt lat="40.7555567846" lon="-4.0210418589"><ele>1486.82</ele><time>2026-08-09T09:37:24Z</time></trkpt><trkpt lat="40.7555098459" lon="-4.0210687649"><ele>1485.37</ele><time>2026-08-09T09:37:36Z</time></trkpt><trkpt lat="40.7554929145" lon="-4.0210670047"><ele>1485.37</ele><time>2026-08-09T09:37:40Z</time></trkpt><trkpt lat="40.7554802578" lon="-4.0210623108"><ele>1485.37</ele><time>2026-08-09T09:37:41Z</time></trkpt><trkpt lat="40.7553816028" lon="-4.0209991112"><ele>1485.37</ele><time>2026-08-09T09:37:53Z</time></trkpt><trkpt lat="40.7553310599" lon="-4.0209118556"><ele>1485.37</ele><time>2026-08-09T09:38:09Z</time></trkpt><trkpt lat="40.7553028967" lon="-4.0209023841"><ele>1485.37</ele><time>2026-08-09T09:38:14Z</time></trkpt><trkpt lat="40.7552112825" lon="-4.0207926650"><ele>1485.37</ele><time>2026-08-09T09:38:25Z</time></trkpt><trkpt lat="40.7551951054" lon="-4.0207074210"><ele>1485.37</ele><time>2026-08-09T09:38:36Z</time></trkpt><trkpt lat="40.7551759947" lon="-4.0206713788"><ele>1484.89</ele><time>2026-08-09T09:38:52Z</time></trkpt><trkpt lat="40.7552154735" lon="-4.0206447244"><ele>1485.37</ele><time>2026-08-09T09:39:15Z</time></trkpt><trkpt lat="40.7551880646" lon="-4.0205859672"><ele>1485.37</ele><time>2026-08-09T09:39:37Z</time></trkpt><trkpt lat="40.7551517710" lon="-4.0204788465"><ele>1485.37</ele><time>2026-08-09T09:39:50Z</time></trkpt><trkpt lat="40.7551550400" lon="-4.0204105340"><ele>1485.37</ele><time>2026-08-09T09:39:57Z</time></trkpt><trkpt lat="40.7551667746" lon="-4.0202976298"><ele>1485.37</ele><time>2026-08-09T09:40:03Z</time></trkpt><trkpt lat="40.7551785931" lon="-4.0202281438"><ele>1485.37</ele><time>2026-08-09T09:40:20Z</time></trkpt><trkpt lat="40.7552029844" lon="-4.0201919340"><ele>1485.37</ele><time>2026-08-09T09:40:38Z</time></trkpt><trkpt lat="40.7552245259" lon="-4.0201781876"><ele>1485.85</ele><time>2026-08-09T09:41:27Z</time></trkpt><trkpt lat="40.7552396972" lon="-4.0201915149"><ele>1485.85</ele><time>2026-08-09T09:42:10Z</time></trkpt><trkpt lat="40.7551894058" lon="-4.0202209353"><ele>1486.34</ele><time>2026-08-09T09:42:43Z</time></trkpt><trkpt lat="40.7551685348" lon="-4.0202667844"><ele>1486.34</ele><time>2026-08-09T09:42:56Z</time></trkpt><trkpt lat="40.7551356778" lon="-4.0203700494"><ele>1486.82</ele><time>2026-08-09T09:43:12Z</time></trkpt><trkpt lat="40.7551517710" lon="-4.0204582270"><ele>1488.26</ele><time>2026-08-09T09:43:32Z</time></trkpt><trkpt lat="40.7551578898" lon="-4.0205211751"><ele>1488.26</ele><time>2026-08-09T09:43:51Z</time></trkpt><trkpt lat="40.7551650144" lon="-4.0206274576"><ele>1488.26</ele><time>2026-08-09T09:44:07Z</time></trkpt><trkpt lat="40.7552109472" lon="-4.0207789186"><ele>1488.74</ele><time>2026-08-09T09:44:20Z</time></trkpt><trkpt lat="40.7552328240" lon="-4.0208484884"><ele>1489.22</ele><time>2026-08-09T09:44:28Z</time></trkpt><trkpt lat="40.7553670183" lon="-4.0208982769"><ele>1489.22</ele><time>2026-08-09T09:44:38Z</time></trkpt><trkpt lat="40.7554607280" lon="-4.0208991151"><ele>1490.18</ele><time>2026-08-09T09:44:44Z</time></trkpt><trkpt lat="40.7555436250" lon="-4.0207678545"><ele>1493.06</ele><time>2026-08-09T09:44:52Z</time></trkpt><trkpt lat="40.7555696089" lon="-4.0207505040"><ele>1493.55</ele><time>2026-08-09T09:44:54Z</time></trkpt><trkpt lat="40.7556855306" lon="-4.0204979572"><ele>1496.91</ele><time>2026-08-09T09:45:07Z</time></trkpt><trkpt lat="40.7557549328" lon="-4.0202951990"><ele>1499.79</ele><time>2026-08-09T09:45:18Z</time></trkpt><trkpt lat="40.7558757998" lon="-4.0199558996"><ele>1503.16</ele><time>2026-08-09T09:45:30Z</time></trkpt><trkpt lat="40.7559571043" lon="-4.0196921211"><ele>1505.56</ele><time>2026-08-09T09:45:41Z</time></trkpt><trkpt lat="40.7560376544" lon="-4.0194715094"><ele>1507.00</ele><time>2026-08-09T09:45:50Z</time></trkpt><trkpt lat="40.7560466230" lon="-4.0192420967"><ele>1509.41</ele><time>2026-08-09T09:45:58Z</time></trkpt><trkpt lat="40.7560269255" lon="-4.0192219801"><ele>1509.41</ele><time>2026-08-09T09:45:59Z</time></trkpt><trkpt lat="40.7560078148" lon="-4.0192035399"><ele>1509.89</ele><time>2026-08-09T09:46:00Z</time></trkpt><trkpt lat="40.7559899613" lon="-4.0191801544"><ele>1509.89</ele><time>2026-08-09T09:46:01Z</time></trkpt><trkpt lat="40.7559721917" lon="-4.0191547573"><ele>1509.89</ele><time>2026-08-09T09:46:02Z</time></trkpt><trkpt lat="40.7557473052" lon="-4.0188889671"><ele>1511.81</ele><time>2026-08-09T09:46:16Z</time></trkpt><trkpt lat="40.7557071559" lon="-4.0188207384"><ele>1512.29</ele><time>2026-08-09T09:46:31Z</time></trkpt><trkpt lat="40.7557029650" lon="-4.0188148711"><ele>1512.77</ele><time>2026-08-09T09:46:57Z</time></trkpt><trkpt lat="40.7557053957" lon="-4.0187869594"><ele>1512.77</ele><time>2026-08-09T09:47:21Z</time></trkpt><trkpt lat="40.7557000313" lon="-4.0187729616"><ele>1512.77</ele><time>2026-08-09T09:47:22Z</time></trkpt><trkpt lat="40.7556919008" lon="-4.0187547728"><ele>1513.25</ele><time>2026-08-09T09:47:23Z</time></trkpt><trkpt lat="40.7556822617" lon="-4.0187502466"><ele>1513.25</ele><time>2026-08-09T09:47:33Z</time></trkpt><trkpt lat="40.7556657493" lon="-4.0187508333"><ele>1513.25</ele><time>2026-08-09T09:47:53Z</time></trkpt><trkpt lat="40.7556686830" lon="-4.0187633224"><ele>1513.25</ele><time>2026-08-09T09:48:02Z</time></trkpt><trkpt lat="40.7556551043" lon="-4.0187706146"><ele>1513.25</ele><time>2026-08-09T09:48:03Z</time></trkpt><trkpt lat="40.7556311321" lon="-4.0187826846"><ele>1513.25</ele><time>2026-08-09T09:48:05Z</time></trkpt><trkpt lat="40.7556045614" lon="-4.0187839419"><ele>1513.25</ele><time>2026-08-09T09:48:06Z</time></trkpt><trkpt lat="40.7555867080" lon="-4.0187787451"><ele>1513.25</ele><time>2026-08-09T09:48:07Z</time></trkpt><trkpt lat="40.7555720396" lon="-4.0187746380"><ele>1512.29</ele><time>2026-08-09T09:48:08Z</time></trkpt><trkpt lat="40.7555572875" lon="-4.0187700279"><ele>1511.81</ele><time>2026-08-09T09:48:09Z</time></trkpt><trkpt lat="40.7555365004" lon="-4.0187679324"><ele>1511.81</ele><time>2026-08-09T09:48:10Z</time></trkpt><trkpt lat="40.7554890588" lon="-4.0187773202"><ele>1510.37</ele><time>2026-08-09T09:48:12Z</time></trkpt><trkpt lat="40.7554183993" lon="-4.0187770687"><ele>1508.93</ele><time>2026-08-09T09:48:15Z</time></trkpt><trkpt lat="40.7554001268" lon="-4.0187708661"><ele>1508.45</ele><time>2026-08-09T09:48:16Z</time></trkpt><trkpt lat="40.7553843688" lon="-4.0187775716"><ele>1507.48</ele><time>2026-08-09T09:48:17Z</time></trkpt><trkpt lat="40.7553696167" lon="-4.0187903959"><ele>1507.00</ele><time>2026-08-09T09:48:18Z</time></trkpt><trkpt lat="40.7553552836" lon="-4.0188009571"><ele>1506.04</ele><time>2026-08-09T09:48:19Z</time></trkpt><trkpt lat="40.7553410344" lon="-4.0188038070"><ele>1505.56</ele><time>2026-08-09T09:48:20Z</time></trkpt><trkpt lat="40.7553205825" lon="-4.0187996998"><ele>1505.56</ele><time>2026-08-09T09:48:21Z</time></trkpt><trkpt lat="40.7552109472" lon="-4.0187573712"><ele>1503.16</ele><time>2026-08-09T09:48:26Z</time></trkpt><trkpt lat="40.7551920880" lon="-4.0187453013"><ele>1503.16</ele><time>2026-08-09T09:48:27Z</time></trkpt><trkpt lat="40.7551581413" lon="-4.0187333152"><ele>1502.68</ele><time>2026-08-09T09:48:29Z</time></trkpt><trkpt lat="40.7551352587" lon="-4.0187294595"><ele>1502.68</ele><time>2026-08-09T09:48:30Z</time></trkpt><trkpt lat="40.7551138010" lon="-4.0187173896"><ele>1502.20</ele><time>2026-08-09T09:48:31Z</time></trkpt><trkpt lat="40.7550935168" lon="-4.0187061578"><ele>1502.20</ele><time>2026-08-09T09:48:32Z</time></trkpt><trkpt lat="40.7550446503" lon="-4.0186831914"><ele>1501.72</ele><time>2026-08-09T09:48:36Z</time></trkpt><trkpt lat="40.7550221030" lon="-4.0186740551"><ele>1501.24</ele><time>2026-08-09T09:48:37Z</time></trkpt><trkpt lat="40.7549999747" lon="-4.0186639968"><ele>1501.24</ele><time>2026-08-09T09:48:38Z</time></trkpt><trkpt lat="40.7549756672" lon="-4.0186544415"><ele>1501.24</ele><time>2026-08-09T09:48:39Z</time></trkpt><trkpt lat="40.7549483422" lon="-4.0186391864"><ele>1500.27</ele><time>2026-08-09T09:48:40Z</time></trkpt><trkpt lat="40.7549244538" lon="-4.0186263621"><ele>1499.79</ele><time>2026-08-09T09:48:41Z</time></trkpt><trkpt lat="40.7548935246" lon="-4.0186186507"><ele>1499.31</ele><time>2026-08-09T09:48:42Z</time></trkpt><trkpt lat="40.7548622601" lon="-4.0186126996"><ele>1499.31</ele><time>2026-08-09T09:48:43Z</time></trkpt><trkpt lat="40.7547926903" lon="-4.0185762383"><ele>1497.87</ele><time>2026-08-09T09:48:46Z</time></trkpt><trkpt lat="40.7547825482" lon="-4.0185584687"><ele>1497.39</ele><time>2026-08-09T09:48:47Z</time></trkpt><trkpt lat="40.7547715679" lon="-4.0185415372"><ele>1497.87</ele><time>2026-08-09T09:48:48Z</time></trkpt><trkpt lat="40.7546187658" lon="-4.0183455683"><ele>1497.87</ele><time>2026-08-09T09:49:00Z</time></trkpt><trkpt lat="40.7545901835" lon="-4.0183259547"><ele>1497.87</ele><time>2026-08-09T09:49:03Z</time></trkpt><trkpt lat="40.7545197755" lon="-4.0182651859"><ele>1498.83</ele><time>2026-08-09T09:49:07Z</time></trkpt><trkpt lat="40.7544978987" lon="-4.0182475839"><ele>1498.83</ele><time>2026-08-09T09:49:08Z</time></trkpt><trkpt lat="40.7543807197" lon="-4.0181278065"><ele>1498.83</ele><time>2026-08-09T09:49:13Z</time></trkpt><trkpt lat="40.7543580048" lon="-4.0181106236"><ele>1498.83</ele><time>2026-08-09T09:49:14Z</time></trkpt><trkpt lat="40.7543383073" lon="-4.0180941951"><ele>1498.83</ele><time>2026-08-09T09:49:15Z</time></trkpt><trkpt lat="40.7543222141" lon="-4.0180815384"><ele>1498.83</ele><time>2026-08-09T09:49:16Z</time></trkpt><trkpt lat="40.7543052826" lon="-4.0180788562"><ele>1498.83</ele><time>2026-08-09T09:49:17Z</time></trkpt><trkpt lat="40.7542876806" lon="-4.0180807002"><ele>1498.83</ele><time>2026-08-09T09:49:18Z</time></trkpt><trkpt lat="40.7542663906" lon="-4.0180750843"><ele>1498.83</ele><time>2026-08-09T09:49:19Z</time></trkpt><trkpt lat="40.7542364672" lon="-4.0180641040"><ele>1498.83</ele><time>2026-08-09T09:49:20Z</time></trkpt><trkpt lat="40.7542046998" lon="-4.0180509444"><ele>1498.83</ele><time>2026-08-09T09:49:21Z</time></trkpt><trkpt lat="40.7541703340" lon="-4.0180312470"><ele>1498.83</ele><time>2026-08-09T09:49:22Z</time></trkpt><trkpt lat="40.7541324478" lon="-4.0180104598"><ele>1498.83</ele><time>2026-08-09T09:49:23Z</time></trkpt><trkpt lat="40.7540926337" lon="-4.0179899242"><ele>1498.83</ele><time>2026-08-09T09:49:24Z</time></trkpt><trkpt lat="40.7540520653" lon="-4.0179677960"><ele>1498.83</ele><time>2026-08-09T09:49:25Z</time></trkpt><trkpt lat="40.7540126704" lon="-4.0179474279"><ele>1498.83</ele><time>2026-08-09T09:49:26Z</time></trkpt><trkpt lat="40.7538477145" lon="-4.0179007407"><ele>1496.91</ele><time>2026-08-09T09:49:30Z</time></trkpt><trkpt lat="40.7537946571" lon="-4.0178937837"><ele>1496.91</ele><time>2026-08-09T09:49:31Z</time></trkpt><trkpt lat="40.7537382469" lon="-4.0178680513"><ele>1495.47</ele><time>2026-08-09T09:49:32Z</time></trkpt><trkpt lat="40.7536876202" lon="-4.0178344399"><ele>1494.99</ele><time>2026-08-09T09:49:33Z</time></trkpt><trkpt lat="40.7536530029" lon="-4.0178150777"><ele>1494.51</ele><time>2026-08-09T09:49:34Z</time></trkpt><trkpt lat="40.7536127698" lon="-4.0177991521"><ele>1493.55</ele><time>2026-08-09T09:49:35Z</time></trkpt><trkpt lat="40.7535746321" lon="-4.0177999064"><ele>1493.55</ele><time>2026-08-09T09:49:36Z</time></trkpt><trkpt lat="40.7535335608" lon="-4.0178065281"><ele>1492.10</ele><time>2026-08-09T09:49:37Z</time></trkpt><trkpt lat="40.7534783240" lon="-4.0178120602"><ele>1492.10</ele><time>2026-08-09T09:49:38Z</time></trkpt><trkpt lat="40.7534157112" lon="-4.0178032592"><ele>1490.18</ele><time>2026-08-09T09:49:39Z</time></trkpt><trkpt lat="40.7533648331" lon="-4.0177924465"><ele>1490.18</ele><time>2026-08-09T09:49:40Z</time></trkpt><trkpt lat="40.7533166371" lon="-4.0177743416"><ele>1489.70</ele><time>2026-08-09T09:49:41Z</time></trkpt><trkpt lat="40.7532781642" lon="-4.0177566558"><ele>1488.26</ele><time>2026-08-09T09:49:42Z</time></trkpt><trkpt lat="40.7532559521" lon="-4.0177511238"><ele>1488.26</ele><time>2026-08-09T09:49:43Z</time></trkpt><trkpt lat="40.7532334886" lon="-4.0177468490"><ele>1488.26</ele><time>2026-08-09T09:49:44Z</time></trkpt><trkpt lat="40.7532132044" lon="-4.0177469328"><ele>1487.78</ele><time>2026-08-09T09:49:45Z</time></trkpt><trkpt lat="40.7530778367" lon="-4.0177507047"><ele>1485.37</ele><time>2026-08-09T09:49:58Z</time></trkpt><trkpt lat="40.7530358434" lon="-4.0177572425"><ele>1485.37</ele><time>2026-08-09T09:50:02Z</time></trkpt><trkpt lat="40.7530183252" lon="-4.0177622717"><ele>1485.37</ele><time>2026-08-09T09:50:03Z</time></trkpt><trkpt lat="40.7529998012" lon="-4.0177645348"><ele>1485.37</ele><time>2026-08-09T09:50:04Z</time></trkpt><trkpt lat="40.7529807743" lon="-4.0177643672"><ele>1484.89</ele><time>2026-08-09T09:50:05Z</time></trkpt><trkpt lat="40.7529608253" lon="-4.0177601762"><ele>1484.89</ele><time>2026-08-09T09:50:06Z</time></trkpt><trkpt lat="40.7529423852" lon="-4.0177569073"><ele>1484.89</ele><time>2026-08-09T09:50:07Z</time></trkpt><trkpt lat="40.7529240288" lon="-4.0177521296"><ele>1484.41</ele><time>2026-08-09T09:50:08Z</time></trkpt><trkpt lat="40.7529045828" lon="-4.0177428257"><ele>1484.41</ele><time>2026-08-09T09:50:09Z</time></trkpt><trkpt lat="40.7528841309" lon="-4.0177317616"><ele>1484.41</ele><time>2026-08-09T09:50:10Z</time></trkpt><trkpt lat="40.7528625056" lon="-4.0177235473"><ele>1484.41</ele><time>2026-08-09T09:50:11Z</time></trkpt><trkpt lat="40.7528390363" lon="-4.0177161712"><ele>1484.41</ele><time>2026-08-09T09:50:12Z</time></trkpt><trkpt lat="40.7528152317" lon="-4.0177009162"><ele>1483.93</ele><time>2026-08-09T09:50:13Z</time></trkpt><trkpt lat="40.7527948637" lon="-4.0176920313"><ele>1483.93</ele><time>2026-08-09T09:50:14Z</time></trkpt><trkpt lat="40.7527718972" lon="-4.0176888462"><ele>1483.93</ele><time>2026-08-09T09:50:15Z</time></trkpt><trkpt lat="40.7527453266" lon="-4.0176922828"><ele>1483.93</ele><time>2026-08-09T09:50:16Z</time></trkpt><trkpt lat="40.7526487671" lon="-4.0177111421"><ele>1481.53</ele><time>2026-08-09T09:50:20Z</time></trkpt><trkpt lat="40.7526113000" lon="-4.0177103877"><ele>1480.09</ele><time>2026-08-09T09:50:21Z</time></trkpt><trkpt lat="40.7525618467" lon="-4.0177078731"><ele>1480.09</ele><time>2026-08-09T09:50:22Z</time></trkpt><trkpt lat="40.7524956297" lon="-4.0176926181"><ele>1479.13</ele><time>2026-08-09T09:50:24Z</time></trkpt><trkpt lat="40.7524712384" lon="-4.0176745970"><ele>1478.65</ele><time>2026-08-09T09:50:25Z</time></trkpt><trkpt lat="40.7524441648" lon="-4.0176574141"><ele>1478.65</ele><time>2026-08-09T09:50:26Z</time></trkpt><trkpt lat="40.7524186838" lon="-4.0176481102"><ele>1478.65</ele><time>2026-08-09T09:50:27Z</time></trkpt><trkpt lat="40.7523903530" lon="-4.0176413208"><ele>1477.68</ele><time>2026-08-09T09:50:28Z</time></trkpt><trkpt lat="40.7523602620" lon="-4.0176279936"><ele>1478.16</ele><time>2026-08-09T09:50:29Z</time></trkpt><trkpt lat="40.7523359545" lon="-4.0176102240"><ele>1477.68</ele><time>2026-08-09T09:50:30Z</time></trkpt><trkpt lat="40.7523143291" lon="-4.0175861679"><ele>1477.68</ele><time>2026-08-09T09:50:31Z</time></trkpt><trkpt lat="40.7522906084" lon="-4.0175679792"><ele>1477.68</ele><time>2026-08-09T09:50:32Z</time></trkpt><trkpt lat="40.7521414105" lon="-4.0174956433"><ele>1474.32</ele><time>2026-08-09T09:50:38Z</time></trkpt><trkpt lat="40.7521154266" lon="-4.0174799692"><ele>1474.32</ele><time>2026-08-09T09:50:39Z</time></trkpt><trkpt lat="40.7520684041" lon="-4.0174192842"><ele>1471.44</ele><time>2026-08-09T09:50:43Z</time></trkpt><trkpt lat="40.7520609442" lon="-4.0174000058"><ele>1471.44</ele><time>2026-08-09T09:50:44Z</time></trkpt><trkpt lat="40.7520525623" lon="-4.0173764527"><ele>1470.47</ele><time>2026-08-09T09:50:45Z</time></trkpt><trkpt lat="40.7520425040" lon="-4.0173539892"><ele>1470.47</ele><time>2026-08-09T09:50:46Z</time></trkpt><trkpt lat="40.7520075515" lon="-4.0172495507"><ele>1469.03</ele><time>2026-08-09T09:50:59Z</time></trkpt><trkpt lat="40.7519750297" lon="-4.0171842556"><ele>1468.55</ele><time>2026-08-09T09:51:17Z</time></trkpt><trkpt lat="40.7520155143" lon="-4.0170420147"><ele>1470.47</ele><time>2026-08-09T09:51:34Z</time></trkpt><trkpt lat="40.7519781310" lon="-4.0170033742"><ele>1469.03</ele><time>2026-08-09T09:51:57Z</time></trkpt><trkpt lat="40.7519223075" lon="-4.0170259215"><ele>1465.67</ele><time>2026-08-09T09:52:04Z</time></trkpt><trkpt lat="40.7519050408" lon="-4.0170347225"><ele>1465.19</ele><time>2026-08-09T09:52:05Z</time></trkpt><trkpt lat="40.7518841699" lon="-4.0170409251"><ele>1464.71</ele><time>2026-08-09T09:52:06Z</time></trkpt><trkpt lat="40.7518677413" lon="-4.0170348063"><ele>1464.71</ele><time>2026-08-09T09:52:07Z</time></trkpt><trkpt lat="40.7518550009" lon="-4.0170232393"><ele>1464.23</ele><time>2026-08-09T09:52:08Z</time></trkpt><trkpt lat="40.7518444397" lon="-4.0170036256"><ele>1464.23</ele><time>2026-08-09T09:52:23Z</time></trkpt><trkpt lat="40.7518829126" lon="-4.0170151927"><ele>1463.74</ele><time>2026-08-09T09:52:58Z</time></trkpt><trkpt lat="40.7519021071" lon="-4.0170286037"><ele>1464.23</ele><time>2026-08-09T09:53:32Z</time></trkpt><trkpt lat="40.7519339584" lon="-4.0170413442"><ele>1464.71</ele><time>2026-08-09T09:54:07Z</time></trkpt><trkpt lat="40.7519166917" lon="-4.0170354769"><ele>1464.23</ele><time>2026-08-09T09:54:37Z</time></trkpt><trkpt lat="40.7518694177" lon="-4.0170464572"><ele>1464.71</ele><time>2026-08-09T09:55:07Z</time></trkpt><trkpt lat="40.7518446911" lon="-4.0170150250"><ele>1466.15</ele><time>2026-08-09T09:55:09Z</time></trkpt><trkpt lat="40.7516036276" lon="-4.0168900508"><ele>1468.55</ele><time>2026-08-09T09:55:21Z</time></trkpt><trkpt lat="40.7512500789" lon="-4.0167675074"><ele>1470.47</ele><time>2026-08-09T09:55:34Z</time></trkpt><trkpt lat="40.7511020545" lon="-4.0167286992"><ele>1470.47</ele><time>2026-08-09T09:55:38Z</time></trkpt><trkpt lat="40.7510487456" lon="-4.0167264361"><ele>1470.47</ele><time>2026-08-09T09:55:39Z</time></trkpt><trkpt lat="40.7509894017" lon="-4.0167309623"><ele>1468.55</ele><time>2026-08-09T09:55:40Z</time></trkpt><trkpt lat="40.7508909144" lon="-4.0167332254"><ele>1467.59</ele><time>2026-08-09T09:55:42Z</time></trkpt><trkpt lat="40.7507853024" lon="-4.0167281963"><ele>1466.63</ele><time>2026-08-09T09:55:44Z</time></trkpt><trkpt lat="40.7507451531" lon="-4.0167221613"><ele>1466.15</ele><time>2026-08-09T09:55:45Z</time></trkpt><trkpt lat="40.7507171575" lon="-4.0167253464"><ele>1466.15</ele><time>2026-08-09T09:55:46Z</time></trkpt><trkpt lat="40.7506949455" lon="-4.0167328063"><ele>1466.15</ele><time>2026-08-09T09:55:47Z</time></trkpt><trkpt lat="40.7506725658" lon="-4.0167488158"><ele>1466.15</ele><time>2026-08-09T09:55:48Z</time></trkpt><trkpt lat="40.7505882438" lon="-4.0168642346"><ele>1462.30</ele><time>2026-08-09T09:55:51Z</time></trkpt><trkpt lat="40.7505565602" lon="-4.0169072337"><ele>1462.30</ele><time>2026-08-09T09:55:52Z</time></trkpt><trkpt lat="40.7505373657" lon="-4.0169375762"><ele>1461.34</ele><time>2026-08-09T09:55:53Z</time></trkpt><trkpt lat="40.7505105436" lon="-4.0169744566"><ele>1460.86</ele><time>2026-08-09T09:55:54Z</time></trkpt><trkpt lat="40.7504428178" lon="-4.0170451999"><ele>1459.42</ele><time>2026-08-09T09:56:03Z</time></trkpt><trkpt lat="40.7504355256" lon="-4.0170678310"><ele>1459.42</ele><time>2026-08-09T09:56:27Z</time></trkpt><trkpt lat="40.7504190970" lon="-4.0170683339"><ele>1459.42</ele><time>2026-08-09T09:56:37Z</time></trkpt><trkpt lat="40.7502573263" lon="-4.0171030350"><ele>1458.94</ele><time>2026-08-09T09:56:44Z</time></trkpt><trkpt lat="40.7500820607" lon="-4.0171097405"><ele>1458.94</ele><time>2026-08-09T09:56:49Z</time></trkpt><trkpt lat="40.7499109861" lon="-4.0172342118"><ele>1457.98</ele><time>2026-08-09T09:56:58Z</time></trkpt><trkpt lat="40.7498953957" lon="-4.0172787197"><ele>1457.98</ele><time>2026-08-09T09:57:11Z</time></trkpt><trkpt lat="40.7497490477" lon="-4.0174588468"><ele>1456.05</ele><time>2026-08-09T09:57:17Z</time></trkpt><trkpt lat="40.7494871132" lon="-4.0176792908"><ele>1455.57</ele><time>2026-08-09T09:57:27Z</time></trkpt><trkpt lat="40.7494476344" lon="-4.0178179275"><ele>1454.61</ele><time>2026-08-09T09:57:30Z</time></trkpt><trkpt lat="40.7493813336" lon="-4.0179768484"><ele>1453.65</ele><time>2026-08-09T09:57:33Z</time></trkpt><trkpt lat="40.7493468001" lon="-4.0180274751"><ele>1453.17</ele><time>2026-08-09T09:57:34Z</time></trkpt><trkpt lat="40.7493127696" lon="-4.0180800296"><ele>1453.17</ele><time>2026-08-09T09:57:35Z</time></trkpt><trkpt lat="40.7492895517" lon="-4.0181294829"><ele>1452.21</ele><time>2026-08-09T09:57:36Z</time></trkpt><trkpt lat="40.7492723688" lon="-4.0181708056"><ele>1452.21</ele><time>2026-08-09T09:57:37Z</time></trkpt><trkpt lat="40.7491684332" lon="-4.0183020663"><ele>1449.32</ele><time>2026-08-09T09:57:46Z</time></trkpt><trkpt lat="40.7491544355" lon="-4.0183081012"><ele>1449.32</ele><time>2026-08-09T09:57:47Z</time></trkpt><trkpt lat="40.7491363306" lon="-4.0183151420"><ele>1449.32</ele><time>2026-08-09T09:57:48Z</time></trkpt><trkpt lat="40.7491179742" lon="-4.0183309838"><ele>1449.32</ele><time>2026-08-09T09:57:49Z</time></trkpt><trkpt lat="40.7491131127" lon="-4.0183531959"><ele>1449.32</ele><time>2026-08-09T09:57:50Z</time></trkpt><trkpt lat="40.7491129451" lon="-4.0183799341"><ele>1449.32</ele><time>2026-08-09T09:57:51Z</time></trkpt><trkpt lat="40.7491108496" lon="-4.0184061695"><ele>1449.32</ele><time>2026-08-09T09:57:52Z</time></trkpt><trkpt lat="40.7490678504" lon="-4.0184834506"><ele>1449.32</ele><time>2026-08-09T09:57:57Z</time></trkpt><trkpt lat="40.7489584666" lon="-4.0186941717"><ele>1448.36</ele><time>2026-08-09T09:58:03Z</time></trkpt><trkpt lat="40.7489322312" lon="-4.0187430382"><ele>1448.36</ele><time>2026-08-09T09:58:04Z</time></trkpt><trkpt lat="40.7486455701" lon="-4.0190918092"><ele>1446.44</ele><time>2026-08-09T09:58:14Z</time></trkpt><trkpt lat="40.7484136429" lon="-4.0193363931"><ele>1444.52</ele><time>2026-08-09T09:58:24Z</time></trkpt><trkpt lat="40.7482993137" lon="-4.0194062144"><ele>1443.08</ele><time>2026-08-09T09:58:28Z</time></trkpt><trkpt lat="40.7482811250" lon="-4.0194301028"><ele>1443.08</ele><time>2026-08-09T09:58:29Z</time></trkpt><trkpt lat="40.7480938733" lon="-4.0198079590"><ele>1440.19</ele><time>2026-08-09T09:58:39Z</time></trkpt><trkpt lat="40.7480002474" lon="-4.0199440811"><ele>1439.23</ele><time>2026-08-09T09:58:42Z</time></trkpt><trkpt lat="40.7479664683" lon="-4.0199804585"><ele>1439.23</ele><time>2026-08-09T09:58:43Z</time></trkpt><trkpt lat="40.7477615308" lon="-4.0202698018"><ele>1435.87</ele><time>2026-08-09T09:58:51Z</time></trkpt><trkpt lat="40.7477099821" lon="-4.0203287266"><ele>1434.91</ele><time>2026-08-09T09:58:53Z</time></trkpt><trkpt lat="40.7475627959" lon="-4.0205025673"><ele>1432.98</ele><time>2026-08-09T09:58:59Z</time></trkpt><trkpt lat="40.7475294359" lon="-4.0205417946"><ele>1432.98</ele><time>2026-08-09T09:59:00Z</time></trkpt><trkpt lat="40.7475080620" lon="-4.0205843747"><ele>1432.50</ele><time>2026-08-09T09:59:01Z</time></trkpt><trkpt lat="40.7474858500" lon="-4.0206200816"><ele>1432.50</ele><time>2026-08-09T09:59:02Z</time></trkpt><trkpt lat="40.7474591956" lon="-4.0206488315"><ele>1432.50</ele><time>2026-08-09T09:59:03Z</time></trkpt><trkpt lat="40.7474331278" lon="-4.0206752345"><ele>1432.50</ele><time>2026-08-09T09:59:04Z</time></trkpt><trkpt lat="40.7474063057" lon="-4.0207007993"><ele>1432.50</ele><time>2026-08-09T09:59:05Z</time></trkpt><trkpt lat="40.7473066449" lon="-4.0208353288"><ele>1430.58</ele><time>2026-08-09T09:59:10Z</time></trkpt><trkpt lat="40.7471475564" lon="-4.0210245084"><ele>1428.66</ele><time>2026-08-09T09:59:17Z</time></trkpt><trkpt lat="40.7469418645" lon="-4.0212318767"><ele>1427.21</ele><time>2026-08-09T09:59:23Z</time></trkpt><trkpt lat="40.7468385156" lon="-4.0213399194"><ele>1426.25</ele><time>2026-08-09T09:59:28Z</time></trkpt><trkpt lat="40.7468069158" lon="-4.0213947371"><ele>1424.81</ele><time>2026-08-09T09:59:30Z</time></trkpt><trkpt lat="40.7467841171" lon="-4.0214166138"><ele>1424.81</ele><time>2026-08-09T09:59:31Z</time></trkpt><trkpt lat="40.7467648387" lon="-4.0214389935"><ele>1424.81</ele><time>2026-08-09T09:59:32Z</time></trkpt><trkpt lat="40.7467463985" lon="-4.0214615408"><ele>1424.33</ele><time>2026-08-09T09:59:33Z</time></trkpt><trkpt lat="40.7467220910" lon="-4.0214855969"><ele>1423.85</ele><time>2026-08-09T09:59:34Z</time></trkpt><trkpt lat="40.7465806883" lon="-4.0216061287"><ele>1423.37</ele><time>2026-08-09T09:59:39Z</time></trkpt><trkpt lat="40.7465570513" lon="-4.0216379799"><ele>1423.37</ele><time>2026-08-09T09:59:40Z</time></trkpt><trkpt lat="40.7465292234" lon="-4.0216736030"><ele>1422.41</ele><time>2026-08-09T09:59:41Z</time></trkpt><trkpt lat="40.7465032395" lon="-4.0216990840"><ele>1422.41</ele><time>2026-08-09T09:59:42Z</time></trkpt><trkpt lat="40.7464650180" lon="-4.0217324439"><ele>1422.41</ele><time>2026-08-09T09:59:43Z</time></trkpt><trkpt lat="40.7464343403" lon="-4.0217589308"><ele>1421.93</ele><time>2026-08-09T09:59:44Z</time></trkpt><trkpt lat="40.7461571507" lon="-4.0220631100"><ele>1420.49</ele><time>2026-08-09T09:59:53Z</time></trkpt><trkpt lat="40.7461231202" lon="-4.0221003257"><ele>1419.52</ele><time>2026-08-09T09:59:54Z</time></trkpt><trkpt lat="40.7460217830" lon="-4.0222337656"><ele>1418.08</ele><time>2026-08-09T09:59:58Z</time></trkpt><trkpt lat="40.7459537219" lon="-4.0223380364"><ele>1417.12</ele><time>2026-08-09T10:00:02Z</time></trkpt><trkpt lat="40.7459333539" lon="-4.0223595779"><ele>1416.16</ele><time>2026-08-09T10:00:03Z</time></trkpt><trkpt lat="40.7456425857" lon="-4.0227044933"><ele>1414.24</ele><time>2026-08-09T10:00:14Z</time></trkpt><trkpt lat="40.7456137519" lon="-4.0227432176"><ele>1413.76</ele><time>2026-08-09T10:00:15Z</time></trkpt><trkpt lat="40.7454425097" lon="-4.0229209978"><ele>1410.87</ele><time>2026-08-09T10:00:20Z</time></trkpt><trkpt lat="40.7454013545" lon="-4.0229515079"><ele>1409.91</ele><time>2026-08-09T10:00:21Z</time></trkpt><trkpt lat="40.7453503925" lon="-4.0229913220"><ele>1409.91</ele><time>2026-08-09T10:00:22Z</time></trkpt><trkpt lat="40.7453078125" lon="-4.0230376739"><ele>1409.43</ele><time>2026-08-09T10:00:23Z</time></trkpt><trkpt lat="40.7452791464" lon="-4.0230815951"><ele>1408.95</ele><time>2026-08-09T10:00:24Z</time></trkpt><trkpt lat="40.7452643942" lon="-4.0231113508"><ele>1407.99</ele><time>2026-08-09T10:00:25Z</time></trkpt><trkpt lat="40.7452429365" lon="-4.0231462196"><ele>1407.99</ele><time>2026-08-09T10:00:28Z</time></trkpt><trkpt lat="40.7450267673" lon="-4.0232700203"><ele>1407.03</ele><time>2026-08-09T10:00:38Z</time></trkpt><trkpt lat="40.7449815888" lon="-4.0232874546"><ele>1407.03</ele><time>2026-08-09T10:00:39Z</time></trkpt><trkpt lat="40.7449443731" lon="-4.0233024582"><ele>1407.03</ele><time>2026-08-09T10:00:40Z</time></trkpt><trkpt lat="40.7449105103" lon="-4.0233161207"><ele>1407.03</ele><time>2026-08-09T10:00:41Z</time></trkpt><trkpt lat="40.7448764797" lon="-4.0233282745"><ele>1407.03</ele><time>2026-08-09T10:00:42Z</time></trkpt><trkpt lat="40.7448405214" lon="-4.0233432781"><ele>1406.07</ele><time>2026-08-09T10:00:43Z</time></trkpt><trkpt lat="40.7448009588" lon="-4.0233567730"><ele>1405.58</ele><time>2026-08-09T10:00:44Z</time></trkpt><trkpt lat="40.7444454823" lon="-4.0234720241"><ele>1403.18</ele><time>2026-08-09T10:00:53Z</time></trkpt><trkpt lat="40.7442723121" lon="-4.0236021951"><ele>1401.26</ele><time>2026-08-09T10:00:58Z</time></trkpt><trkpt lat="40.7442106213" lon="-4.0236405004"><ele>1401.26</ele><time>2026-08-09T10:01:00Z</time></trkpt><trkpt lat="40.7441946119" lon="-4.0236644726"><ele>1400.30</ele><time>2026-08-09T10:01:01Z</time></trkpt><trkpt lat="40.7441769261" lon="-4.0236888640"><ele>1400.30</ele><time>2026-08-09T10:01:02Z</time></trkpt><trkpt lat="40.7441548817" lon="-4.0237077232"><ele>1399.82</ele><time>2026-08-09T10:01:03Z</time></trkpt><trkpt lat="40.7441306580" lon="-4.0237221401"><ele>1399.82</ele><time>2026-08-09T10:01:04Z</time></trkpt><trkpt lat="40.7440460008" lon="-4.0237833280"><ele>1398.86</ele><time>2026-08-09T10:01:09Z</time></trkpt><trkpt lat="40.7440176699" lon="-4.0237934701"><ele>1398.37</ele><time>2026-08-09T10:01:10Z</time></trkpt><trkpt lat="40.7439909317" lon="-4.0238017682"><ele>1398.37</ele><time>2026-08-09T10:01:11Z</time></trkpt><trkpt lat="40.7439606730" lon="-4.0238147601"><ele>1398.37</ele><time>2026-08-09T10:01:12Z</time></trkpt><trkpt lat="40.7439258881" lon="-4.0238207113"><ele>1398.37</ele><time>2026-08-09T10:01:13Z</time></trkpt><trkpt lat="40.7438911870" lon="-4.0238209628"><ele>1398.37</ele><time>2026-08-09T10:01:14Z</time></trkpt><trkpt lat="40.7438585814" lon="-4.0238286741"><ele>1398.37</ele><time>2026-08-09T10:01:15Z</time></trkpt><trkpt lat="40.7438268140" lon="-4.0238468628"><ele>1398.37</ele><time>2026-08-09T10:01:16Z</time></trkpt><trkpt lat="40.7435078826" lon="-4.0239724237"><ele>1398.37</ele><time>2026-08-09T10:01:26Z</time></trkpt><trkpt lat="40.7432198804" lon="-4.0240513813"><ele>1395.97</ele><time>2026-08-09T10:01:35Z</time></trkpt><trkpt lat="40.7428626437" lon="-4.0241814684"><ele>1394.05</ele><time>2026-08-09T10:01:46Z</time></trkpt><trkpt lat="40.7427935768" lon="-4.0241978131"><ele>1394.05</ele><time>2026-08-09T10:01:48Z</time></trkpt><trkpt lat="40.7427467220" lon="-4.0242118947"><ele>1394.05</ele><time>2026-08-09T10:01:49Z</time></trkpt><trkpt lat="40.7426992804" lon="-4.0242381301"><ele>1394.05</ele><time>2026-08-09T10:01:50Z</time></trkpt><trkpt lat="40.7426557783" lon="-4.0242675506"><ele>1394.05</ele><time>2026-08-09T10:01:51Z</time></trkpt><trkpt lat="40.7426178921" lon="-4.0242911875"><ele>1393.09</ele><time>2026-08-09T10:01:52Z</time></trkpt><trkpt lat="40.7425443828" lon="-4.0243424010"><ele>1392.13</ele><time>2026-08-09T10:01:54Z</time></trkpt><trkpt lat="40.7423005532" lon="-4.0245664492"><ele>1391.17</ele><time>2026-08-09T10:02:01Z</time></trkpt><trkpt lat="40.7422251999" lon="-4.0246529505"><ele>1390.20</ele><time>2026-08-09T10:02:03Z</time></trkpt><trkpt lat="40.7421870623" lon="-4.0246927645"><ele>1390.20</ele><time>2026-08-09T10:02:04Z</time></trkpt><trkpt lat="40.7421497628" lon="-4.0247303154"><ele>1390.20</ele><time>2026-08-09T10:02:05Z</time></trkpt><trkpt lat="40.7421103679" lon="-4.0247702133"><ele>1389.72</ele><time>2026-08-09T10:02:06Z</time></trkpt><trkpt lat="40.7420696318" lon="-4.0248095244"><ele>1389.72</ele><time>2026-08-09T10:02:07Z</time></trkpt><trkpt lat="40.7420324162" lon="-4.0248473268"><ele>1388.76</ele><time>2026-08-09T10:02:08Z</time></trkpt><trkpt lat="40.7419985533" lon="-4.0248827823"><ele>1388.76</ele><time>2026-08-09T10:02:09Z</time></trkpt><trkpt lat="40.7419695519" lon="-4.0249189083"><ele>1388.76</ele><time>2026-08-09T10:02:10Z</time></trkpt><trkpt lat="40.7419401314" lon="-4.0249511786"><ele>1388.28</ele><time>2026-08-09T10:02:11Z</time></trkpt><trkpt lat="40.7416178472" lon="-4.0252481494"><ele>1387.32</ele><time>2026-08-09T10:02:22Z</time></trkpt><trkpt lat="40.7415795419" lon="-4.0252813417"><ele>1386.36</ele><time>2026-08-09T10:02:23Z</time></trkpt><trkpt lat="40.7415434159" lon="-4.0253092535"><ele>1386.36</ele><time>2026-08-09T10:02:24Z</time></trkpt><trkpt lat="40.7412979938" lon="-4.0255274344"><ele>1385.40</ele><time>2026-08-09T10:02:32Z</time></trkpt><trkpt lat="40.7412744407" lon="-4.0255620517"><ele>1384.92</ele><time>2026-08-09T10:02:33Z</time></trkpt><trkpt lat="40.7412435114" lon="-4.0255999379"><ele>1383.96</ele><time>2026-08-09T10:02:34Z</time></trkpt><trkpt lat="40.7412071340" lon="-4.0256346390"><ele>1383.96</ele><time>2026-08-09T10:02:35Z</time></trkpt><trkpt lat="40.7411683258" lon="-4.0256623831"><ele>1383.96</ele><time>2026-08-09T10:02:36Z</time></trkpt><trkpt lat="40.7411332894" lon="-4.0256814938"><ele>1383.96</ele><time>2026-08-09T10:02:37Z</time></trkpt><trkpt lat="40.7411012705" lon="-4.0256992634"><ele>1383.47</ele><time>2026-08-09T10:02:38Z</time></trkpt><trkpt lat="40.7410725206" lon="-4.0257220622"><ele>1383.47</ele><time>2026-08-09T10:02:39Z</time></trkpt><trkpt lat="40.7410419267" lon="-4.0257487167"><ele>1383.47</ele><time>2026-08-09T10:02:40Z</time></trkpt><trkpt lat="40.7410060521" lon="-4.0257718507"><ele>1383.47</ele><time>2026-08-09T10:02:41Z</time></trkpt><trkpt lat="40.7409643102" lon="-4.0257888660"><ele>1383.47</ele><time>2026-08-09T10:02:42Z</time></trkpt><trkpt lat="40.7406429481" lon="-4.0259513073"><ele>1381.55</ele><time>2026-08-09T10:02:51Z</time></trkpt><trkpt lat="40.7406308781" lon="-4.0259772912"><ele>1380.59</ele><time>2026-08-09T10:02:52Z</time></trkpt><trkpt lat="40.7406245079" lon="-4.0259979106"><ele>1380.11</ele><time>2026-08-09T10:02:53Z</time></trkpt><trkpt lat="40.7406020444" lon="-4.0260260738"><ele>1380.11</ele><time>2026-08-09T10:02:54Z</time></trkpt><trkpt lat="40.7405643258" lon="-4.0260455199"><ele>1379.63</ele><time>2026-08-09T10:02:55Z</time></trkpt><trkpt lat="40.7405240927" lon="-4.0260590147"><ele>1379.15</ele><time>2026-08-09T10:02:56Z</time></trkpt><trkpt lat="40.7403386850" lon="-4.0261856653"><ele>1376.26</ele><time>2026-08-09T10:03:02Z</time></trkpt><trkpt lat="40.7401563786" lon="-4.0263080411"><ele>1373.38</ele><time>2026-08-09T10:03:10Z</time></trkpt><trkpt lat="40.7401365135" lon="-4.0263206139"><ele>1373.38</ele><time>2026-08-09T10:03:11Z</time></trkpt><trkpt lat="40.7399537042" lon="-4.0264750924"><ele>1370.02</ele><time>2026-08-09T10:03:17Z</time></trkpt><trkpt lat="40.7397397142" lon="-4.0265993960"><ele>1367.13</ele><time>2026-08-09T10:03:24Z</time></trkpt><trkpt lat="40.7396759279" lon="-4.0266256314"><ele>1365.69</ele><time>2026-08-09T10:03:26Z</time></trkpt><trkpt lat="40.7396399695" lon="-4.0266233683"><ele>1365.69</ele><time>2026-08-09T10:03:27Z</time></trkpt><trkpt lat="40.7396023348" lon="-4.0266229492"><ele>1365.69</ele><time>2026-08-09T10:03:28Z</time></trkpt><trkpt lat="40.7395584974" lon="-4.0266291518"><ele>1365.21</ele><time>2026-08-09T10:03:29Z</time></trkpt><trkpt lat="40.7395089604" lon="-4.0266346838"><ele>1365.21</ele><time>2026-08-09T10:03:30Z</time></trkpt><trkpt lat="40.7394617703" lon="-4.0266297385"><ele>1363.77</ele><time>2026-08-09T10:03:31Z</time></trkpt><trkpt lat="40.7394166756" lon="-4.0266205184"><ele>1363.77</ele><time>2026-08-09T10:03:32Z</time></trkpt><trkpt lat="40.7393745147" lon="-4.0266107954"><ele>1363.29</ele><time>2026-08-09T10:03:33Z</time></trkpt><trkpt lat="40.7393370476" lon="-4.0265947860"><ele>1363.29</ele><time>2026-08-09T10:03:34Z</time></trkpt><trkpt lat="40.7392531447" lon="-4.0265472606"><ele>1361.84</ele><time>2026-08-09T10:03:37Z</time></trkpt><trkpt lat="40.7391153462" lon="-4.0265313350"><ele>1358.48</ele><time>2026-08-09T10:03:42Z</time></trkpt><trkpt lat="40.7390800584" lon="-4.0265203547"><ele>1358.48</ele><time>2026-08-09T10:03:43Z</time></trkpt><trkpt lat="40.7389454450" lon="-4.0264501981"><ele>1356.08</ele><time>2026-08-09T10:03:47Z</time></trkpt><trkpt lat="40.7388488855" lon="-4.0263886750"><ele>1355.12</ele><time>2026-08-09T10:03:50Z</time></trkpt><trkpt lat="40.7387835067" lon="-4.0263278224"><ele>1353.67</ele><time>2026-08-09T10:03:52Z</time></trkpt><trkpt lat="40.7385552675" lon="-4.0262243059"><ele>1350.79</ele><time>2026-08-09T10:03:58Z</time></trkpt><trkpt lat="40.7384850271" lon="-4.0261892695"><ele>1349.35</ele><time>2026-08-09T10:04:00Z</time></trkpt><trkpt lat="40.7383199874" lon="-4.0260855015"><ele>1347.43</ele><time>2026-08-09T10:04:05Z</time></trkpt><trkpt lat="40.7381366752" lon="-4.0259762015"><ele>1345.98</ele><time>2026-08-09T10:04:09Z</time></trkpt><trkpt lat="40.7380947657" lon="-4.0259303525"><ele>1345.02</ele><time>2026-08-09T10:04:10Z</time></trkpt><trkpt lat="40.7380583044" lon="-4.0258746129"><ele>1345.02</ele><time>2026-08-09T10:04:11Z</time></trkpt><trkpt lat="40.7376975473" lon="-4.0252085030"><ele>1341.66</ele><time>2026-08-09T10:04:23Z</time></trkpt><trkpt lat="40.7376856450" lon="-4.0251535177"><ele>1341.18</ele><time>2026-08-09T10:04:24Z</time></trkpt><trkpt lat="40.7376741618" lon="-4.0251049027"><ele>1341.66</ele><time>2026-08-09T10:04:25Z</time></trkpt><trkpt lat="40.7376592420" lon="-4.0250629093"><ele>1341.66</ele><time>2026-08-09T10:04:26Z</time></trkpt><trkpt lat="40.7376454119" lon="-4.0250211675"><ele>1341.66</ele><time>2026-08-09T10:04:27Z</time></trkpt><trkpt lat="40.7375576533" lon="-4.0247123782"><ele>1339.73</ele><time>2026-08-09T10:04:33Z</time></trkpt><trkpt lat="40.7375392970" lon="-4.0246601589"><ele>1338.29</ele><time>2026-08-09T10:04:34Z</time></trkpt><trkpt lat="40.7375251316" lon="-4.0246080235"><ele>1338.29</ele><time>2026-08-09T10:04:35Z</time></trkpt><trkpt lat="40.7374969684" lon="-4.0244426485"><ele>1336.85</ele><time>2026-08-09T10:04:38Z</time></trkpt><trkpt lat="40.7374332659" lon="-4.0240212064"><ele>1334.45</ele><time>2026-08-09T10:04:46Z</time></trkpt><trkpt lat="40.7374244649" lon="-4.0239051171"><ele>1333.97</ele><time>2026-08-09T10:04:48Z</time></trkpt><trkpt lat="40.7374265604" lon="-4.0238476172"><ele>1333.49</ele><time>2026-08-09T10:04:49Z</time></trkpt><trkpt lat="40.7374035101" lon="-4.0236280952"><ele>1332.52</ele><time>2026-08-09T10:04:54Z</time></trkpt><trkpt lat="40.7374020014" lon="-4.0235653147"><ele>1331.56</ele><time>2026-08-09T10:04:55Z</time></trkpt><trkpt lat="40.7374068629" lon="-4.0235006902"><ele>1331.56</ele><time>2026-08-09T10:04:56Z</time></trkpt><trkpt lat="40.7374030910" lon="-4.0232699364"><ele>1329.16</ele><time>2026-08-09T10:05:00Z</time></trkpt><trkpt lat="40.7373939548" lon="-4.0232003666"><ele>1329.16</ele><time>2026-08-09T10:05:01Z</time></trkpt><trkpt lat="40.7373781968" lon="-4.0231297910"><ele>1329.16</ele><time>2026-08-09T10:05:02Z</time></trkpt><trkpt lat="40.7373573259" lon="-4.0230579581"><ele>1327.72</ele><time>2026-08-09T10:05:03Z</time></trkpt><trkpt lat="40.7373451721" lon="-4.0229902323"><ele>1326.76</ele><time>2026-08-09T10:05:04Z</time></trkpt><trkpt lat="40.7373415679" lon="-4.0229236800"><ele>1325.80</ele><time>2026-08-09T10:05:05Z</time></trkpt><trkpt lat="40.7373402268" lon="-4.0228711255"><ele>1325.80</ele><time>2026-08-09T10:05:06Z</time></trkpt><trkpt lat="40.7373386342" lon="-4.0228216723"><ele>1326.28</ele><time>2026-08-09T10:05:07Z</time></trkpt><trkpt lat="40.7373322640" lon="-4.0227722190"><ele>1325.80</ele><time>2026-08-09T10:05:08Z</time></trkpt><trkpt lat="40.7373196073" lon="-4.0227128752"><ele>1324.83</ele><time>2026-08-09T10:05:09Z</time></trkpt><trkpt lat="40.7372996584" lon="-4.0226388630"><ele>1324.83</ele><time>2026-08-09T10:05:10Z</time></trkpt><trkpt lat="40.7372730039" lon="-4.0225661919"><ele>1324.35</ele><time>2026-08-09T10:05:11Z</time></trkpt><trkpt lat="40.7372418232" lon="-4.0225070994"><ele>1323.87</ele><time>2026-08-09T10:05:12Z</time></trkpt><trkpt lat="40.7372080442" lon="-4.0224549640"><ele>1323.87</ele><time>2026-08-09T10:05:13Z</time></trkpt><trkpt lat="40.7371073775" lon="-4.0223245416"><ele>1322.91</ele><time>2026-08-09T10:05:21Z</time></trkpt><trkpt lat="40.7371106464" lon="-4.0222978033"><ele>1322.43</ele><time>2026-08-09T10:05:38Z</time></trkpt><trkpt lat="40.7370710839" lon="-4.0222538821"><ele>1322.43</ele><time>2026-08-09T10:06:01Z</time></trkpt><trkpt lat="40.7370682340" lon="-4.0222684667"><ele>1321.95</ele><time>2026-08-09T10:06:31Z</time></trkpt><trkpt lat="40.7370498776" lon="-4.0222676285"><ele>1321.95</ele><time>2026-08-09T10:06:56Z</time></trkpt><trkpt lat="40.7370270789" lon="-4.0222237911"><ele>1321.95</ele><time>2026-08-09T10:07:13Z</time></trkpt><trkpt lat="40.7369627897" lon="-4.0221021697"><ele>1323.39</ele><time>2026-08-09T10:07:19Z</time></trkpt><trkpt lat="40.7368420903" lon="-4.0218574181"><ele>1325.80</ele><time>2026-08-09T10:07:31Z</time></trkpt><trkpt lat="40.7368031982" lon="-4.0216711722"><ele>1328.20</ele><time>2026-08-09T10:07:39Z</time></trkpt><trkpt lat="40.7368064672" lon="-4.0216534864"><ele>1328.68</ele><time>2026-08-09T10:07:40Z</time></trkpt><trkpt lat="40.7368088979" lon="-4.0216347948"><ele>1329.16</ele><time>2026-08-09T10:07:41Z</time></trkpt><trkpt lat="40.7368071377" lon="-4.0216119122"><ele>1329.64</ele><time>2026-08-09T10:07:42Z</time></trkpt><trkpt lat="40.7368035335" lon="-4.0215857606"><ele>1330.12</ele><time>2026-08-09T10:07:43Z</time></trkpt><trkpt lat="40.7367969118" lon="-4.0215607826"><ele>1330.60</ele><time>2026-08-09T10:07:44Z</time></trkpt><trkpt lat="40.7367883623" lon="-4.0215365589"><ele>1330.60</ele><time>2026-08-09T10:07:45Z</time></trkpt><trkpt lat="40.7367803995" lon="-4.0215131734"><ele>1330.60</ele><time>2026-08-09T10:07:46Z</time></trkpt><trkpt lat="40.7367582712" lon="-4.0214746166"><ele>1331.08</ele><time>2026-08-09T10:08:00Z</time></trkpt><trkpt lat="40.7367586903" lon="-4.0214515664"><ele>1331.08</ele><time>2026-08-09T10:08:26Z</time></trkpt><trkpt lat="40.7367727719" lon="-4.0214376524"><ele>1331.08</ele><time>2026-08-09T10:09:02Z</time></trkpt><trkpt lat="40.7367715146" lon="-4.0214348864"><ele>1331.08</ele><time>2026-08-09T10:09:29Z</time></trkpt><trkpt lat="40.7367442735" lon="-4.0214260016"><ele>1330.60</ele><time>2026-08-09T10:10:10Z</time></trkpt><trkpt lat="40.7367215585" lon="-4.0214038733"><ele>1330.60</ele><time>2026-08-09T10:10:43Z</time></trkpt><trkpt lat="40.7367445249" lon="-4.0214370657"><ele>1330.60</ele><time>2026-08-09T10:11:20Z</time></trkpt><trkpt lat="40.7367649768" lon="-4.0214447770"><ele>1330.60</ele><time>2026-08-09T10:12:01Z</time></trkpt><trkpt lat="40.7367510628" lon="-4.0214531589"><ele>1330.60</ele><time>2026-08-09T10:12:42Z</time></trkpt><trkpt lat="40.7367296889" lon="-4.0214433521"><ele>1330.60</ele><time>2026-08-09T10:13:23Z</time></trkpt><trkpt lat="40.7367218938" lon="-4.0214209724"><ele>1330.60</ele><time>2026-08-09T10:13:59Z</time></trkpt><trkpt lat="40.7367024478" lon="-4.0214291867"><ele>1330.60</ele><time>2026-08-09T10:14:31Z</time></trkpt><trkpt lat="40.7367391605" lon="-4.0214466210"><ele>1330.60</ele><time>2026-08-09T10:14:56Z</time></trkpt><trkpt lat="40.7367642224" lon="-4.0214794781"><ele>1330.12</ele><time>2026-08-09T10:15:22Z</time></trkpt><trkpt lat="40.7367704250" lon="-4.0214597806"><ele>1330.12</ele><time>2026-08-09T10:15:39Z</time></trkpt><trkpt lat="40.7367779687" lon="-4.0214521531"><ele>1330.12</ele><time>2026-08-09T10:16:08Z</time></trkpt><trkpt lat="40.7367778849" lon="-4.0214357246"><ele>1330.12</ele><time>2026-08-09T10:16:35Z</time></trkpt><trkpt lat="40.7367530745" lon="-4.0213938151"><ele>1330.12</ele><time>2026-08-09T10:17:05Z</time></trkpt><trkpt lat="40.7367239892" lon="-4.0213851817"><ele>1331.08</ele><time>2026-08-09T10:17:30Z</time></trkpt><trkpt lat="40.7367175352" lon="-4.0213694237"><ele>1331.08</ele><time>2026-08-09T10:17:31Z</time></trkpt><trkpt lat="40.7367090695" lon="-4.0213545039"><ele>1331.08</ele><time>2026-08-09T10:17:32Z</time></trkpt><trkpt lat="40.7366928086" lon="-4.0213283524"><ele>1332.04</ele><time>2026-08-09T10:17:34Z</time></trkpt><trkpt lat="40.7366863545" lon="-4.0213134326"><ele>1332.04</ele><time>2026-08-09T10:17:35Z</time></trkpt><trkpt lat="40.7366784755" lon="-4.0212956630"><ele>1332.52</ele><time>2026-08-09T10:17:36Z</time></trkpt><trkpt lat="40.7366764639" lon="-4.0212769713"><ele>1332.52</ele><time>2026-08-09T10:17:37Z</time></trkpt><trkpt lat="40.7366775535" lon="-4.0212587826"><ele>1333.01</ele><time>2026-08-09T10:17:38Z</time></trkpt><trkpt lat="40.7366804034" lon="-4.0212396719"><ele>1333.01</ele><time>2026-08-09T10:17:39Z</time></trkpt><trkpt lat="40.7366845943" lon="-4.0212198067"><ele>1333.49</ele><time>2026-08-09T10:17:40Z</time></trkpt><trkpt lat="40.7367473748" lon="-4.0210364107"><ele>1336.85</ele><time>2026-08-09T10:17:49Z</time></trkpt><trkpt lat="40.7368202973" lon="-4.0208099317"><ele>1340.22</ele><time>2026-08-09T10:17:59Z</time></trkpt><trkpt lat="40.7368939742" lon="-4.0207118634"><ele>1341.66</ele><time>2026-08-09T10:18:04Z</time></trkpt><trkpt lat="40.7369996700" lon="-4.0205136314"><ele>1345.02</ele><time>2026-08-09T10:18:14Z</time></trkpt><trkpt lat="40.7370051183" lon="-4.0204772539"><ele>1345.50</ele><time>2026-08-09T10:18:16Z</time></trkpt><trkpt lat="40.7370017655" lon="-4.0204602387"><ele>1345.98</ele><time>2026-08-09T10:18:17Z</time></trkpt><trkpt lat="40.7369288430" lon="-4.0202110447"><ele>1348.87</ele><time>2026-08-09T10:18:32Z</time></trkpt><trkpt lat="40.7367664855" lon="-4.0198810492"><ele>1351.27</ele><time>2026-08-09T10:18:47Z</time></trkpt><trkpt lat="40.7367655635" lon="-4.0198403969"><ele>1351.27</ele><time>2026-08-09T10:18:49Z</time></trkpt><trkpt lat="40.7367691677" lon="-4.0198199451"><ele>1351.75</ele><time>2026-08-09T10:18:50Z</time></trkpt><trkpt lat="40.7367728557" lon="-4.0198008344"><ele>1352.23</ele><time>2026-08-09T10:18:51Z</time></trkpt><trkpt lat="40.7367750350" lon="-4.0197831485"><ele>1352.71</ele><time>2026-08-09T10:18:52Z</time></trkpt><trkpt lat="40.7367800642" lon="-4.0197618585"><ele>1352.71</ele><time>2026-08-09T10:18:53Z</time></trkpt><trkpt lat="40.7367864344" lon="-4.0197394788"><ele>1352.71</ele><time>2026-08-09T10:18:54Z</time></trkpt><trkpt lat="40.7367900386" lon="-4.0197212901"><ele>1353.67</ele><time>2026-08-09T10:18:55Z</time></trkpt><trkpt lat="40.7367923856" lon="-4.0197013412"><ele>1353.67</ele><time>2026-08-09T10:18:56Z</time></trkpt><trkpt lat="40.7367954031" lon="-4.0196817275"><ele>1354.15</ele><time>2026-08-09T10:18:57Z</time></trkpt><trkpt lat="40.7367990073" lon="-4.0196621139"><ele>1354.15</ele><time>2026-08-09T10:18:58Z</time></trkpt><trkpt lat="40.7368016057" lon="-4.0196438413"><ele>1354.15</ele><time>2026-08-09T10:18:59Z</time></trkpt><trkpt lat="40.7368481252" lon="-4.0192862693"><ele>1357.52</ele><time>2026-08-09T10:19:12Z</time></trkpt><trkpt lat="40.7368925493" lon="-4.0189825092"><ele>1361.36</ele><time>2026-08-09T10:19:27Z</time></trkpt><trkpt lat="40.7369441818" lon="-4.0187286213"><ele>1364.25</ele><time>2026-08-09T10:19:38Z</time></trkpt><trkpt lat="40.7369469479" lon="-4.0186991170"><ele>1364.25</ele><time>2026-08-09T10:19:39Z</time></trkpt><trkpt lat="40.7369482890" lon="-4.0186768211"><ele>1364.25</ele><time>2026-08-09T10:19:40Z</time></trkpt><trkpt lat="40.7369493786" lon="-4.0186531004"><ele>1364.73</ele><time>2026-08-09T10:19:41Z</time></trkpt><trkpt lat="40.7369482052" lon="-4.0186282061"><ele>1365.21</ele><time>2026-08-09T10:19:42Z</time></trkpt><trkpt lat="40.7369458582" lon="-4.0186050721"><ele>1366.17</ele><time>2026-08-09T10:19:43Z</time></trkpt><trkpt lat="40.7369437627" lon="-4.0185785014"><ele>1366.17</ele><time>2026-08-09T10:19:44Z</time></trkpt><trkpt lat="40.7369404938" lon="-4.0185509250"><ele>1366.65</ele><time>2026-08-09T10:19:45Z</time></trkpt><trkpt lat="40.7368832454" lon="-4.0181350149"><ele>1370.50</ele><time>2026-08-09T10:19:57Z</time></trkpt><trkpt lat="40.7369076367" lon="-4.0178035107"><ele>1373.38</ele><time>2026-08-09T10:20:09Z</time></trkpt><trkpt lat="40.7370258216" lon="-4.0173793025"><ele>1373.38</ele><time>2026-08-09T10:20:23Z</time></trkpt><trkpt lat="40.7371627819" lon="-4.0169549268"><ele>1373.86</ele><time>2026-08-09T10:20:36Z</time></trkpt><trkpt lat="40.7374346070" lon="-4.0162278805"><ele>1372.90</ele><time>2026-08-09T10:20:53Z</time></trkpt><trkpt lat="40.7375382911" lon="-4.0160240326"><ele>1372.42</ele><time>2026-08-09T10:20:58Z</time></trkpt><trkpt lat="40.7375712320" lon="-4.0159817040"><ele>1372.42</ele><time>2026-08-09T10:20:59Z</time></trkpt><trkpt lat="40.7376449089" lon="-4.0159018245"><ele>1371.46</ele><time>2026-08-09T10:21:01Z</time></trkpt><trkpt lat="40.7380748168" lon="-4.0155549813"><ele>1368.09</ele><time>2026-08-09T10:21:10Z</time></trkpt><trkpt lat="40.7383758109" lon="-4.0153044462"><ele>1363.77</ele><time>2026-08-09T10:21:16Z</time></trkpt><trkpt lat="40.7384734601" lon="-4.0152056236"><ele>1362.33</ele><time>2026-08-09T10:21:18Z</time></trkpt><trkpt lat="40.7385250926" lon="-4.0151453577"><ele>1361.36</ele><time>2026-08-09T10:21:19Z</time></trkpt><trkpt lat="40.7386908866" lon="-4.0149042103"><ele>1358.96</ele><time>2026-08-09T10:21:22Z</time></trkpt><trkpt lat="40.7388688345" lon="-4.0146699362"><ele>1356.08</ele><time>2026-08-09T10:21:25Z</time></trkpt><trkpt lat="40.7389303576" lon="-4.0145945828"><ele>1356.08</ele><time>2026-08-09T10:21:26Z</time></trkpt><trkpt lat="40.7390389871" lon="-4.0144584607"><ele>1353.19</ele><time>2026-08-09T10:21:28Z</time></trkpt><trkpt lat="40.7392604370" lon="-4.0141422953"><ele>1348.87</ele><time>2026-08-09T10:21:32Z</time></trkpt><trkpt lat="40.7395046018" lon="-4.0138632618"><ele>1345.50</ele><time>2026-08-09T10:21:36Z</time></trkpt><trkpt lat="40.7395620178" lon="-4.0138096176"><ele>1345.02</ele><time>2026-08-09T10:21:37Z</time></trkpt><trkpt lat="40.7396163326" lon="-4.0137554705"><ele>1343.58</ele><time>2026-08-09T10:21:38Z</time></trkpt><trkpt lat="40.7396664564" lon="-4.0136928577"><ele>1343.10</ele><time>2026-08-09T10:21:39Z</time></trkpt><trkpt lat="40.7398622576" lon="-4.0134569071"><ele>1339.73</ele><time>2026-08-09T10:21:43Z</time></trkpt><trkpt lat="40.7399864774" lon="-4.0133367106"><ele>1336.85</ele><time>2026-08-09T10:21:46Z</time></trkpt><trkpt lat="40.7400262076" lon="-4.0132717509"><ele>1335.89</ele><time>2026-08-09T10:21:47Z</time></trkpt><trkpt lat="40.7400608249" lon="-4.0132059529"><ele>1335.41</ele><time>2026-08-09T10:21:48Z</time></trkpt><trkpt lat="40.7401000522" lon="-4.0131374728"><ele>1334.45</ele><time>2026-08-09T10:21:49Z</time></trkpt><trkpt lat="40.7401418779" lon="-4.0130710881"><ele>1333.01</ele><time>2026-08-09T10:21:50Z</time></trkpt><trkpt lat="40.7401907444" lon="-4.0129979141"><ele>1333.01</ele><time>2026-08-09T10:21:51Z</time></trkpt><trkpt lat="40.7402912434" lon="-4.0128457826"><ele>1330.60</ele><time>2026-08-09T10:21:53Z</time></trkpt><trkpt lat="40.7403305545" lon="-4.0127699263"><ele>1330.60</ele><time>2026-08-09T10:21:54Z</time></trkpt><trkpt lat="40.7404204085" lon="-4.0125826746"><ele>1326.28</ele><time>2026-08-09T10:21:56Z</time></trkpt><trkpt lat="40.7405781560" lon="-4.0123262722"><ele>1322.91</ele><time>2026-08-09T10:21:59Z</time></trkpt><trkpt lat="40.7406395953" lon="-4.0122351609"><ele>1321.47</ele><time>2026-08-09T10:22:00Z</time></trkpt><trkpt lat="40.7406840194" lon="-4.0121489950"><ele>1321.47</ele><time>2026-08-09T10:22:01Z</time></trkpt><trkpt lat="40.7407649048" lon="-4.0119398665"><ele>1320.03</ele><time>2026-08-09T10:22:03Z</time></trkpt><trkpt lat="40.7408079039" lon="-4.0118404571"><ele>1318.10</ele><time>2026-08-09T10:22:04Z</time></trkpt><trkpt lat="40.7408562675" lon="-4.0117494296"><ele>1316.66</ele><time>2026-08-09T10:22:05Z</time></trkpt><trkpt lat="40.7409207243" lon="-4.0116437338"><ele>1318.10</ele><time>2026-08-09T10:22:06Z</time></trkpt><trkpt lat="40.7411712594" lon="-4.0112065338"><ele>1316.66</ele><time>2026-08-09T10:22:12Z</time></trkpt><trkpt lat="40.7412348781" lon="-4.0111270733"><ele>1316.66</ele><time>2026-08-09T10:22:14Z</time></trkpt><trkpt lat="40.7414271589" lon="-4.0109343734"><ele>1318.10</ele><time>2026-08-09T10:22:21Z</time></trkpt><trkpt lat="40.7416218705" lon="-4.0107042901"><ele>1320.99</ele><time>2026-08-09T10:22:30Z</time></trkpt><trkpt lat="40.7418884989" lon="-4.0103080776"><ele>1322.91</ele><time>2026-08-09T10:22:44Z</time></trkpt><trkpt lat="40.7420751639" lon="-4.0099355858"><ele>1324.35</ele><time>2026-08-09T10:22:57Z</time></trkpt><trkpt lat="40.7423565444" lon="-4.0097126272"><ele>1325.31</ele><time>2026-08-09T10:23:11Z</time></trkpt><trkpt lat="40.7425389346" lon="-4.0096903313"><ele>1325.80</ele><time>2026-08-09T10:23:18Z</time></trkpt><trkpt lat="40.7425650023" lon="-4.0096592344"><ele>1325.80</ele><time>2026-08-09T10:23:19Z</time></trkpt><trkpt lat="40.7425847836" lon="-4.0096186660"><ele>1325.80</ele><time>2026-08-09T10:23:20Z</time></trkpt><trkpt lat="40.7425913215" lon="-4.0095758345"><ele>1325.80</ele><time>2026-08-09T10:23:21Z</time></trkpt><trkpt lat="40.7425888907" lon="-4.0095333382"><ele>1325.80</ele><time>2026-08-09T10:23:22Z</time></trkpt><trkpt lat="40.7425818499" lon="-4.0094927698"><ele>1325.80</ele><time>2026-08-09T10:23:23Z</time></trkpt><trkpt lat="40.7425758988" lon="-4.0094553027"><ele>1326.28</ele><time>2026-08-09T10:23:24Z</time></trkpt><trkpt lat="40.7425712049" lon="-4.0094168298"><ele>1326.28</ele><time>2026-08-09T10:23:25Z</time></trkpt><trkpt lat="40.7425821014" lon="-4.0090134088"><ele>1329.16</ele><time>2026-08-09T10:23:35Z</time></trkpt><trkpt lat="40.7425984461" lon="-4.0089820605"><ele>1329.16</ele><time>2026-08-09T10:23:36Z</time></trkpt><trkpt lat="40.7426200714" lon="-4.0089601837"><ele>1330.12</ele><time>2026-08-09T10:23:37Z</time></trkpt><trkpt lat="40.7426540181" lon="-4.0089526400"><ele>1330.12</ele><time>2026-08-09T10:23:38Z</time></trkpt><trkpt lat="40.7426774036" lon="-4.0089589264"><ele>1330.12</ele><time>2026-08-09T10:23:39Z</time></trkpt><trkpt lat="40.7427023817" lon="-4.0089794621"><ele>1330.60</ele><time>2026-08-09T10:23:40Z</time></trkpt><trkpt lat="40.7427238394" lon="-4.0090067871"><ele>1330.60</ele><time>2026-08-09T10:23:41Z</time></trkpt><trkpt lat="40.7427403517" lon="-4.0090363752"><ele>1331.08</ele><time>2026-08-09T10:23:42Z</time></trkpt><trkpt lat="40.7427525055" lon="-4.0090720821"><ele>1332.04</ele><time>2026-08-09T10:23:43Z</time></trkpt><trkpt lat="40.7427608874" lon="-4.0091092139"><ele>1332.04</ele><time>2026-08-09T10:23:44Z</time></trkpt><trkpt lat="40.7427678443" lon="-4.0091463458"><ele>1332.04</ele><time>2026-08-09T10:23:45Z</time></trkpt><trkpt lat="40.7427913137" lon="-4.0093733277"><ele>1332.04</ele><time>2026-08-09T10:23:51Z</time></trkpt><trkpt lat="40.7427886315" lon="-4.0094008204"><ele>1332.04</ele><time>2026-08-09T10:23:52Z</time></trkpt><trkpt lat="40.7427918166" lon="-4.0094250441"><ele>1332.04</ele><time>2026-08-09T10:23:53Z</time></trkpt><trkpt lat="40.7427974325" lon="-4.0094453283"><ele>1332.04</ele><time>2026-08-09T10:23:54Z</time></trkpt><trkpt lat="40.7428067364" lon="-4.0094572306"><ele>1332.04</ele><time>2026-08-09T10:23:55Z</time></trkpt><trkpt lat="40.7428243384" lon="-4.0094815381"><ele>1332.04</ele><time>2026-08-09T10:24:08Z</time></trkpt><trkpt lat="40.7428339776" lon="-4.0094810352"><ele>1332.04</ele><time>2026-08-09T10:24:37Z</time></trkpt><trkpt lat="40.7428414375" lon="-4.0094907582"><ele>1331.56</ele><time>2026-08-09T10:25:09Z</time></trkpt><trkpt lat="40.7428176329" lon="-4.0095149819"><ele>1331.56</ele><time>2026-08-09T10:25:45Z</time></trkpt><trkpt lat="40.7428053953" lon="-4.0095049236"><ele>1331.56</ele><time>2026-08-09T10:26:16Z</time></trkpt><trkpt lat="40.7428172976" lon="-4.0094981343"><ele>1331.56</ele><time>2026-08-09T10:26:40Z</time></trkpt><trkpt lat="40.7428404316" lon="-4.0094755869"><ele>1331.56</ele><time>2026-08-09T10:27:06Z</time></trkpt><trkpt lat="40.7428336423" lon="-4.0094727371"><ele>1331.56</ele><time>2026-08-09T10:27:39Z</time></trkpt><trkpt lat="40.7428269368" lon="-4.0094832145"><ele>1331.56</ele><time>2026-08-09T10:28:17Z</time></trkpt><trkpt lat="40.7428370789" lon="-4.0094718151"><ele>1331.56</ele><time>2026-08-09T10:28:36Z</time></trkpt><trkpt lat="40.7428722829" lon="-4.0094558056"><ele>1331.56</ele><time>2026-08-09T10:28:55Z</time></trkpt><trkpt lat="40.7428471372" lon="-4.0094671212"><ele>1332.04</ele><time>2026-08-09T10:29:41Z</time></trkpt><trkpt lat="40.7428462990" lon="-4.0094725695"><ele>1331.56</ele><time>2026-08-09T10:30:07Z</time></trkpt><trkpt lat="40.7428449579" lon="-4.0094473399"><ele>1331.56</ele><time>2026-08-09T10:30:29Z</time></trkpt><trkpt lat="40.7428408507" lon="-4.0094144829"><ele>1331.56</ele><time>2026-08-09T10:30:32Z</time></trkpt><trkpt lat="40.7427535113" lon="-4.0090781171"><ele>1332.04</ele><time>2026-08-09T10:30:44Z</time></trkpt><trkpt lat="40.7426966820" lon="-4.0089735109"><ele>1332.04</ele><time>2026-08-09T10:30:47Z</time></trkpt><trkpt lat="40.7425942551" lon="-4.0088457707"><ele>1330.60</ele><time>2026-08-09T10:30:50Z</time></trkpt><trkpt lat="40.7425681874" lon="-4.0088090580"><ele>1330.60</ele><time>2026-08-09T10:30:51Z</time></trkpt><trkpt lat="40.7425444666" lon="-4.0087765362"><ele>1330.60</ele><time>2026-08-09T10:30:52Z</time></trkpt><trkpt lat="40.7424024772" lon="-4.0085048787"><ele>1331.56</ele><time>2026-08-09T10:31:00Z</time></trkpt><trkpt lat="40.7423282135" lon="-4.0081548505"><ele>1335.41</ele><time>2026-08-09T10:31:11Z</time></trkpt><trkpt lat="40.7422656845" lon="-4.0076600667"><ele>1338.29</ele><time>2026-08-09T10:31:26Z</time></trkpt><trkpt lat="40.7422100287" lon="-4.0071097948"><ele>1340.22</ele><time>2026-08-09T10:31:41Z</time></trkpt><trkpt lat="40.7421401236" lon="-4.0067247301"><ele>1340.22</ele><time>2026-08-09T10:31:51Z</time></trkpt><trkpt lat="40.7420609146" lon="-4.0062107518"><ele>1339.73</ele><time>2026-08-09T10:32:01Z</time></trkpt><trkpt lat="40.7420426421" lon="-4.0058691055"><ele>1339.73</ele><time>2026-08-09T10:32:07Z</time></trkpt><trkpt lat="40.7420725655" lon="-4.0050146542"><ele>1336.85</ele><time>2026-08-09T10:32:19Z</time></trkpt><trkpt lat="40.7420843840" lon="-4.0049510356"><ele>1336.85</ele><time>2026-08-09T10:32:20Z</time></trkpt><trkpt lat="40.7420986332" lon="-4.0048853215"><ele>1336.37</ele><time>2026-08-09T10:32:21Z</time></trkpt><trkpt lat="40.7421136368" lon="-4.0048132371"><ele>1336.37</ele><time>2026-08-09T10:32:22Z</time></trkpt><trkpt lat="40.7421323285" lon="-4.0047360398"><ele>1335.89</ele><time>2026-08-09T10:32:23Z</time></trkpt><trkpt lat="40.7422614936" lon="-4.0040732827"><ele>1333.97</ele><time>2026-08-09T10:32:31Z</time></trkpt><trkpt lat="40.7423196640" lon="-4.0037555248"><ele>1332.04</ele><time>2026-08-09T10:32:36Z</time></trkpt><trkpt lat="40.7423484139" lon="-4.0036406089"><ele>1331.56</ele><time>2026-08-09T10:32:47Z</time></trkpt><trkpt lat="40.7424216717" lon="-4.0034034848"><ele>1331.08</ele><time>2026-08-09T10:33:02Z</time></trkpt><trkpt lat="40.7424683589" lon="-4.0032795165"><ele>1331.08</ele><time>2026-08-09T10:33:04Z</time></trkpt><trkpt lat="40.7425275352" lon="-4.0031632595"><ele>1331.08</ele><time>2026-08-09T10:33:06Z</time></trkpt><trkpt lat="40.7425568718" lon="-4.0031196736"><ele>1331.08</ele><time>2026-08-09T10:33:07Z</time></trkpt><trkpt lat="40.7425835263" lon="-4.0030823741"><ele>1330.60</ele><time>2026-08-09T10:33:08Z</time></trkpt><trkpt lat="40.7426756434" lon="-4.0028562304"><ele>1330.12</ele><time>2026-08-09T10:33:18Z</time></trkpt><trkpt lat="40.7427660841" lon="-4.0025606006"><ele>1330.12</ele><time>2026-08-09T10:33:27Z</time></trkpt><trkpt lat="40.7427564450" lon="-4.0025367122"><ele>1330.12</ele><time>2026-08-09T10:33:28Z</time></trkpt><trkpt lat="40.7427421119" lon="-4.0025058668"><ele>1330.12</ele><time>2026-08-09T10:33:29Z</time></trkpt><trkpt lat="40.7427349873" lon="-4.0024643764"><ele>1329.16</ele><time>2026-08-09T10:33:30Z</time></trkpt><trkpt lat="40.7427402679" lon="-4.0024207905"><ele>1329.16</ele><time>2026-08-09T10:33:31Z</time></trkpt><trkpt lat="40.7427513320" lon="-4.0023798030"><ele>1328.68</ele><time>2026-08-09T10:33:32Z</time></trkpt><trkpt lat="40.7427619770" lon="-4.0023421682"><ele>1328.68</ele><time>2026-08-09T10:33:33Z</time></trkpt><trkpt lat="40.7429700159" lon="-4.0018700156"><ele>1328.20</ele><time>2026-08-09T10:33:45Z</time></trkpt><trkpt lat="40.7432145160" lon="-4.0015514195"><ele>1329.16</ele><time>2026-08-09T10:33:56Z</time></trkpt><trkpt lat="40.7434428390" lon="-4.0013328195"><ele>1330.60</ele><time>2026-08-09T10:34:07Z</time></trkpt><trkpt lat="40.7434653025" lon="-4.0013130382"><ele>1331.08</ele><time>2026-08-09T10:34:08Z</time></trkpt><trkpt lat="40.7434834074" lon="-4.0012864675"><ele>1331.08</ele><time>2026-08-09T10:34:09Z</time></trkpt><trkpt lat="40.7435020152" lon="-4.0012542810"><ele>1332.04</ele><time>2026-08-09T10:34:10Z</time></trkpt><trkpt lat="40.7435186952" lon="-4.0012207534"><ele>1332.04</ele><time>2026-08-09T10:34:11Z</time></trkpt><trkpt lat="40.7435341179" lon="-4.0011902433"><ele>1332.04</ele><time>2026-08-09T10:34:12Z</time></trkpt><trkpt lat="40.7437274884" lon="-4.0006645303"><ele>1333.01</ele><time>2026-08-09T10:34:26Z</time></trkpt><trkpt lat="40.7438906003" lon="-4.0003000014"><ele>1333.01</ele><time>2026-08-09T10:34:36Z</time></trkpt><trkpt lat="40.7441470865" lon="-3.9997046348"><ele>1333.97</ele><time>2026-08-09T10:34:52Z</time></trkpt><trkpt lat="40.7444270421" lon="-3.9992461447"><ele>1334.93</ele><time>2026-08-09T10:35:04Z</time></trkpt><trkpt lat="40.7449545991" lon="-3.9984444156"><ele>1336.37</ele><time>2026-08-09T10:35:24Z</time></trkpt><trkpt lat="40.7453913800" lon="-3.9977569319"><ele>1337.81</ele><time>2026-08-09T10:35:42Z</time></trkpt><trkpt lat="40.7455997542" lon="-3.9974146150"><ele>1340.22</ele><time>2026-08-09T10:35:52Z</time></trkpt><trkpt lat="40.7459971402" lon="-3.9967614971"><ele>1342.62</ele><time>2026-08-09T10:36:11Z</time></trkpt><trkpt lat="40.7463510241" lon="-3.9961716626"><ele>1343.58</ele><time>2026-08-09T10:36:27Z</time></trkpt><trkpt lat="40.7466564607" lon="-3.9956396632"><ele>1343.58</ele><time>2026-08-09T10:36:39Z</time></trkpt><trkpt lat="40.7466770802" lon="-3.9955917187"><ele>1343.58</ele><time>2026-08-09T10:36:40Z</time></trkpt><trkpt lat="40.7467193250" lon="-3.9954856876"><ele>1342.62</ele><time>2026-08-09T10:36:42Z</time></trkpt><trkpt lat="40.7467274554" lon="-3.9954341389"><ele>1342.62</ele><time>2026-08-09T10:36:43Z</time></trkpt><trkpt lat="40.7467179000" lon="-3.9953154512"><ele>1342.62</ele><time>2026-08-09T10:36:45Z</time></trkpt><trkpt lat="40.7466705423" lon="-3.9950194862"><ele>1340.22</ele><time>2026-08-09T10:36:49Z</time></trkpt><trkpt lat="40.7467065006" lon="-3.9946469944"><ele>1338.77</ele><time>2026-08-09T10:36:54Z</time></trkpt><trkpt lat="40.7467261981" lon="-3.9943081979"><ele>1337.33</ele><time>2026-08-09T10:36:59Z</time></trkpt><trkpt lat="40.7467085123" lon="-3.9941210300"><ele>1336.37</ele><time>2026-08-09T10:37:02Z</time></trkpt><trkpt lat="40.7464506850" lon="-3.9939005021"><ele>1334.45</ele><time>2026-08-09T10:37:09Z</time></trkpt><trkpt lat="40.7463069353" lon="-3.9937913697"><ele>1333.49</ele><time>2026-08-09T10:37:12Z</time></trkpt><trkpt lat="40.7460805401" lon="-3.9936575107"><ele>1332.04</ele><time>2026-08-09T10:37:16Z</time></trkpt><trkpt lat="40.7458849903" lon="-3.9934636373"><ele>1328.20</ele><time>2026-08-09T10:37:21Z</time></trkpt><trkpt lat="40.7459577452" lon="-3.9931613021"><ele>1328.20</ele><time>2026-08-09T10:37:31Z</time></trkpt><trkpt lat="40.7460399717" lon="-3.9929169696"><ele>1329.64</ele><time>2026-08-09T10:37:37Z</time></trkpt><trkpt lat="40.7460731640" lon="-3.9924969524"><ele>1329.64</ele><time>2026-08-09T10:37:46Z</time></trkpt><trkpt lat="40.7460535504" lon="-3.9924772549"><ele>1329.64</ele><time>2026-08-09T10:37:47Z</time></trkpt><trkpt lat="40.7460244652" lon="-3.9924614970"><ele>1329.64</ele><time>2026-08-09T10:37:48Z</time></trkpt><trkpt lat="40.7459860761" lon="-3.9924576413"><ele>1329.64</ele><time>2026-08-09T10:37:49Z</time></trkpt><trkpt lat="40.7459717430" lon="-3.9924637601"><ele>1328.20</ele><time>2026-08-09T10:37:50Z</time></trkpt><trkpt lat="40.7459577452" lon="-3.9924734831"><ele>1328.20</ele><time>2026-08-09T10:37:51Z</time></trkpt><trkpt lat="40.7459380478" lon="-3.9924863912"><ele>1327.72</ele><time>2026-08-09T10:38:05Z</time></trkpt><trkpt lat="40.7458864991" lon="-3.9925138000"><ele>1327.24</ele><time>2026-08-09T10:38:25Z</time></trkpt><trkpt lat="40.7456721738" lon="-3.9926121198"><ele>1325.80</ele><time>2026-08-09T10:38:32Z</time></trkpt><trkpt lat="40.7451787312" lon="-3.9928458072"><ele>1325.80</ele><time>2026-08-09T10:38:42Z</time></trkpt><trkpt lat="40.7451261766" lon="-3.9928868786"><ele>1325.80</ele><time>2026-08-09T10:38:43Z</time></trkpt><trkpt lat="40.7448697742" lon="-3.9931241702"><ele>1322.91</ele><time>2026-08-09T10:38:48Z</time></trkpt><trkpt lat="40.7445593923" lon="-3.9934200514"><ele>1320.03</ele><time>2026-08-09T10:38:54Z</time></trkpt><trkpt lat="40.7441594079" lon="-3.9937897772"><ele>1316.66</ele><time>2026-08-09T10:39:02Z</time></trkpt><trkpt lat="40.7439813763" lon="-3.9939148352"><ele>1315.70</ele><time>2026-08-09T10:39:05Z</time></trkpt><trkpt lat="40.7439092919" lon="-3.9939499553"><ele>1314.26</ele><time>2026-08-09T10:39:06Z</time></trkpt><trkpt lat="40.7438393869" lon="-3.9939771965"><ele>1313.78</ele><time>2026-08-09T10:39:07Z</time></trkpt><trkpt lat="40.7437797915" lon="-3.9939977322"><ele>1313.78</ele><time>2026-08-09T10:39:08Z</time></trkpt><trkpt lat="40.7434985787" lon="-3.9940969739"><ele>1312.34</ele><time>2026-08-09T10:39:12Z</time></trkpt><trkpt lat="40.7430441957" lon="-3.9942666236"><ele>1309.45</ele><time>2026-08-09T10:39:18Z</time></trkpt><trkpt lat="40.7428017072" lon="-3.9943719842"><ele>1306.09</ele><time>2026-08-09T10:39:21Z</time></trkpt><trkpt lat="40.7424632460" lon="-3.9945360180"><ele>1303.69</ele><time>2026-08-09T10:39:25Z</time></trkpt><trkpt lat="40.7419789396" lon="-3.9947293047"><ele>1300.80</ele><time>2026-08-09T10:39:31Z</time></trkpt><trkpt lat="40.7417598367" lon="-3.9947719686"><ele>1298.88</ele><time>2026-08-09T10:39:34Z</time></trkpt><trkpt lat="40.7416878361" lon="-3.9947915822"><ele>1298.40</ele><time>2026-08-09T10:39:35Z</time></trkpt><trkpt lat="40.7416103873" lon="-3.9948054124"><ele>1297.92</ele><time>2026-08-09T10:39:36Z</time></trkpt><trkpt lat="40.7413764484" lon="-3.9948278759"><ele>1295.03</ele><time>2026-08-09T10:39:39Z</time></trkpt><trkpt lat="40.7413001731" lon="-3.9948350005"><ele>1294.55</ele><time>2026-08-09T10:39:40Z</time></trkpt><trkpt lat="40.7406535931" lon="-3.9949816000"><ele>1292.15</ele><time>2026-08-09T10:39:48Z</time></trkpt><trkpt lat="40.7404872961" lon="-3.9950381778"><ele>1289.27</ele><time>2026-08-09T10:39:50Z</time></trkpt><trkpt lat="40.7401667722" lon="-3.9951680973"><ele>1286.38</ele><time>2026-08-09T10:39:54Z</time></trkpt><trkpt lat="40.7399519440" lon="-3.9953074045"><ele>1283.02</ele><time>2026-08-09T10:39:57Z</time></trkpt><trkpt lat="40.7398849726" lon="-3.9953739569"><ele>1283.02</ele><time>2026-08-09T10:39:58Z</time></trkpt><trkpt lat="40.7394223753" lon="-3.9958624542"><ele>1280.13</ele><time>2026-08-09T10:40:05Z</time></trkpt><trkpt lat="40.7391962316" lon="-3.9960572496"><ele>1277.73</ele><time>2026-08-09T10:40:08Z</time></trkpt><trkpt lat="40.7387425192" lon="-3.9964458346"><ele>1274.36</ele><time>2026-08-09T10:40:14Z</time></trkpt><trkpt lat="40.7383436244" lon="-3.9967843797"><ele>1271.00</ele><time>2026-08-09T10:40:20Z</time></trkpt><trkpt lat="40.7381563727" lon="-3.9969419595"><ele>1267.16</ele><time>2026-08-09T10:40:23Z</time></trkpt><trkpt lat="40.7380879764" lon="-3.9969919994"><ele>1267.16</ele><time>2026-08-09T10:40:24Z</time></trkpt><trkpt lat="40.7374906819" lon="-3.9973905589"><ele>1264.27</ele><time>2026-08-09T10:40:32Z</time></trkpt><trkpt lat="40.7373460103" lon="-3.9974896330"><ele>1263.31</ele><time>2026-08-09T10:40:34Z</time></trkpt><trkpt lat="40.7368963212" lon="-3.9977652300"><ele>1260.91</ele><time>2026-08-09T10:40:40Z</time></trkpt><trkpt lat="40.7368176151" lon="-3.9977834187"><ele>1260.43</ele><time>2026-08-09T10:40:41Z</time></trkpt><trkpt lat="40.7366612088" lon="-3.9978125878"><ele>1259.94</ele><time>2026-08-09T10:40:43Z</time></trkpt><trkpt lat="40.7365924772" lon="-3.9978506416"><ele>1258.98</ele><time>2026-08-09T10:40:44Z</time></trkpt><trkpt lat="40.7365224045" lon="-3.9979171939"><ele>1258.50</ele><time>2026-08-09T10:40:45Z</time></trkpt><trkpt lat="40.7364639826" lon="-3.9979952294"><ele>1258.02</ele><time>2026-08-09T10:40:46Z</time></trkpt><trkpt lat="40.7364073209" lon="-3.9980846643"><ele>1256.58</ele><time>2026-08-09T10:40:47Z</time></trkpt><trkpt lat="40.7363488991" lon="-3.9981731772"><ele>1256.58</ele><time>2026-08-09T10:40:48Z</time></trkpt><trkpt lat="40.7361643296" lon="-3.9984396379"><ele>1255.14</ele><time>2026-08-09T10:40:51Z</time></trkpt><trkpt lat="40.7359857112" lon="-3.9987076074"><ele>1250.33</ele><time>2026-08-09T10:40:54Z</time></trkpt><trkpt lat="40.7358427159" lon="-3.9989476651"><ele>1246.97</ele><time>2026-08-09T10:40:57Z</time></trkpt><trkpt lat="40.7358126249" lon="-3.9990118705"><ele>1246.97</ele><time>2026-08-09T10:40:58Z</time></trkpt><trkpt lat="40.7357788458" lon="-3.9990566298"><ele>1245.04</ele><time>2026-08-09T10:40:59Z</time></trkpt><trkpt lat="40.7357309852" lon="-3.9990790095"><ele>1245.04</ele><time>2026-08-09T10:41:00Z</time></trkpt><trkpt lat="40.7356945239" lon="-3.9990744833"><ele>1244.56</ele><time>2026-08-09T10:41:01Z</time></trkpt><trkpt lat="40.7356733177" lon="-3.9990665205"><ele>1244.08</ele><time>2026-08-09T10:41:02Z</time></trkpt><trkpt lat="40.7356372755" lon="-3.9990542829"><ele>1244.08</ele><time>2026-08-09T10:41:03Z</time></trkpt><trkpt lat="40.7356025744" lon="-3.9990515169"><ele>1244.08</ele><time>2026-08-09T10:41:04Z</time></trkpt><trkpt lat="40.7355601620" lon="-3.9990525227"><ele>1244.08</ele><time>2026-08-09T10:41:05Z</time></trkpt><trkpt lat="40.7355170790" lon="-3.9990484994"><ele>1244.56</ele><time>2026-08-09T10:41:06Z</time></trkpt><trkpt lat="40.7350412384" lon="-3.9990106970"><ele>1241.68</ele><time>2026-08-09T10:41:15Z</time></trkpt><trkpt lat="40.7347974926" lon="-3.9990743995"><ele>1239.76</ele><time>2026-08-09T10:41:19Z</time></trkpt><trkpt lat="40.7347329520" lon="-3.9991033170"><ele>1238.80</ele><time>2026-08-09T10:41:20Z</time></trkpt><trkpt lat="40.7345976681" lon="-3.9991702046"><ele>1238.80</ele><time>2026-08-09T10:41:22Z</time></trkpt><trkpt lat="40.7345260866" lon="-3.9991936740"><ele>1238.80</ele><time>2026-08-09T10:41:23Z</time></trkpt><trkpt lat="40.7344490569" lon="-3.9992095158"><ele>1238.80</ele><time>2026-08-09T10:41:24Z</time></trkpt><trkpt lat="40.7342325523" lon="-3.9992396906"><ele>1237.35</ele><time>2026-08-09T10:41:27Z</time></trkpt><trkpt lat="40.7339385152" lon="-3.9992702007"><ele>1233.99</ele><time>2026-08-09T10:41:31Z</time></trkpt><trkpt lat="40.7338631619" lon="-3.9992586337"><ele>1233.03</ele><time>2026-08-09T10:41:32Z</time></trkpt><trkpt lat="40.7335547917" lon="-3.9991508424"><ele>1233.03</ele><time>2026-08-09T10:41:36Z</time></trkpt><trkpt lat="40.7334760856" lon="-3.9991304744"><ele>1233.03</ele><time>2026-08-09T10:41:37Z</time></trkpt><trkpt lat="40.7331278175" lon="-3.9991014730"><ele>1230.14</ele><time>2026-08-09T10:41:41Z</time></trkpt><trkpt lat="40.7328510471" lon="-3.9991006348"><ele>1227.74</ele><time>2026-08-09T10:41:44Z</time></trkpt><trkpt lat="40.7325005997" lon="-3.9990952704"><ele>1225.82</ele><time>2026-08-09T10:41:48Z</time></trkpt><trkpt lat="40.7323464565" lon="-3.9990719687"><ele>1224.38</ele><time>2026-08-09T10:41:50Z</time></trkpt><trkpt lat="40.7320312131" lon="-3.9990466554"><ele>1222.93</ele><time>2026-08-09T10:41:54Z</time></trkpt><trkpt lat="40.7319623139" lon="-3.9990623295"><ele>1221.49</ele><time>2026-08-09T10:41:55Z</time></trkpt><trkpt lat="40.7319017127" lon="-3.9990905765"><ele>1220.05</ele><time>2026-08-09T10:41:56Z</time></trkpt><trkpt lat="40.7318524271" lon="-3.9991272893"><ele>1218.61</ele><time>2026-08-09T10:41:57Z</time></trkpt><trkpt lat="40.7318115234" lon="-3.9991654269"><ele>1217.65</ele><time>2026-08-09T10:41:58Z</time></trkpt><trkpt lat="40.7317768224" lon="-3.9992015529"><ele>1216.69</ele><time>2026-08-09T10:41:59Z</time></trkpt><trkpt lat="40.7317505870" lon="-3.9992343262"><ele>1216.69</ele><time>2026-08-09T10:42:00Z</time></trkpt><trkpt lat="40.7316339947" lon="-3.9993307181"><ele>1214.76</ele><time>2026-08-09T10:42:07Z</time></trkpt><trkpt lat="40.7316318993" lon="-3.9993231744"><ele>1214.76</ele><time>2026-08-09T10:42:23Z</time></trkpt><trkpt lat="40.7316307258" lon="-3.9993140381"><ele>1214.28</ele><time>2026-08-09T10:42:49Z</time></trkpt><trkpt lat="40.7316396106" lon="-3.9993217494"><ele>1214.28</ele><time>2026-08-09T10:43:08Z</time></trkpt><trkpt lat="40.7316310611" lon="-3.9993107691"><ele>1214.28</ele><time>2026-08-09T10:43:16Z</time></trkpt><trkpt lat="40.7316255290" lon="-3.9992883056"><ele>1214.28</ele><time>2026-08-09T10:43:17Z</time></trkpt><trkpt lat="40.7316552009" lon="-3.9990842901"><ele>1215.24</ele><time>2026-08-09T10:43:24Z</time></trkpt><trkpt lat="40.7316438016" lon="-3.9990335796"><ele>1216.21</ele><time>2026-08-09T10:43:26Z</time></trkpt><trkpt lat="40.7316211704" lon="-3.9990195818"><ele>1216.21</ele><time>2026-08-09T10:43:27Z</time></trkpt><trkpt lat="40.7316023950" lon="-3.9990228508"><ele>1216.21</ele><time>2026-08-09T10:43:28Z</time></trkpt><trkpt lat="40.7315811049" lon="-3.9990339987"><ele>1216.21</ele><time>2026-08-09T10:43:29Z</time></trkpt><trkpt lat="40.7315566298" lon="-3.9990472421"><ele>1216.21</ele><time>2026-08-09T10:43:30Z</time></trkpt><trkpt lat="40.7315318193" lon="-3.9990588091"><ele>1214.76</ele><time>2026-08-09T10:43:31Z</time></trkpt><trkpt lat="40.7315078471" lon="-3.9990736451"><ele>1214.76</ele><time>2026-08-09T10:43:32Z</time></trkpt><trkpt lat="40.7312992215" lon="-3.9992459770"><ele>1214.28</ele><time>2026-08-09T10:43:41Z</time></trkpt><trkpt lat="40.7312806975" lon="-3.9992384333"><ele>1213.32</ele><time>2026-08-09T10:43:42Z</time></trkpt><trkpt lat="40.7312631793" lon="-3.9992125332"><ele>1213.32</ele><time>2026-08-09T10:43:43Z</time></trkpt><trkpt lat="40.7312511094" lon="-3.9991750661"><ele>1213.32</ele><time>2026-08-09T10:43:44Z</time></trkpt><trkpt lat="40.7312454935" lon="-3.9991341624"><ele>1213.32</ele><time>2026-08-09T10:43:45Z</time></trkpt><trkpt lat="40.7312421408" lon="-3.9990941808"><ele>1213.32</ele><time>2026-08-09T10:43:46Z</time></trkpt><trkpt lat="40.7312378660" lon="-3.9990495890"><ele>1213.32</ele><time>2026-08-09T10:43:47Z</time></trkpt><trkpt lat="40.7312404644" lon="-3.9990101103"><ele>1213.32</ele><time>2026-08-09T10:43:48Z</time></trkpt><trkpt lat="40.7312403806" lon="-3.9989709668"><ele>1213.32</ele><time>2026-08-09T10:43:49Z</time></trkpt><trkpt lat="40.7312351838" lon="-3.9989327453"><ele>1213.32</ele><time>2026-08-09T10:43:50Z</time></trkpt><trkpt lat="40.7311630156" lon="-3.9984341059"><ele>1212.36</ele><time>2026-08-09T10:44:01Z</time></trkpt><trkpt lat="40.7311524544" lon="-3.9983968902"><ele>1212.36</ele><time>2026-08-09T10:44:02Z</time></trkpt><trkpt lat="40.7311517000" lon="-3.9983626921"><ele>1212.36</ele><time>2026-08-09T10:44:03Z</time></trkpt><trkpt lat="40.7311522029" lon="-3.9983232971"><ele>1212.36</ele><time>2026-08-09T10:44:04Z</time></trkpt><trkpt lat="40.7311483473" lon="-3.9982813038"><ele>1212.36</ele><time>2026-08-09T10:44:05Z</time></trkpt><trkpt lat="40.7311389595" lon="-3.9982431661"><ele>1212.36</ele><time>2026-08-09T10:44:06Z</time></trkpt><trkpt lat="40.7311339304" lon="-3.9982088841"><ele>1212.36</ele><time>2026-08-09T10:44:07Z</time></trkpt><trkpt lat="40.7311331760" lon="-3.9981753565"><ele>1212.36</ele><time>2026-08-09T10:44:08Z</time></trkpt><trkpt lat="40.7311278954" lon="-3.9981427509"><ele>1212.36</ele><time>2026-08-09T10:44:09Z</time></trkpt><trkpt lat="40.7311185077" lon="-3.9981065411"><ele>1213.80</ele><time>2026-08-09T10:44:10Z</time></trkpt><trkpt lat="40.7310418971" lon="-3.9979863446"><ele>1214.76</ele><time>2026-08-09T10:44:14Z</time></trkpt><trkpt lat="40.7310372032" lon="-3.9979530685"><ele>1214.76</ele><time>2026-08-09T10:44:15Z</time></trkpt><trkpt lat="40.7310448308" lon="-3.9979218878"><ele>1214.76</ele><time>2026-08-09T10:44:16Z</time></trkpt><trkpt lat="40.7310451660" lon="-3.9978960715"><ele>1214.76</ele><time>2026-08-09T10:44:17Z</time></trkpt><trkpt lat="40.7310444955" lon="-3.9978596102"><ele>1214.76</ele><time>2026-08-09T10:44:18Z</time></trkpt><trkpt lat="40.7310540508" lon="-3.9978325367"><ele>1214.76</ele><time>2026-08-09T10:44:19Z</time></trkpt><trkpt lat="40.7310704794" lon="-3.9978139289"><ele>1214.76</ele><time>2026-08-09T10:44:20Z</time></trkpt><trkpt lat="40.7310755085" lon="-3.9977889508"><ele>1214.76</ele><time>2026-08-09T10:44:21Z</time></trkpt><trkpt lat="40.7310724910" lon="-3.9977543335"><ele>1214.76</ele><time>2026-08-09T10:44:22Z</time></trkpt><trkpt lat="40.7310641091" lon="-3.9977161121"><ele>1214.76</ele><time>2026-08-09T10:44:23Z</time></trkpt><trkpt lat="40.7310580742" lon="-3.9976687543"><ele>1214.76</ele><time>2026-08-09T10:44:24Z</time></trkpt><trkpt lat="40.7310563978" lon="-3.9976272639"><ele>1214.76</ele><time>2026-08-09T10:44:25Z</time></trkpt><trkpt lat="40.7310528774" lon="-3.9975897968"><ele>1214.76</ele><time>2026-08-09T10:44:26Z</time></trkpt><trkpt lat="40.7310455851" lon="-3.9975499827"><ele>1214.76</ele><time>2026-08-09T10:44:27Z</time></trkpt><trkpt lat="40.7310428191" lon="-3.9975074865"><ele>1214.76</ele><time>2026-08-09T10:44:28Z</time></trkpt><trkpt lat="40.7310397178" lon="-3.9974639844"><ele>1214.76</ele><time>2026-08-09T10:44:29Z</time></trkpt><trkpt lat="40.7310331799" lon="-3.9974314626"><ele>1214.76</ele><time>2026-08-09T10:44:30Z</time></trkpt><trkpt lat="40.7310238760" lon="-3.9973917324"><ele>1214.76</ele><time>2026-08-09T10:44:31Z</time></trkpt><trkpt lat="40.7310138177" lon="-3.9973473083"><ele>1214.76</ele><time>2026-08-09T10:44:32Z</time></trkpt><trkpt lat="40.7309921086" lon="-3.9973032195"><ele>1214.76</ele><time>2026-08-09T10:44:33Z</time></trkpt><trkpt lat="40.7309637778" lon="-3.9972755592"><ele>1214.76</ele><time>2026-08-09T10:44:34Z</time></trkpt><trkpt lat="40.7309310045" lon="-3.9972513355"><ele>1214.76</ele><time>2026-08-09T10:44:35Z</time></trkpt><trkpt lat="40.7308923639" lon="-3.9972262736"><ele>1214.76</ele><time>2026-08-09T10:44:36Z</time></trkpt><trkpt lat="40.7308535557" lon="-3.9971959312"><ele>1214.76</ele><time>2026-08-09T10:44:37Z</time></trkpt><trkpt lat="40.7307683956" lon="-3.9970904868"><ele>1214.28</ele><time>2026-08-09T10:44:40Z</time></trkpt><trkpt lat="40.7307517994" lon="-3.9970560372"><ele>1214.28</ele><time>2026-08-09T10:44:41Z</time></trkpt><trkpt lat="40.7307286654" lon="-3.9970312268"><ele>1214.28</ele><time>2026-08-09T10:44:42Z</time></trkpt><trkpt lat="40.7307036873" lon="-3.9970153850"><ele>1214.28</ele><time>2026-08-09T10:44:43Z</time></trkpt><trkpt lat="40.7306797151" lon="-3.9969956037"><ele>1214.28</ele><time>2026-08-09T10:44:44Z</time></trkpt><trkpt lat="40.7306615263" lon="-3.9969646744"><ele>1214.28</ele><time>2026-08-09T10:44:45Z</time></trkpt><trkpt lat="40.7306499593" lon="-3.9969329070"><ele>1214.28</ele><time>2026-08-09T10:44:46Z</time></trkpt><trkpt lat="40.7306186948" lon="-3.9968787599"><ele>1214.28</ele><time>2026-08-09T10:44:48Z</time></trkpt><trkpt lat="40.7305869274" lon="-3.9968676120"><ele>1214.28</ele><time>2026-08-09T10:44:49Z</time></trkpt><trkpt lat="40.7305461913" lon="-3.9968611579"><ele>1214.28</ele><time>2026-08-09T10:44:50Z</time></trkpt><trkpt lat="40.7305090595" lon="-3.9968622476"><ele>1214.28</ele><time>2026-08-09T10:44:51Z</time></trkpt><trkpt lat="40.7304679044" lon="-3.9968714677"><ele>1214.28</ele><time>2026-08-09T10:44:52Z</time></trkpt><trkpt lat="40.7304290961" lon="-3.9968868066"><ele>1213.32</ele><time>2026-08-09T10:44:53Z</time></trkpt><trkpt lat="40.7303884439" lon="-3.9969034865"><ele>1213.32</ele><time>2026-08-09T10:44:54Z</time></trkpt><trkpt lat="40.7303553354" lon="-3.9969034865"><ele>1212.36</ele><time>2026-08-09T10:44:55Z</time></trkpt><trkpt lat="40.7303369790" lon="-3.9968784247"><ele>1211.88</ele><time>2026-08-09T10:44:56Z</time></trkpt><trkpt lat="40.7303343806" lon="-3.9968334138"><ele>1211.88</ele><time>2026-08-09T10:44:57Z</time></trkpt><trkpt lat="40.7303374819" lon="-3.9967808593"><ele>1211.88</ele><time>2026-08-09T10:44:58Z</time></trkpt><trkpt lat="40.7302918006" lon="-3.9965984691"><ele>1211.88</ele><time>2026-08-09T10:45:02Z</time></trkpt><trkpt lat="40.7302617934" lon="-3.9965665340"><ele>1211.88</ele><time>2026-08-09T10:45:03Z</time></trkpt><trkpt lat="40.7302279305" lon="-3.9965408016"><ele>1211.88</ele><time>2026-08-09T10:45:04Z</time></trkpt><trkpt lat="40.7301931456" lon="-3.9965168294"><ele>1211.88</ele><time>2026-08-09T10:45:05Z</time></trkpt><trkpt lat="40.7301586960" lon="-3.9964877442"><ele>1211.88</ele><time>2026-08-09T10:45:06Z</time></trkpt><trkpt lat="40.7301188819" lon="-3.9964604191"><ele>1211.88</ele><time>2026-08-09T10:45:07Z</time></trkpt><trkpt lat="40.7300758827" lon="-3.9964423142"><ele>1211.88</ele><time>2026-08-09T10:45:08Z</time></trkpt><trkpt lat="40.7299905550" lon="-3.9964191802"><ele>1211.88</ele><time>2026-08-09T10:45:10Z</time></trkpt><trkpt lat="40.7299535908" lon="-3.9963974711"><ele>1211.40</ele><time>2026-08-09T10:45:11Z</time></trkpt><trkpt lat="40.7298143674" lon="-3.9963195194"><ele>1210.92</ele><time>2026-08-09T10:45:16Z</time></trkpt><trkpt lat="40.7296367548" lon="-3.9962933678"><ele>1209.96</ele><time>2026-08-09T10:45:21Z</time></trkpt><trkpt lat="40.7295987010" lon="-3.9962841477"><ele>1209.00</ele><time>2026-08-09T10:45:22Z</time></trkpt><trkpt lat="40.7295666821" lon="-3.9962576609"><ele>1208.51</ele><time>2026-08-09T10:45:23Z</time></trkpt><trkpt lat="40.7295334898" lon="-3.9962218702"><ele>1208.51</ele><time>2026-08-09T10:45:24Z</time></trkpt><trkpt lat="40.7294931728" lon="-3.9961937908"><ele>1208.51</ele><time>2026-08-09T10:45:25Z</time></trkpt><trkpt lat="40.7294533588" lon="-3.9961658791"><ele>1208.51</ele><time>2026-08-09T10:45:26Z</time></trkpt><trkpt lat="40.7294168137" lon="-3.9961321000"><ele>1208.51</ele><time>2026-08-09T10:45:27Z</time></trkpt><trkpt lat="40.7293797657" lon="-3.9960999135"><ele>1208.51</ele><time>2026-08-09T10:45:28Z</time></trkpt><trkpt lat="40.7293118723" lon="-3.9960396476"><ele>1207.55</ele><time>2026-08-09T10:45:30Z</time></trkpt><trkpt lat="40.7292869780" lon="-3.9960032701"><ele>1207.55</ele><time>2026-08-09T10:45:31Z</time></trkpt><trkpt lat="40.7292560488" lon="-3.9959829021"><ele>1207.55</ele><time>2026-08-09T10:45:32Z</time></trkpt><trkpt lat="40.7291094493" lon="-3.9959277492"><ele>1207.55</ele><time>2026-08-09T10:45:36Z</time></trkpt><trkpt lat="40.7290689647" lon="-3.9959280007"><ele>1207.55</ele><time>2026-08-09T10:45:37Z</time></trkpt><trkpt lat="40.7290113810" lon="-3.9959414117"><ele>1206.59</ele><time>2026-08-09T10:45:39Z</time></trkpt><trkpt lat="40.7289910130" lon="-3.9959487040"><ele>1206.59</ele><time>2026-08-09T10:45:40Z</time></trkpt><trkpt lat="40.7288997341" lon="-3.9959288388"><ele>1205.63</ele><time>2026-08-09T10:45:43Z</time></trkpt><trkpt lat="40.7288716547" lon="-3.9958989155"><ele>1205.15</ele><time>2026-08-09T10:45:44Z</time></trkpt><trkpt lat="40.7288450841" lon="-3.9958721772"><ele>1205.15</ele><time>2026-08-09T10:45:45Z</time></trkpt><trkpt lat="40.7288092095" lon="-3.9958587661"><ele>1205.15</ele><time>2026-08-09T10:45:46Z</time></trkpt><trkpt lat="40.7287672162" lon="-3.9958582632"><ele>1204.67</ele><time>2026-08-09T10:45:47Z</time></trkpt><trkpt lat="40.7287270669" lon="-3.9958500490"><ele>1204.67</ele><time>2026-08-09T10:45:48Z</time></trkpt><trkpt lat="40.7286870014" lon="-3.9958296809"><ele>1204.19</ele><time>2026-08-09T10:45:49Z</time></trkpt><trkpt lat="40.7286487799" lon="-3.9958024397"><ele>1204.19</ele><time>2026-08-09T10:45:50Z</time></trkpt><trkpt lat="40.7286138274" lon="-3.9957723487"><ele>1204.19</ele><time>2026-08-09T10:45:51Z</time></trkpt><trkpt lat="40.7285802159" lon="-3.9957548305"><ele>1204.19</ele><time>2026-08-09T10:45:52Z</time></trkpt><trkpt lat="40.7285434194" lon="-3.9957479574"><ele>1203.71</ele><time>2026-08-09T10:45:53Z</time></trkpt><trkpt lat="40.7284650486" lon="-3.9957263321"><ele>1204.67</ele><time>2026-08-09T10:45:55Z</time></trkpt><trkpt lat="40.7284282520" lon="-3.9957027789"><ele>1204.67</ele><time>2026-08-09T10:45:56Z</time></trkpt><trkpt lat="40.7283952273" lon="-3.9956659824"><ele>1204.67</ele><time>2026-08-09T10:45:57Z</time></trkpt><trkpt lat="40.7283286750" lon="-3.9955935627"><ele>1204.67</ele><time>2026-08-09T10:45:59Z</time></trkpt><trkpt lat="40.7283006795" lon="-3.9955804870"><ele>1204.67</ele><time>2026-08-09T10:46:00Z</time></trkpt><trkpt lat="40.7282800600" lon="-3.9955734462"><ele>1204.67</ele><time>2026-08-09T10:46:01Z</time></trkpt><trkpt lat="40.7282446884" lon="-3.9955814928"><ele>1204.67</ele><time>2026-08-09T10:46:12Z</time></trkpt><trkpt lat="40.7282353006" lon="-3.9955742005"><ele>1204.67</ele><time>2026-08-09T10:46:38Z</time></trkpt><trkpt lat="40.7282254938" lon="-3.9955845103"><ele>1204.67</ele><time>2026-08-09T10:46:40Z</time></trkpt><trkpt lat="40.7282135077" lon="-3.9955960773"><ele>1204.67</ele><time>2026-08-09T10:46:41Z</time></trkpt><trkpt lat="40.7281674910" lon="-3.9956352208"><ele>1204.67</ele><time>2026-08-09T10:46:43Z</time></trkpt><trkpt lat="40.7281341311" lon="-3.9956539962"><ele>1204.67</ele><time>2026-08-09T10:46:44Z</time></trkpt><trkpt lat="40.7281014416" lon="-3.9956806507"><ele>1204.67</ele><time>2026-08-09T10:46:45Z</time></trkpt><trkpt lat="40.7280651480" lon="-3.9957008511"><ele>1204.67</ele><time>2026-08-09T10:46:46Z</time></trkpt><trkpt lat="40.7280194666" lon="-3.9957137592"><ele>1204.67</ele><time>2026-08-09T10:46:47Z</time></trkpt><trkpt lat="40.7279345579" lon="-3.9957254939"><ele>1204.67</ele><time>2026-08-09T10:46:49Z</time></trkpt><trkpt lat="40.7278941572" lon="-3.9957095683"><ele>1203.23</ele><time>2026-08-09T10:46:50Z</time></trkpt><trkpt lat="40.7278499845" lon="-3.9956852607"><ele>1202.27</ele><time>2026-08-09T10:46:51Z</time></trkpt><trkpt lat="40.7277991902" lon="-3.9956664015"><ele>1202.27</ele><time>2026-08-09T10:46:52Z</time></trkpt><trkpt lat="40.7277533412" lon="-3.9956692513"><ele>1201.30</ele><time>2026-08-09T10:46:53Z</time></trkpt><trkpt lat="40.7277140301" lon="-3.9956794772"><ele>1201.30</ele><time>2026-08-09T10:46:54Z</time></trkpt><trkpt lat="40.7276763953" lon="-3.9956681617"><ele>1200.34</ele><time>2026-08-09T10:46:55Z</time></trkpt><trkpt lat="40.7276302949" lon="-3.9956425130"><ele>1199.86</ele><time>2026-08-09T10:46:56Z</time></trkpt><trkpt lat="40.7275797520" lon="-3.9956273418"><ele>1199.86</ele><time>2026-08-09T10:46:57Z</time></trkpt><trkpt lat="40.7275230065" lon="-3.9956203848"><ele>1199.86</ele><time>2026-08-09T10:46:58Z</time></trkpt><trkpt lat="40.7274688594" lon="-3.9956168644"><ele>1199.86</ele><time>2026-08-09T10:46:59Z</time></trkpt><trkpt lat="40.7274151314" lon="-3.9956094883"><ele>1198.90</ele><time>2026-08-09T10:47:00Z</time></trkpt><trkpt lat="40.7273758203" lon="-3.9956112485"><ele>1198.42</ele><time>2026-08-09T10:47:01Z</time></trkpt><trkpt lat="40.7273436338" lon="-3.9956283476"><ele>1198.42</ele><time>2026-08-09T10:47:02Z</time></trkpt><trkpt lat="40.7273119502" lon="-3.9956357237"><ele>1197.94</ele><time>2026-08-09T10:47:03Z</time></trkpt><trkpt lat="40.7272763271" lon="-3.9956247434"><ele>1197.94</ele><time>2026-08-09T10:47:04Z</time></trkpt><trkpt lat="40.7271619141" lon="-3.9956000168"><ele>1196.98</ele><time>2026-08-09T10:47:07Z</time></trkpt><trkpt lat="40.7270744909" lon="-3.9956301916"><ele>1196.50</ele><time>2026-08-09T10:47:09Z</time></trkpt><trkpt lat="40.7270461600" lon="-3.9956619591"><ele>1196.50</ele><time>2026-08-09T10:47:10Z</time></trkpt><trkpt lat="40.7270248700" lon="-3.9956985041"><ele>1195.54</ele><time>2026-08-09T10:47:11Z</time></trkpt><trkpt lat="40.7269958686" lon="-3.9957121667"><ele>1195.54</ele><time>2026-08-09T10:47:12Z</time></trkpt><trkpt lat="40.7269607484" lon="-3.9957081433"><ele>1195.54</ele><time>2026-08-09T10:47:13Z</time></trkpt><trkpt lat="40.7269278076" lon="-3.9957011025"><ele>1194.09</ele><time>2026-08-09T10:47:14Z</time></trkpt><trkpt lat="40.7268973812" lon="-3.9957026113"><ele>1194.09</ele><time>2026-08-09T10:47:15Z</time></trkpt><trkpt lat="40.7268677931" lon="-3.9957158547"><ele>1193.61</ele><time>2026-08-09T10:47:16Z</time></trkpt><trkpt lat="40.7268377021" lon="-3.9957431797"><ele>1193.61</ele><time>2026-08-09T10:47:17Z</time></trkpt><trkpt lat="40.7268085331" lon="-3.9957732707"><ele>1193.13</ele><time>2026-08-09T10:47:18Z</time></trkpt><trkpt lat="40.7267830521" lon="-3.9957902860"><ele>1193.13</ele><time>2026-08-09T10:47:19Z</time></trkpt><trkpt lat="40.7267616782" lon="-3.9958018530"><ele>1192.17</ele><time>2026-08-09T10:47:20Z</time></trkpt><trkpt lat="40.7267405558" lon="-3.9958147611"><ele>1192.17</ele><time>2026-08-09T10:47:21Z</time></trkpt><trkpt lat="40.7264956366" lon="-3.9958402421"><ele>1189.29</ele><time>2026-08-09T10:47:29Z</time></trkpt><trkpt lat="40.7263064571" lon="-3.9958843309"><ele>1186.88</ele><time>2026-08-09T10:47:35Z</time></trkpt><trkpt lat="40.7262644637" lon="-3.9958943054"><ele>1186.88</ele><time>2026-08-09T10:47:36Z</time></trkpt><trkpt lat="40.7262217160" lon="-3.9959059563"><ele>1186.88</ele><time>2026-08-09T10:47:37Z</time></trkpt><trkpt lat="40.7261816505" lon="-3.9959117398"><ele>1184.96</ele><time>2026-08-09T10:47:38Z</time></trkpt><trkpt lat="40.7261657249" lon="-3.9959111530"><ele>1184.96</ele><time>2026-08-09T10:47:39Z</time></trkpt><trkpt lat="40.7261471171" lon="-3.9959088061"><ele>1184.96</ele><time>2026-08-09T10:47:40Z</time></trkpt><trkpt lat="40.7261413336" lon="-3.9958950598"><ele>1184.00</ele><time>2026-08-09T10:47:50Z</time></trkpt><trkpt lat="40.7261409145" lon="-3.9958989993"><ele>1184.00</ele><time>2026-08-09T10:48:20Z</time></trkpt><trkpt lat="40.7261352986" lon="-3.9958951436"><ele>1184.00</ele><time>2026-08-09T10:48:23Z</time></trkpt><trkpt lat="40.7261197921" lon="-3.9958857559"><ele>1184.00</ele><time>2026-08-09T10:48:24Z</time></trkpt><trkpt lat="40.7260941435" lon="-3.9958590176"><ele>1184.00</ele><time>2026-08-09T10:48:25Z</time></trkpt><trkpt lat="40.7260781340" lon="-3.9958414156"><ele>1184.00</ele><time>2026-08-09T10:48:26Z</time></trkpt><trkpt lat="40.7260493003" lon="-3.9958082233"><ele>1184.00</ele><time>2026-08-09T10:48:27Z</time></trkpt><trkpt lat="40.7259138487" lon="-3.9957301039"><ele>1183.04</ele><time>2026-08-09T10:48:31Z</time></trkpt><trkpt lat="40.7258804888" lon="-3.9956887811"><ele>1182.56</ele><time>2026-08-09T10:48:32Z</time></trkpt><trkpt lat="40.7257736195" lon="-3.9955376554"><ele>1181.12</ele><time>2026-08-09T10:48:35Z</time></trkpt><trkpt lat="40.7257306203" lon="-3.9954954945"><ele>1181.12</ele><time>2026-08-09T10:48:36Z</time></trkpt><trkpt lat="40.7257131021" lon="-3.9954672474"><ele>1180.16</ele><time>2026-08-09T10:48:37Z</time></trkpt><trkpt lat="40.7256949134" lon="-3.9954146091"><ele>1179.67</ele><time>2026-08-09T10:48:38Z</time></trkpt><trkpt lat="40.7256935723" lon="-3.9953892119"><ele>1178.71</ele><time>2026-08-09T10:48:39Z</time></trkpt><trkpt lat="40.7256933209" lon="-3.9953524992"><ele>1178.23</ele><time>2026-08-09T10:48:40Z</time></trkpt><trkpt lat="40.7256890461" lon="-3.9953261800"><ele>1177.75</ele><time>2026-08-09T10:48:41Z</time></trkpt><trkpt lat="40.7256855257" lon="-3.9953112602"><ele>1177.75</ele><time>2026-08-09T10:48:42Z</time></trkpt><trkpt lat="40.7256772276" lon="-3.9952923171"><ele>1177.75</ele><time>2026-08-09T10:48:57Z</time></trkpt><trkpt lat="40.7256593741" lon="-3.9952882100"><ele>1176.79</ele><time>2026-08-09T10:49:15Z</time></trkpt><trkpt lat="40.7256519981" lon="-3.9952853601"><ele>1176.79</ele><time>2026-08-09T10:49:52Z</time></trkpt><trkpt lat="40.7256163750" lon="-3.9952262677"><ele>1175.35</ele><time>2026-08-09T10:50:12Z</time></trkpt><trkpt lat="40.7256014552" lon="-3.9951942489"><ele>1174.87</ele><time>2026-08-09T10:50:13Z</time></trkpt><trkpt lat="40.7255834341" lon="-3.9951570332"><ele>1174.39</ele><time>2026-08-09T10:50:14Z</time></trkpt><trkpt lat="40.7255699392" lon="-3.9951162972"><ele>1174.39</ele><time>2026-08-09T10:50:15Z</time></trkpt><trkpt lat="40.7255486492" lon="-3.9950725436"><ele>1173.43</ele><time>2026-08-09T10:50:16Z</time></trkpt><trkpt lat="40.7255289517" lon="-3.9950359985"><ele>1173.43</ele><time>2026-08-09T10:50:17Z</time></trkpt><trkpt lat="40.7255275268" lon="-3.9949998725"><ele>1173.43</ele><time>2026-08-09T10:50:18Z</time></trkpt><trkpt lat="40.7255338971" lon="-3.9949588012"><ele>1172.95</ele><time>2026-08-09T10:50:19Z</time></trkpt><trkpt lat="40.7255375851" lon="-3.9949132875"><ele>1172.95</ele><time>2026-08-09T10:50:20Z</time></trkpt><trkpt lat="40.7255416084" lon="-3.9948633313"><ele>1172.95</ele><time>2026-08-09T10:50:21Z</time></trkpt><trkpt lat="40.7255385909" lon="-3.9948075078"><ele>1171.98</ele><time>2026-08-09T10:50:22Z</time></trkpt><trkpt lat="40.7255328074" lon="-3.9947626647"><ele>1171.98</ele><time>2026-08-09T10:50:23Z</time></trkpt><trkpt lat="40.7255571149" lon="-3.9944699686"><ele>1170.54</ele><time>2026-08-09T10:50:33Z</time></trkpt><trkpt lat="40.7255793270" lon="-3.9944044221"><ele>1170.06</ele><time>2026-08-09T10:50:34Z</time></trkpt><trkpt lat="40.7256078254" lon="-3.9943463355"><ele>1169.58</ele><time>2026-08-09T10:50:35Z</time></trkpt><trkpt lat="40.7256440353" lon="-3.9942981396"><ele>1169.10</ele><time>2026-08-09T10:50:36Z</time></trkpt><trkpt lat="40.7256773114" lon="-3.9942578226"><ele>1169.10</ele><time>2026-08-09T10:50:37Z</time></trkpt><trkpt lat="40.7257009484" lon="-3.9942099620"><ele>1169.10</ele><time>2026-08-09T10:50:38Z</time></trkpt><trkpt lat="40.7257167064" lon="-3.9941699803"><ele>1169.58</ele><time>2026-08-09T10:50:39Z</time></trkpt><trkpt lat="40.7257343922" lon="-3.9941340219"><ele>1169.58</ele><time>2026-08-09T10:50:40Z</time></trkpt><trkpt lat="40.7257646509" lon="-3.9940360375"><ele>1168.62</ele><time>2026-08-09T10:50:42Z</time></trkpt><trkpt lat="40.7257825881" lon="-3.9939196128"><ele>1168.14</ele><time>2026-08-09T10:50:44Z</time></trkpt><trkpt lat="40.7257845160" lon="-3.9938514680"><ele>1168.14</ele><time>2026-08-09T10:50:45Z</time></trkpt><trkpt lat="40.7257674169" lon="-3.9934967458"><ele>1167.66</ele><time>2026-08-09T10:50:50Z</time></trkpt><trkpt lat="40.7257511560" lon="-3.9934296068"><ele>1167.66</ele><time>2026-08-09T10:50:51Z</time></trkpt><trkpt lat="40.7257175446" lon="-3.9932965860"><ele>1166.70</ele><time>2026-08-09T10:50:53Z</time></trkpt><trkpt lat="40.7257089950" lon="-3.9932345599"><ele>1166.70</ele><time>2026-08-09T10:50:54Z</time></trkpt><trkpt lat="40.7256970089" lon="-3.9931664150"><ele>1166.70</ele><time>2026-08-09T10:50:55Z</time></trkpt><trkpt lat="40.7256925665" lon="-3.9930946659"><ele>1166.70</ele><time>2026-08-09T10:50:56Z</time></trkpt><trkpt lat="40.7256974280" lon="-3.9930235036"><ele>1166.70</ele><time>2026-08-09T10:50:57Z</time></trkpt><trkpt lat="40.7257077377" lon="-3.9929648302"><ele>1166.70</ele><time>2026-08-09T10:50:58Z</time></trkpt><trkpt lat="40.7257218193" lon="-3.9929117728"><ele>1166.70</ele><time>2026-08-09T10:50:59Z</time></trkpt><trkpt lat="40.7257421035" lon="-3.9928593021"><ele>1166.22</ele><time>2026-08-09T10:51:00Z</time></trkpt><trkpt lat="40.7257628907" lon="-3.9928125311"><ele>1166.70</ele><time>2026-08-09T10:51:01Z</time></trkpt><trkpt lat="40.7257814147" lon="-3.9927610662"><ele>1166.70</ele><time>2026-08-09T10:51:02Z</time></trkpt><trkpt lat="40.7257979270" lon="-3.9927065000"><ele>1166.22</ele><time>2026-08-09T10:51:03Z</time></trkpt><trkpt lat="40.7258101646" lon="-3.9926533587"><ele>1166.22</ele><time>2026-08-09T10:51:04Z</time></trkpt><trkpt lat="40.7258214802" lon="-3.9925910812"><ele>1166.22</ele><time>2026-08-09T10:51:05Z</time></trkpt><trkpt lat="40.7258332986" lon="-3.9925253671"><ele>1166.22</ele><time>2026-08-09T10:51:06Z</time></trkpt><trkpt lat="40.7258459553" lon="-3.9924676158"><ele>1166.22</ele><time>2026-08-09T10:51:07Z</time></trkpt><trkpt lat="40.7258882001" lon="-3.9920842275"><ele>1166.22</ele><time>2026-08-09T10:51:13Z</time></trkpt><trkpt lat="40.7258913014" lon="-3.9920136519"><ele>1165.74</ele><time>2026-08-09T10:51:14Z</time></trkpt><trkpt lat="40.7258904632" lon="-3.9919351134"><ele>1165.74</ele><time>2026-08-09T10:51:15Z</time></trkpt><trkpt lat="40.7258939836" lon="-3.9917795453"><ele>1165.26</ele><time>2026-08-09T10:51:17Z</time></trkpt><trkpt lat="40.7259080652" lon="-3.9917188603"><ele>1165.26</ele><time>2026-08-09T10:51:18Z</time></trkpt><trkpt lat="40.7259332109" lon="-3.9916660544"><ele>1165.26</ele><time>2026-08-09T10:51:19Z</time></trkpt><trkpt lat="40.7260052115" lon="-3.9915066306"><ele>1165.26</ele><time>2026-08-09T10:51:22Z</time></trkpt><trkpt lat="40.7260220591" lon="-3.9914465323"><ele>1164.29</ele><time>2026-08-09T10:51:23Z</time></trkpt><trkpt lat="40.7260308601" lon="-3.9913875237"><ele>1164.29</ele><time>2026-08-09T10:51:24Z</time></trkpt><trkpt lat="40.7260322012" lon="-3.9913239889"><ele>1163.81</ele><time>2026-08-09T10:51:25Z</time></trkpt><trkpt lat="40.7260246575" lon="-3.9912576042"><ele>1163.81</ele><time>2026-08-09T10:51:26Z</time></trkpt><trkpt lat="40.7260140125" lon="-3.9911967516"><ele>1163.33</ele><time>2026-08-09T10:51:27Z</time></trkpt><trkpt lat="40.7260161918" lon="-3.9911335520"><ele>1163.33</ele><time>2026-08-09T10:51:28Z</time></trkpt><trkpt lat="40.7260383200" lon="-3.9910754655"><ele>1163.33</ele><time>2026-08-09T10:51:29Z</time></trkpt><trkpt lat="40.7260557543" lon="-3.9910265151"><ele>1163.33</ele><time>2026-08-09T10:51:30Z</time></trkpt><trkpt lat="40.7260638010" lon="-3.9909723680"><ele>1162.85</ele><time>2026-08-09T10:51:31Z</time></trkpt><trkpt lat="40.7260741945" lon="-3.9909240883"><ele>1162.85</ele><time>2026-08-09T10:51:32Z</time></trkpt><trkpt lat="40.7260941435" lon="-3.9908832684"><ele>1162.37</ele><time>2026-08-09T10:51:33Z</time></trkpt><trkpt lat="40.7261106558" lon="-3.9908370003"><ele>1161.41</ele><time>2026-08-09T10:51:34Z</time></trkpt><trkpt lat="40.7261181995" lon="-3.9907778241"><ele>1160.45</ele><time>2026-08-09T10:51:35Z</time></trkpt><trkpt lat="40.7261244860" lon="-3.9907132834"><ele>1159.97</ele><time>2026-08-09T10:51:36Z</time></trkpt><trkpt lat="40.7261338737" lon="-3.9906504191"><ele>1159.01</ele><time>2026-08-09T10:51:37Z</time></trkpt><trkpt lat="40.7261393219" lon="-3.9905965235"><ele>1158.05</ele><time>2026-08-09T10:51:38Z</time></trkpt><trkpt lat="40.7261361368" lon="-3.9905479923"><ele>1157.08</ele><time>2026-08-09T10:51:39Z</time></trkpt><trkpt lat="40.7261219714" lon="-3.9905058313"><ele>1157.08</ele><time>2026-08-09T10:51:40Z</time></trkpt><trkpt lat="40.7261064649" lon="-3.9904708788"><ele>1156.60</ele><time>2026-08-09T10:51:41Z</time></trkpt><trkpt lat="40.7260952331" lon="-3.9904277958"><ele>1156.60</ele><time>2026-08-09T10:51:42Z</time></trkpt><trkpt lat="40.7260859292" lon="-3.9903801028"><ele>1155.64</ele><time>2026-08-09T10:51:43Z</time></trkpt><trkpt lat="40.7260716800" lon="-3.9903349243"><ele>1154.68</ele><time>2026-08-09T10:51:44Z</time></trkpt><trkpt lat="40.7260535751" lon="-3.9902976248"><ele>1154.68</ele><time>2026-08-09T10:51:45Z</time></trkpt><trkpt lat="40.7260416728" lon="-3.9902755804"><ele>1154.68</ele><time>2026-08-09T10:51:46Z</time></trkpt><trkpt lat="40.7260222267" lon="-3.9902385324"><ele>1154.20</ele><time>2026-08-09T10:51:52Z</time></trkpt><trkpt lat="40.7260150183" lon="-3.9902190864"><ele>1154.20</ele><time>2026-08-09T10:51:53Z</time></trkpt><trkpt lat="40.7260114979" lon="-3.9901936892"><ele>1154.20</ele><time>2026-08-09T10:51:54Z</time></trkpt><trkpt lat="40.7260171138" lon="-3.9901641011"><ele>1154.20</ele><time>2026-08-09T10:51:55Z</time></trkpt><trkpt lat="40.7260244898" lon="-3.9901363570"><ele>1154.20</ele><time>2026-08-09T10:51:56Z</time></trkpt><trkpt lat="40.7260194607" lon="-3.9901060145"><ele>1154.20</ele><time>2026-08-09T10:51:57Z</time></trkpt><trkpt lat="40.7260059658" lon="-3.9900672063"><ele>1153.72</ele><time>2026-08-09T10:51:58Z</time></trkpt><trkpt lat="40.7259876933" lon="-3.9900222793"><ele>1153.72</ele><time>2026-08-09T10:51:59Z</time></trkpt><trkpt lat="40.7259767130" lon="-3.9899699762"><ele>1152.76</ele><time>2026-08-09T10:52:00Z</time></trkpt><trkpt lat="40.7259462867" lon="-3.9896309283"><ele>1150.84</ele><time>2026-08-09T10:52:08Z</time></trkpt><trkpt lat="40.7259435207" lon="-3.9896135777"><ele>1150.84</ele><time>2026-08-09T10:52:20Z</time></trkpt><trkpt lat="40.7259482145" lon="-3.9895962272"><ele>1150.84</ele><time>2026-08-09T10:52:21Z</time></trkpt><trkpt lat="40.7259478793" lon="-3.9895761106"><ele>1150.84</ele><time>2026-08-09T10:52:22Z</time></trkpt><trkpt lat="40.7259461191" lon="-3.9895495400"><ele>1150.84</ele><time>2026-08-09T10:52:23Z</time></trkpt><trkpt lat="40.7259502262" lon="-3.9895136654"><ele>1150.84</ele><time>2026-08-09T10:52:24Z</time></trkpt><trkpt lat="40.7259607036" lon="-3.9894717559"><ele>1150.84</ele><time>2026-08-09T10:52:25Z</time></trkpt><trkpt lat="40.7259708457" lon="-3.9894272480"><ele>1150.84</ele><time>2026-08-09T10:52:26Z</time></trkpt><trkpt lat="40.7260012720" lon="-3.9892404992"><ele>1150.84</ele><time>2026-08-09T10:52:30Z</time></trkpt><trkpt lat="40.7259944826" lon="-3.9891863521"><ele>1150.84</ele><time>2026-08-09T10:52:31Z</time></trkpt><trkpt lat="40.7259777188" lon="-3.9890792314"><ele>1150.35</ele><time>2026-08-09T10:52:33Z</time></trkpt><trkpt lat="40.7259814069" lon="-3.9890260063"><ele>1150.35</ele><time>2026-08-09T10:52:34Z</time></trkpt><trkpt lat="40.7259789761" lon="-3.9889666624"><ele>1150.35</ele><time>2026-08-09T10:52:35Z</time></trkpt><trkpt lat="40.7259664033" lon="-3.9889046364"><ele>1150.35</ele><time>2026-08-09T10:52:36Z</time></trkpt><trkpt lat="40.7259498909" lon="-3.9888482261"><ele>1149.39</ele><time>2026-08-09T10:52:37Z</time></trkpt><trkpt lat="40.7259398326" lon="-3.9887976833"><ele>1148.43</ele><time>2026-08-09T10:52:38Z</time></trkpt><trkpt lat="40.7259418443" lon="-3.9887448773"><ele>1148.43</ele><time>2026-08-09T10:52:39Z</time></trkpt><trkpt lat="40.7259459514" lon="-3.9886913169"><ele>1148.43</ele><time>2026-08-09T10:52:40Z</time></trkpt><trkpt lat="40.7259406708" lon="-3.9886349067"><ele>1148.43</ele><time>2026-08-09T10:52:41Z</time></trkpt><trkpt lat="40.7259309478" lon="-3.9885756467"><ele>1147.95</ele><time>2026-08-09T10:52:42Z</time></trkpt><trkpt lat="40.7259317860" lon="-3.9885094296"><ele>1147.95</ele><time>2026-08-09T10:52:43Z</time></trkpt><trkpt lat="40.7259384915" lon="-3.9884415362"><ele>1147.47</ele><time>2026-08-09T10:52:44Z</time></trkpt><trkpt lat="40.7259485498" lon="-3.9883790072"><ele>1147.47</ele><time>2026-08-09T10:52:45Z</time></trkpt><trkpt lat="40.7259674091" lon="-3.9883346669"><ele>1147.47</ele><time>2026-08-09T10:52:46Z</time></trkpt><trkpt lat="40.7259850111" lon="-3.9882994629"><ele>1147.47</ele><time>2026-08-09T10:52:47Z</time></trkpt><trkpt lat="40.7260039542" lon="-3.9882626664"><ele>1147.47</ele><time>2026-08-09T10:52:48Z</time></trkpt><trkpt lat="40.7260293514" lon="-3.9882231876"><ele>1146.99</ele><time>2026-08-09T10:52:49Z</time></trkpt><trkpt lat="40.7261678204" lon="-3.9880136400"><ele>1146.03</ele><time>2026-08-09T10:52:54Z</time></trkpt><trkpt lat="40.7261941396" lon="-3.9879667014"><ele>1146.03</ele><time>2026-08-09T10:52:55Z</time></trkpt><trkpt lat="40.7262201235" lon="-3.9879168291"><ele>1146.03</ele><time>2026-08-09T10:52:56Z</time></trkpt><trkpt lat="40.7262454368" lon="-3.9878623467"><ele>1145.55</ele><time>2026-08-09T10:52:57Z</time></trkpt><trkpt lat="40.7262724265" lon="-3.9878045116"><ele>1145.55</ele><time>2026-08-09T10:52:58Z</time></trkpt><trkpt lat="40.7262963150" lon="-3.9877468441"><ele>1145.55</ele><time>2026-08-09T10:52:59Z</time></trkpt><trkpt lat="40.7263437565" lon="-3.9876300003"><ele>1145.07</ele><time>2026-08-09T10:53:01Z</time></trkpt><trkpt lat="40.7263621129" lon="-3.9875694830"><ele>1145.07</ele><time>2026-08-09T10:53:02Z</time></trkpt><trkpt lat="40.7263837382" lon="-3.9875158388"><ele>1145.07</ele><time>2026-08-09T10:53:03Z</time></trkpt><trkpt lat="40.7264305092" lon="-3.9874131605"><ele>1145.07</ele><time>2026-08-09T10:53:05Z</time></trkpt><trkpt lat="40.7265437488" lon="-3.9871181175"><ele>1144.11</ele><time>2026-08-09T10:53:10Z</time></trkpt><trkpt lat="40.7265707385" lon="-3.9870512299"><ele>1144.11</ele><time>2026-08-09T10:53:11Z</time></trkpt><trkpt lat="40.7266318426" lon="-3.9869185444"><ele>1143.63</ele><time>2026-08-09T10:53:13Z</time></trkpt><trkpt lat="40.7266573235" lon="-3.9868403412"><ele>1143.14</ele><time>2026-08-09T10:53:14Z</time></trkpt><trkpt lat="40.7266994007" lon="-3.9867021237"><ele>1143.14</ele><time>2026-08-09T10:53:16Z</time></trkpt><trkpt lat="40.7267232053" lon="-3.9866446238"><ele>1142.66</ele><time>2026-08-09T10:53:17Z</time></trkpt><trkpt lat="40.7267666236" lon="-3.9865276963"><ele>1144.11</ele><time>2026-08-09T10:53:19Z</time></trkpt><trkpt lat="40.7267887518" lon="-3.9864671789"><ele>1145.07</ele><time>2026-08-09T10:53:20Z</time></trkpt><trkpt lat="40.7268144842" lon="-3.9864046499"><ele>1145.07</ele><time>2026-08-09T10:53:21Z</time></trkpt><trkpt lat="40.7268563099" lon="-3.9862662647"><ele>1145.07</ele><time>2026-08-09T10:53:23Z</time></trkpt><trkpt lat="40.7268704753" lon="-3.9862054121"><ele>1145.07</ele><time>2026-08-09T10:53:24Z</time></trkpt><trkpt lat="40.7268887479" lon="-3.9861440565"><ele>1144.59</ele><time>2026-08-09T10:53:25Z</time></trkpt><trkpt lat="40.7269599102" lon="-3.9859949425"><ele>1142.66</ele><time>2026-08-09T10:53:28Z</time></trkpt><trkpt lat="40.7269964553" lon="-3.9859454893"><ele>1142.18</ele><time>2026-08-09T10:53:29Z</time></trkpt><trkpt lat="40.7270184159" lon="-3.9859113749"><ele>1142.18</ele><time>2026-08-09T10:53:30Z</time></trkpt><trkpt lat="40.7270376105" lon="-3.9858744107"><ele>1142.18</ele><time>2026-08-09T10:53:31Z</time></trkpt><trkpt lat="40.7270495128" lon="-3.9858354349"><ele>1141.22</ele><time>2026-08-09T10:53:32Z</time></trkpt><trkpt lat="40.7270545419" lon="-3.9857776836"><ele>1140.74</ele><time>2026-08-09T10:53:33Z</time></trkpt><trkpt lat="40.7270572241" lon="-3.9857380372"><ele>1140.74</ele><time>2026-08-09T10:53:34Z</time></trkpt><trkpt lat="40.7270817831" lon="-3.9854854904"><ele>1139.30</ele><time>2026-08-09T10:53:38Z</time></trkpt><trkpt lat="40.7270925120" lon="-3.9854065329"><ele>1138.82</ele><time>2026-08-09T10:53:39Z</time></trkpt><trkpt lat="40.7271041628" lon="-3.9852656331"><ele>1138.82</ele><time>2026-08-09T10:53:41Z</time></trkpt><trkpt lat="40.7271156460" lon="-3.9851994999"><ele>1138.82</ele><time>2026-08-09T10:53:42Z</time></trkpt><trkpt lat="40.7271195855" lon="-3.9851233922"><ele>1138.82</ele><time>2026-08-09T10:53:43Z</time></trkpt><trkpt lat="40.7271216810" lon="-3.9850541577"><ele>1138.82</ele><time>2026-08-09T10:53:44Z</time></trkpt><trkpt lat="40.7271329127" lon="-3.9849908743"><ele>1138.82</ele><time>2026-08-09T10:53:45Z</time></trkpt><trkpt lat="40.7271437254" lon="-3.9849296026"><ele>1138.82</ele><time>2026-08-09T10:53:46Z</time></trkpt><trkpt lat="40.7271499280" lon="-3.9848697558"><ele>1138.82</ele><time>2026-08-09T10:53:47Z</time></trkpt><trkpt lat="40.7271588128" lon="-3.9846060611"><ele>1138.34</ele><time>2026-08-09T10:53:51Z</time></trkpt><trkpt lat="40.7271656021" lon="-3.9844771475"><ele>1138.34</ele><time>2026-08-09T10:53:53Z</time></trkpt><trkpt lat="40.7271609083" lon="-3.9844211563"><ele>1138.34</ele><time>2026-08-09T10:53:54Z</time></trkpt><trkpt lat="40.7270972058" lon="-3.9839721378"><ele>1138.34</ele><time>2026-08-09T10:54:05Z</time></trkpt><trkpt lat="40.7272093557" lon="-3.9835043438"><ele>1139.30</ele><time>2026-08-09T10:54:16Z</time></trkpt><trkpt lat="40.7272197492" lon="-3.9834399708"><ele>1139.30</ele><time>2026-08-09T10:54:17Z</time></trkpt><trkpt lat="40.7272432186" lon="-3.9832290821"><ele>1139.30</ele><time>2026-08-09T10:54:20Z</time></trkpt><trkpt lat="40.7273404486" lon="-3.9827189595"><ele>1137.38</ele><time>2026-08-09T10:54:27Z</time></trkpt><trkpt lat="40.7273474056" lon="-3.9826400857"><ele>1137.38</ele><time>2026-08-09T10:54:28Z</time></trkpt><trkpt lat="40.7273451425" lon="-3.9825709350"><ele>1137.38</ele><time>2026-08-09T10:54:29Z</time></trkpt><trkpt lat="40.7273420412" lon="-3.9825017005"><ele>1137.38</ele><time>2026-08-09T10:54:30Z</time></trkpt><trkpt lat="40.7273535244" lon="-3.9824279398"><ele>1135.94</ele><time>2026-08-09T10:54:31Z</time></trkpt><trkpt lat="40.7273793407" lon="-3.9823616389"><ele>1135.94</ele><time>2026-08-09T10:54:32Z</time></trkpt><trkpt lat="40.7274075039" lon="-3.9822966792"><ele>1135.45</ele><time>2026-08-09T10:54:33Z</time></trkpt><trkpt lat="40.7274284586" lon="-3.9822223317"><ele>1134.97</ele><time>2026-08-09T10:54:34Z</time></trkpt><trkpt lat="40.7274431270" lon="-3.9821432065"><ele>1134.97</ele><time>2026-08-09T10:54:35Z</time></trkpt><trkpt lat="40.7274654228" lon="-3.9820769895"><ele>1134.01</ele><time>2026-08-09T10:54:36Z</time></trkpt><trkpt lat="40.7274946757" lon="-3.9820417855"><ele>1133.53</ele><time>2026-08-09T10:54:37Z</time></trkpt><trkpt lat="40.7275231741" lon="-3.9820082579"><ele>1133.53</ele><time>2026-08-09T10:54:38Z</time></trkpt><trkpt lat="40.7275452185" lon="-3.9819642529"><ele>1133.53</ele><time>2026-08-09T10:54:39Z</time></trkpt><trkpt lat="40.7275656704" lon="-3.9819142967"><ele>1133.53</ele><time>2026-08-09T10:54:40Z</time></trkpt><trkpt lat="40.7275888883" lon="-3.9818760753"><ele>1132.57</ele><time>2026-08-09T10:54:41Z</time></trkpt><trkpt lat="40.7276199851" lon="-3.9818505105"><ele>1132.57</ele><time>2026-08-09T10:54:42Z</time></trkpt><trkpt lat="40.7276914828" lon="-3.9817897417"><ele>1130.65</ele><time>2026-08-09T10:54:46Z</time></trkpt><trkpt lat="40.7277190592" lon="-3.9817846287"><ele>1130.17</ele><time>2026-08-09T10:54:55Z</time></trkpt><trkpt lat="40.7277271058" lon="-3.9817997999"><ele>1130.17</ele><time>2026-08-09T10:54:56Z</time></trkpt><trkpt lat="40.7279065624" lon="-3.9819528535"><ele>1130.17</ele><time>2026-08-09T10:55:05Z</time></trkpt><trkpt lat="40.7279327977" lon="-3.9819194097"><ele>1130.17</ele><time>2026-08-09T10:55:06Z</time></trkpt><trkpt lat="40.7279451191" lon="-3.9818808530"><ele>1130.17</ele><time>2026-08-09T10:55:07Z</time></trkpt><trkpt lat="40.7279483043" lon="-3.9818400331"><ele>1130.17</ele><time>2026-08-09T10:55:08Z</time></trkpt><trkpt lat="40.7279461250" lon="-3.9817823656"><ele>1130.17</ele><time>2026-08-09T10:55:09Z</time></trkpt><trkpt lat="40.7279446162" lon="-3.9817400370"><ele>1130.17</ele><time>2026-08-09T10:55:10Z</time></trkpt><trkpt lat="40.7279437780" lon="-3.9816818666"><ele>1130.17</ele><time>2026-08-09T10:55:11Z</time></trkpt><trkpt lat="40.7279480528" lon="-3.9816240314"><ele>1130.17</ele><time>2026-08-09T10:55:12Z</time></trkpt><trkpt lat="40.7279700972" lon="-3.9813977201"><ele>1130.17</ele><time>2026-08-09T10:55:21Z</time></trkpt><trkpt lat="40.7279738691" lon="-3.9814617578"><ele>1129.69</ele><time>2026-08-09T10:55:32Z</time></trkpt><trkpt lat="40.7279444486" lon="-3.9814513642"><ele>1129.69</ele><time>2026-08-09T10:55:36Z</time></trkpt><trkpt lat="40.7279346418" lon="-3.9814350195"><ele>1129.69</ele><time>2026-08-09T10:55:37Z</time></trkpt><trkpt lat="40.7279327977" lon="-3.9814120531"><ele>1129.21</ele><time>2026-08-09T10:55:38Z</time></trkpt><trkpt lat="40.7279327139" lon="-3.9813834708"><ele>1128.73</ele><time>2026-08-09T10:55:39Z</time></trkpt><trkpt lat="40.7279293612" lon="-3.9813561458"><ele>1128.73</ele><time>2026-08-09T10:55:40Z</time></trkpt><trkpt lat="40.7279203925" lon="-3.9813313354"><ele>1128.24</ele><time>2026-08-09T10:55:41Z</time></trkpt><trkpt lat="40.7279073168" lon="-3.9813043457"><ele>1127.28</ele><time>2026-08-09T10:55:42Z</time></trkpt><trkpt lat="40.7278991863" lon="-3.9812739193"><ele>1126.80</ele><time>2026-08-09T10:55:43Z</time></trkpt><trkpt lat="40.7279001921" lon="-3.9812426548"><ele>1126.80</ele><time>2026-08-09T10:55:44Z</time></trkpt><trkpt lat="40.7279132679" lon="-3.9811656252"><ele>1126.80</ele><time>2026-08-09T10:55:46Z</time></trkpt><trkpt lat="40.7279058918" lon="-3.9811244700"><ele>1126.80</ele><time>2026-08-09T10:55:47Z</time></trkpt><trkpt lat="40.7278878707" lon="-3.9810921997"><ele>1126.80</ele><time>2026-08-09T10:55:48Z</time></trkpt><trkpt lat="40.7278638985" lon="-3.9810697362"><ele>1126.32</ele><time>2026-08-09T10:55:49Z</time></trkpt><trkpt lat="40.7278397586" lon="-3.9810489491"><ele>1125.84</ele><time>2026-08-09T10:55:50Z</time></trkpt><trkpt lat="40.7278230786" lon="-3.9810243901"><ele>1125.36</ele><time>2026-08-09T10:55:51Z</time></trkpt><trkpt lat="40.7278148644" lon="-3.9809954725"><ele>1124.88</ele><time>2026-08-09T10:55:52Z</time></trkpt><trkpt lat="40.7278082427" lon="-3.9809575025"><ele>1124.88</ele><time>2026-08-09T10:55:53Z</time></trkpt><trkpt lat="40.7277099229" lon="-3.9805634692"><ele>1123.44</ele><time>2026-08-09T10:56:03Z</time></trkpt><trkpt lat="40.7277456298" lon="-3.9803496469"><ele>1125.36</ele><time>2026-08-09T10:56:07Z</time></trkpt><trkpt lat="40.7277398463" lon="-3.9803022053"><ele>1125.36</ele><time>2026-08-09T10:56:08Z</time></trkpt><trkpt lat="40.7277590409" lon="-3.9802180510"><ele>1125.36</ele><time>2026-08-09T10:56:10Z</time></trkpt><trkpt lat="40.7277684286" lon="-3.9801897202"><ele>1125.36</ele><time>2026-08-09T10:56:11Z</time></trkpt><trkpt lat="40.7277789898" lon="-3.9801570307"><ele>1123.92</ele><time>2026-08-09T10:56:12Z</time></trkpt><trkpt lat="40.7277867850" lon="-3.9801264368"><ele>1123.92</ele><time>2026-08-09T10:56:13Z</time></trkpt><trkpt lat="40.7277281955" lon="-3.9800385106"><ele>1123.44</ele><time>2026-08-09T10:56:18Z</time></trkpt><trkpt lat="40.7276961766" lon="-3.9800463896"><ele>1123.44</ele><time>2026-08-09T10:56:20Z</time></trkpt><trkpt lat="40.7273567095" lon="-3.9799315576"><ele>1123.44</ele><time>2026-08-09T10:56:29Z</time></trkpt><trkpt lat="40.7272200007" lon="-3.9798406139"><ele>1122.96</ele><time>2026-08-09T10:56:33Z</time></trkpt><trkpt lat="40.7271809410" lon="-3.9798080921"><ele>1122.96</ele><time>2026-08-09T10:56:34Z</time></trkpt><trkpt lat="40.7270310726" lon="-3.9797077607"><ele>1121.03</ele><time>2026-08-09T10:56:39Z</time></trkpt><trkpt lat="40.7270108722" lon="-3.9796914998"><ele>1121.03</ele><time>2026-08-09T10:56:40Z</time></trkpt><trkpt lat="40.7266352791" lon="-3.9792940300"><ele>1118.63</ele><time>2026-08-09T10:56:51Z</time></trkpt><trkpt lat="40.7265388872" lon="-3.9792196825"><ele>1116.71</ele><time>2026-08-09T10:56:54Z</time></trkpt><trkpt lat="40.7265135739" lon="-3.9792337641"><ele>1115.75</ele><time>2026-08-09T10:56:55Z</time></trkpt><trkpt lat="40.7264931221" lon="-3.9792570658"><ele>1115.75</ele><time>2026-08-09T10:56:56Z</time></trkpt><trkpt lat="40.7264687307" lon="-3.9792939462"><ele>1115.75</ele><time>2026-08-09T10:56:57Z</time></trkpt><trkpt lat="40.7264474407" lon="-3.9793362748"><ele>1115.75</ele><time>2026-08-09T10:56:58Z</time></trkpt><trkpt lat="40.7264335267" lon="-3.9793770108"><ele>1115.75</ele><time>2026-08-09T10:56:59Z</time></trkpt><trkpt lat="40.7264155056" lon="-3.9794135559"><ele>1115.75</ele><time>2026-08-09T10:57:00Z</time></trkpt><trkpt lat="40.7263870910" lon="-3.9794392884"><ele>1115.75</ele><time>2026-08-09T10:57:01Z</time></trkpt><trkpt lat="40.7263495401" lon="-3.9794538729"><ele>1117.19</ele><time>2026-08-09T10:57:03Z</time></trkpt><trkpt lat="40.7262718398" lon="-3.9794846345"><ele>1114.79</ele><time>2026-08-09T10:57:06Z</time></trkpt><trkpt lat="40.7261310238" lon="-3.9795199223"><ele>1114.31</ele><time>2026-08-09T10:57:16Z</time></trkpt><trkpt lat="40.7258632220" lon="-3.9797978662"><ele>1112.86</ele><time>2026-08-09T10:57:26Z</time></trkpt><trkpt lat="40.7258477993" lon="-3.9798330702"><ele>1112.86</ele><time>2026-08-09T10:57:27Z</time></trkpt><trkpt lat="40.7258471288" lon="-3.9798793383"><ele>1112.86</ele><time>2026-08-09T10:57:28Z</time></trkpt><trkpt lat="40.7258634735" lon="-3.9799226727"><ele>1112.86</ele><time>2026-08-09T10:57:29Z</time></trkpt><trkpt lat="40.7258804049" lon="-3.9799404424"><ele>1112.86</ele><time>2026-08-09T10:57:30Z</time></trkpt><trkpt lat="40.7259059697" lon="-3.9799590502"><ele>1112.86</ele><time>2026-08-09T10:57:31Z</time></trkpt><trkpt lat="40.7259334624" lon="-3.9799743891"><ele>1112.86</ele><time>2026-08-09T10:57:32Z</time></trkpt><trkpt lat="40.7260679081" lon="-3.9801025484"><ele>1113.82</ele><time>2026-08-09T10:57:37Z</time></trkpt><trkpt lat="40.7264744304" lon="-3.9805280138"><ele>1117.19</ele><time>2026-08-09T10:57:51Z</time></trkpt><trkpt lat="40.7267982233" lon="-3.9805486333"><ele>1118.63</ele><time>2026-08-09T10:58:01Z</time></trkpt><trkpt lat="40.7269651070" lon="-3.9806441031"><ele>1119.59</ele><time>2026-08-09T10:58:12Z</time></trkpt><trkpt lat="40.7270354312" lon="-3.9807833266"><ele>1120.55</ele><time>2026-08-09T10:58:18Z</time></trkpt><trkpt lat="40.7270281389" lon="-3.9808098972"><ele>1120.55</ele><time>2026-08-09T10:58:19Z</time></trkpt><trkpt lat="40.7270167395" lon="-3.9808396529"><ele>1121.03</ele><time>2026-08-09T10:58:20Z</time></trkpt><trkpt lat="40.7270065136" lon="-3.9808766171"><ele>1122.00</ele><time>2026-08-09T10:58:21Z</time></trkpt><trkpt lat="40.7270037476" lon="-3.9809166826"><ele>1122.48</ele><time>2026-08-09T10:58:22Z</time></trkpt><trkpt lat="40.7270088606" lon="-3.9809559099"><ele>1123.44</ele><time>2026-08-09T10:58:23Z</time></trkpt><trkpt lat="40.7270201761" lon="-3.9809936285"><ele>1123.92</ele><time>2026-08-09T10:58:24Z</time></trkpt><trkpt lat="40.7271356788" lon="-3.9812412299"><ele>1126.80</ele><time>2026-08-09T10:58:33Z</time></trkpt><trkpt lat="40.7271411270" lon="-3.9812646154"><ele>1127.76</ele><time>2026-08-09T10:58:34Z</time></trkpt><trkpt lat="40.7271428034" lon="-3.9812916052"><ele>1128.24</ele><time>2026-08-09T10:58:35Z</time></trkpt><trkpt lat="40.7271433063" lon="-3.9813211933"><ele>1128.24</ele><time>2026-08-09T10:58:36Z</time></trkpt><trkpt lat="40.7271460723" lon="-3.9813506976"><ele>1129.21</ele><time>2026-08-09T10:58:37Z</time></trkpt><trkpt lat="40.7271516044" lon="-3.9813750889"><ele>1129.21</ele><time>2026-08-09T10:58:38Z</time></trkpt><trkpt lat="40.7271596510" lon="-3.9814013243"><ele>1129.69</ele><time>2026-08-09T10:58:39Z</time></trkpt><trkpt lat="40.7271933462" lon="-3.9815034159"><ele>1131.13</ele><time>2026-08-09T10:58:44Z</time></trkpt><trkpt lat="40.7271729782" lon="-3.9815098699"><ele>1131.61</ele><time>2026-08-09T10:58:54Z</time></trkpt><trkpt lat="40.7271531131" lon="-3.9815117978"><ele>1131.61</ele><time>2026-08-09T10:58:55Z</time></trkpt><trkpt lat="40.7271370199" lon="-3.9815165754"><ele>1131.61</ele><time>2026-08-09T10:58:56Z</time></trkpt><trkpt lat="40.7271246985" lon="-3.9815296512"><ele>1132.09</ele><time>2026-08-09T10:58:57Z</time></trkpt><trkpt lat="40.7271217648" lon="-3.9815435652"><ele>1132.09</ele><time>2026-08-09T10:58:58Z</time></trkpt><trkpt lat="40.7271176577" lon="-3.9815642685"><ele>1132.09</ele><time>2026-08-09T10:58:59Z</time></trkpt><trkpt lat="40.7271135505" lon="-3.9815884084"><ele>1132.57</ele><time>2026-08-09T10:59:00Z</time></trkpt><trkpt lat="40.7271109521" lon="-3.9816153981"><ele>1132.57</ele><time>2026-08-09T10:59:01Z</time></trkpt><trkpt lat="40.7271093596" lon="-3.9816418011"><ele>1133.05</ele><time>2026-08-09T10:59:02Z</time></trkpt><trkpt lat="40.7271063421" lon="-3.9816704672"><ele>1133.53</ele><time>2026-08-09T10:59:03Z</time></trkpt><trkpt lat="40.7271003909" lon="-3.9816987142"><ele>1134.49</ele><time>2026-08-09T10:59:04Z</time></trkpt><trkpt lat="40.7270899136" lon="-3.9817247819"><ele>1134.49</ele><time>2026-08-09T10:59:05Z</time></trkpt><trkpt lat="40.7270739041" lon="-3.9817492571"><ele>1134.97</ele><time>2026-08-09T10:59:06Z</time></trkpt><trkpt lat="40.7270559669" lon="-3.9817692898"><ele>1135.94</ele><time>2026-08-09T10:59:07Z</time></trkpt><trkpt lat="40.7270385325" lon="-3.9817889035"><ele>1135.94</ele><time>2026-08-09T10:59:08Z</time></trkpt><trkpt lat="40.7268706430" lon="-3.9819836989"><ele>1139.30</ele><time>2026-08-09T10:59:17Z</time></trkpt><trkpt lat="40.7268484309" lon="-3.9820792526"><ele>1140.26</ele><time>2026-08-09T10:59:21Z</time></trkpt><trkpt lat="40.7267442439" lon="-3.9823748823"><ele>1143.14</ele><time>2026-08-09T10:59:32Z</time></trkpt><trkpt lat="40.7267504465" lon="-3.9827610366"><ele>1144.59</ele><time>2026-08-09T10:59:43Z</time></trkpt><trkpt lat="40.7266417332" lon="-3.9832813852"><ele>1146.99</ele><time>2026-08-09T10:59:56Z</time></trkpt><trkpt lat="40.7265665475" lon="-3.9836659469"><ele>1149.87</ele><time>2026-08-09T11:00:05Z</time></trkpt><trkpt lat="40.7264713291" lon="-3.9839199185"><ele>1152.76</ele><time>2026-08-09T11:00:12Z</time></trkpt><trkpt lat="40.7262827363" lon="-3.9844699390"><ele>1154.68</ele><time>2026-08-09T11:00:26Z</time></trkpt><trkpt lat="40.7261916250" lon="-3.9850113261"><ele>1155.16</ele><time>2026-08-09T11:00:38Z</time></trkpt><trkpt lat="40.7261036988" lon="-3.9852466900"><ele>1157.08</ele><time>2026-08-09T11:00:47Z</time></trkpt><trkpt lat="40.7261339575" lon="-3.9852504618"><ele>1157.08</ele><time>2026-08-09T11:01:08Z</time></trkpt><trkpt lat="40.7261359692" lon="-3.9852735121"><ele>1157.08</ele><time>2026-08-09T11:01:10Z</time></trkpt><trkpt lat="40.7261358853" lon="-3.9852885157"><ele>1157.08</ele><time>2026-08-09T11:01:11Z</time></trkpt><trkpt lat="40.7260596938" lon="-3.9856378734"><ele>1158.05</ele><time>2026-08-09T11:01:20Z</time></trkpt><trkpt lat="40.7259439398" lon="-3.9859621692"><ele>1159.01</ele><time>2026-08-09T11:01:27Z</time></trkpt><trkpt lat="40.7259363122" lon="-3.9860111196"><ele>1159.01</ele><time>2026-08-09T11:01:28Z</time></trkpt><trkpt lat="40.7259015273" lon="-3.9861889835"><ele>1159.01</ele><time>2026-08-09T11:01:31Z</time></trkpt><trkpt lat="40.7258847635" lon="-3.9862388559"><ele>1159.01</ele><time>2026-08-09T11:01:32Z</time></trkpt><trkpt lat="40.7258493081" lon="-3.9863415342"><ele>1159.01</ele><time>2026-08-09T11:01:34Z</time></trkpt><trkpt lat="40.7258351427" lon="-3.9864015486"><ele>1159.01</ele><time>2026-08-09T11:01:35Z</time></trkpt><trkpt lat="40.7258228213" lon="-3.9864555281"><ele>1159.01</ele><time>2026-08-09T11:01:36Z</time></trkpt><trkpt lat="40.7258042973" lon="-3.9865077473"><ele>1159.01</ele><time>2026-08-09T11:01:37Z</time></trkpt><trkpt lat="40.7257816661" lon="-3.9865596313"><ele>1159.49</ele><time>2026-08-09T11:01:38Z</time></trkpt><trkpt lat="40.7256640680" lon="-3.9868774731"><ele>1160.93</ele><time>2026-08-09T11:01:44Z</time></trkpt><trkpt lat="40.7256337255" lon="-3.9869814087"><ele>1161.89</ele><time>2026-08-09T11:01:46Z</time></trkpt><trkpt lat="40.7256232481" lon="-3.9870314486"><ele>1161.89</ele><time>2026-08-09T11:01:47Z</time></trkpt><trkpt lat="40.7256095018" lon="-3.9870892838"><ele>1161.89</ele><time>2026-08-09T11:01:48Z</time></trkpt><trkpt lat="40.7255947497" lon="-3.9871344622"><ele>1162.37</ele><time>2026-08-09T11:01:49Z</time></trkpt><trkpt lat="40.7255759742" lon="-3.9871830773"><ele>1162.37</ele><time>2026-08-09T11:01:50Z</time></trkpt><trkpt lat="40.7255588751" lon="-3.9872198738"><ele>1162.85</ele><time>2026-08-09T11:01:51Z</time></trkpt><trkpt lat="40.7254236750" lon="-3.9876308385"><ele>1166.22</ele><time>2026-08-09T11:02:01Z</time></trkpt><trkpt lat="40.7252625749" lon="-3.9881675318"><ele>1169.58</ele><time>2026-08-09T11:02:13Z</time></trkpt><trkpt lat="40.7251673564" lon="-3.9885861240"><ele>1169.58</ele><time>2026-08-09T11:02:22Z</time></trkpt><trkpt lat="40.7251660991" lon="-3.9886302967"><ele>1169.58</ele><time>2026-08-09T11:02:23Z</time></trkpt><trkpt lat="40.7251588069" lon="-3.9886673447"><ele>1169.58</ele><time>2026-08-09T11:02:24Z</time></trkpt><trkpt lat="40.7251467369" lon="-3.9887048118"><ele>1170.54</ele><time>2026-08-09T11:02:25Z</time></trkpt><trkpt lat="40.7251334935" lon="-3.9887400158"><ele>1170.54</ele><time>2026-08-09T11:02:26Z</time></trkpt><trkpt lat="40.7250869740" lon="-3.9889614657"><ele>1173.43</ele><time>2026-08-09T11:02:33Z</time></trkpt><trkpt lat="40.7250195835" lon="-3.9894897770"><ele>1176.31</ele><time>2026-08-09T11:02:46Z</time></trkpt><trkpt lat="40.7250724733" lon="-3.9899810404"><ele>1174.87</ele><time>2026-08-09T11:02:56Z</time></trkpt><trkpt lat="40.7249904983" lon="-3.9903330803"><ele>1178.23</ele><time>2026-08-09T11:03:06Z</time></trkpt><trkpt lat="40.7249280531" lon="-3.9904800989"><ele>1181.60</ele><time>2026-08-09T11:03:12Z</time></trkpt><trkpt lat="40.7248928491" lon="-3.9905987028"><ele>1184.96</ele><time>2026-08-09T11:03:17Z</time></trkpt><trkpt lat="40.7249368541" lon="-3.9908855315"><ele>1185.44</ele><time>2026-08-09T11:03:28Z</time></trkpt><trkpt lat="40.7248932682" lon="-3.9912442770"><ele>1187.37</ele><time>2026-08-09T11:03:37Z</time></trkpt><trkpt lat="40.7248887420" lon="-3.9916181099"><ele>1187.85</ele><time>2026-08-09T11:03:45Z</time></trkpt><trkpt lat="40.7248831261" lon="-3.9921454154"><ele>1185.92</ele><time>2026-08-09T11:03:55Z</time></trkpt><trkpt lat="40.7248763368" lon="-3.9925925899"><ele>1185.44</ele><time>2026-08-09T11:04:03Z</time></trkpt><trkpt lat="40.7248675358" lon="-3.9926602319"><ele>1185.44</ele><time>2026-08-09T11:04:04Z</time></trkpt><trkpt lat="40.7248297334" lon="-3.9933071472"><ele>1184.48</ele><time>2026-08-09T11:04:16Z</time></trkpt><trkpt lat="40.7248288952" lon="-3.9935216401"><ele>1185.92</ele><time>2026-08-09T11:04:20Z</time></trkpt><trkpt lat="40.7248429768" lon="-3.9935812354"><ele>1185.92</ele><time>2026-08-09T11:04:21Z</time></trkpt><trkpt lat="40.7248845510" lon="-3.9937233925"><ele>1185.92</ele><time>2026-08-09T11:04:23Z</time></trkpt><trkpt lat="40.7249141391" lon="-3.9939036034"><ele>1185.92</ele><time>2026-08-09T11:04:25Z</time></trkpt><trkpt lat="40.7249184977" lon="-3.9940036833"><ele>1185.92</ele><time>2026-08-09T11:04:26Z</time></trkpt><trkpt lat="40.7249321602" lon="-3.9941845648"><ele>1183.52</ele><time>2026-08-09T11:04:28Z</time></trkpt><trkpt lat="40.7249411289" lon="-3.9942646958"><ele>1183.04</ele><time>2026-08-09T11:04:29Z</time></trkpt><trkpt lat="40.7249521930" lon="-3.9948236011"><ele>1181.60</ele><time>2026-08-09T11:04:37Z</time></trkpt><trkpt lat="40.7249275502" lon="-3.9954290260"><ele>1181.12</ele><time>2026-08-09T11:04:50Z</time></trkpt><trkpt lat="40.7247283962" lon="-3.9956450276"><ele>1182.08</ele><time>2026-08-09T11:04:59Z</time></trkpt><trkpt lat="40.7246687170" lon="-3.9956919663"><ele>1183.04</ele><time>2026-08-09T11:05:02Z</time></trkpt><trkpt lat="40.7246486843" lon="-3.9957020245"><ele>1182.56</ele><time>2026-08-09T11:05:03Z</time></trkpt><trkpt lat="40.7246299926" lon="-3.9957165252"><ele>1183.04</ele><time>2026-08-09T11:05:04Z</time></trkpt><trkpt lat="40.7246158272" lon="-3.9957304392"><ele>1183.04</ele><time>2026-08-09T11:05:05Z</time></trkpt><trkpt lat="40.7246012427" lon="-3.9957432635"><ele>1183.04</ele><time>2026-08-09T11:05:06Z</time></trkpt><trkpt lat="40.7245831378" lon="-3.9957524836"><ele>1183.52</ele><time>2026-08-09T11:05:07Z</time></trkpt><trkpt lat="40.7245352771" lon="-3.9957920462"><ele>1184.48</ele><time>2026-08-09T11:05:11Z</time></trkpt><trkpt lat="40.7245247997" lon="-3.9958249032"><ele>1184.48</ele><time>2026-08-09T11:05:13Z</time></trkpt><trkpt lat="40.7245126460" lon="-3.9958351292"><ele>1184.48</ele><time>2026-08-09T11:05:14Z</time></trkpt><trkpt lat="40.7244927809" lon="-3.9958338719"><ele>1184.96</ele><time>2026-08-09T11:05:15Z</time></trkpt><trkpt lat="40.7242212910" lon="-3.9959409926"><ele>1188.33</ele><time>2026-08-09T11:05:28Z</time></trkpt><trkpt lat="40.7239772100" lon="-3.9960680623"><ele>1191.69</ele><time>2026-08-09T11:05:39Z</time></trkpt><trkpt lat="40.7239561714" lon="-3.9960792102"><ele>1191.69</ele><time>2026-08-09T11:05:40Z</time></trkpt><trkpt lat="40.7237279322" lon="-3.9961827267"><ele>1194.58</ele><time>2026-08-09T11:05:50Z</time></trkpt><trkpt lat="40.7233701088" lon="-3.9963356126"><ele>1198.42</ele><time>2026-08-09T11:06:05Z</time></trkpt><trkpt lat="40.7230470702" lon="-3.9965050109"><ele>1201.30</ele><time>2026-08-09T11:06:19Z</time></trkpt><trkpt lat="40.7229005545" lon="-3.9965832978"><ele>1202.75</ele><time>2026-08-09T11:06:25Z</time></trkpt><trkpt lat="40.7225741632" lon="-3.9968468249"><ele>1204.67</ele><time>2026-08-09T11:06:39Z</time></trkpt><trkpt lat="40.7222053595" lon="-3.9971663430"><ele>1205.63</ele><time>2026-08-09T11:06:53Z</time></trkpt><trkpt lat="40.7220233046" lon="-3.9973315503"><ele>1205.63</ele><time>2026-08-09T11:06:59Z</time></trkpt><trkpt lat="40.7217885274" lon="-3.9976627193"><ele>1203.71</ele><time>2026-08-09T11:07:08Z</time></trkpt><trkpt lat="40.7217206340" lon="-3.9977530763"><ele>1203.71</ele><time>2026-08-09T11:07:10Z</time></trkpt><trkpt lat="40.7216902077" lon="-3.9977940638"><ele>1204.67</ele><time>2026-08-09T11:07:11Z</time></trkpt><trkpt lat="40.7216685824" lon="-3.9978371467"><ele>1204.67</ele><time>2026-08-09T11:07:12Z</time></trkpt><trkpt lat="40.7216506451" lon="-3.9978890307"><ele>1204.67</ele><time>2026-08-09T11:07:13Z</time></trkpt><trkpt lat="40.7216370665" lon="-3.9979346283"><ele>1204.67</ele><time>2026-08-09T11:07:14Z</time></trkpt><trkpt lat="40.7216097414" lon="-3.9981047809"><ele>1204.67</ele><time>2026-08-09T11:07:17Z</time></trkpt><trkpt lat="40.7216152735" lon="-3.9981595986"><ele>1204.67</ele><time>2026-08-09T11:07:18Z</time></trkpt><trkpt lat="40.7216263376" lon="-3.9981917851"><ele>1204.67</ele><time>2026-08-09T11:07:19Z</time></trkpt><trkpt lat="40.7216446102" lon="-3.9982271567"><ele>1202.75</ele><time>2026-08-09T11:07:20Z</time></trkpt><trkpt lat="40.7216687500" lon="-3.9982616901"><ele>1202.27</ele><time>2026-08-09T11:07:21Z</time></trkpt><trkpt lat="40.7216953207" lon="-3.9982961398"><ele>1202.27</ele><time>2026-08-09T11:07:22Z</time></trkpt><trkpt lat="40.7219257392" lon="-3.9986893348"><ele>1199.38</ele><time>2026-08-09T11:07:29Z</time></trkpt><trkpt lat="40.7219619490" lon="-3.9987453260"><ele>1197.46</ele><time>2026-08-09T11:07:30Z</time></trkpt><trkpt lat="40.7220005058" lon="-3.9987915102"><ele>1196.02</ele><time>2026-08-09T11:07:31Z</time></trkpt><trkpt lat="40.7220461033" lon="-3.9988401253"><ele>1195.54</ele><time>2026-08-09T11:07:32Z</time></trkpt><trkpt lat="40.7220842410" lon="-3.9988969546"><ele>1194.58</ele><time>2026-08-09T11:07:33Z</time></trkpt><trkpt lat="40.7221119013" lon="-3.9989650156"><ele>1194.58</ele><time>2026-08-09T11:07:34Z</time></trkpt><trkpt lat="40.7221412379" lon="-3.9990401175"><ele>1193.13</ele><time>2026-08-09T11:07:35Z</time></trkpt><trkpt lat="40.7221858297" lon="-3.9991069213"><ele>1192.17</ele><time>2026-08-09T11:07:36Z</time></trkpt><trkpt lat="40.7222419046" lon="-3.9991646726"><ele>1192.17</ele><time>2026-08-09T11:07:37Z</time></trkpt><trkpt lat="40.7222994883" lon="-3.9992270339"><ele>1192.17</ele><time>2026-08-09T11:07:38Z</time></trkpt><trkpt lat="40.7223574072" lon="-3.9992960170"><ele>1193.61</ele><time>2026-08-09T11:07:39Z</time></trkpt><trkpt lat="40.7224153262" lon="-3.9993649162"><ele>1190.25</ele><time>2026-08-09T11:07:40Z</time></trkpt><trkpt lat="40.7224761788" lon="-3.9994348213"><ele>1185.44</ele><time>2026-08-09T11:07:41Z</time></trkpt><trkpt lat="40.7226447389" lon="-3.9996240009"><ele>1182.08</ele><time>2026-08-09T11:07:44Z</time></trkpt><trkpt lat="40.7227014005" lon="-3.9996946603"><ele>1182.08</ele><time>2026-08-09T11:07:45Z</time></trkpt><trkpt lat="40.7228123769" lon="-3.9998595323"><ele>1179.67</ele><time>2026-08-09T11:07:47Z</time></trkpt><trkpt lat="40.7229303941" lon="-4.0000728518"><ele>1177.27</ele><time>2026-08-09T11:07:49Z</time></trkpt><trkpt lat="40.7229901571" lon="-4.0001653880"><ele>1176.31</ele><time>2026-08-09T11:07:50Z</time></trkpt><trkpt lat="40.7230484113" lon="-4.0002714191"><ele>1175.35</ele><time>2026-08-09T11:07:51Z</time></trkpt><trkpt lat="40.7231531013" lon="-4.0004869178"><ele>1173.43</ele><time>2026-08-09T11:07:53Z</time></trkpt><trkpt lat="40.7232484035" lon="-4.0007492714"><ele>1169.58</ele><time>2026-08-09T11:07:56Z</time></trkpt><trkpt lat="40.7232537679" lon="-4.0008297376"><ele>1169.58</ele><time>2026-08-09T11:07:57Z</time></trkpt><trkpt lat="40.7232402731" lon="-4.0009005647"><ele>1168.62</ele><time>2026-08-09T11:07:58Z</time></trkpt><trkpt lat="40.7232117746" lon="-4.0009577293"><ele>1167.66</ele><time>2026-08-09T11:07:59Z</time></trkpt><trkpt lat="40.7231724635" lon="-4.0009951126"><ele>1167.66</ele><time>2026-08-09T11:08:00Z</time></trkpt><trkpt lat="40.7231342420" lon="-4.0010117088"><ele>1166.70</ele><time>2026-08-09T11:08:01Z</time></trkpt><trkpt lat="40.7230782509" lon="-4.0010196716"><ele>1167.18</ele><time>2026-08-09T11:08:02Z</time></trkpt><trkpt lat="40.7230431307" lon="-4.0010225214"><ele>1166.22</ele><time>2026-08-09T11:08:03Z</time></trkpt><trkpt lat="40.7229575515" lon="-4.0010255389"><ele>1166.70</ele><time>2026-08-09T11:08:05Z</time></trkpt><trkpt lat="40.7228457369" lon="-4.0010091942"><ele>1166.22</ele><time>2026-08-09T11:08:14Z</time></trkpt><trkpt lat="40.7228428870" lon="-4.0010192525"><ele>1165.26</ele><time>2026-08-09T11:08:45Z</time></trkpt><trkpt lat="40.7228226867" lon="-4.0010330826"><ele>1165.26</ele><time>2026-08-09T11:09:11Z</time></trkpt><trkpt lat="40.7228066772" lon="-4.0010375250"><ele>1165.26</ele><time>2026-08-09T11:09:12Z</time></trkpt><trkpt lat="40.7225035876" lon="-4.0011231881"><ele>1166.70</ele><time>2026-08-09T11:09:22Z</time></trkpt><trkpt lat="40.7222293317" lon="-4.0012633335"><ele>1168.14</ele><time>2026-08-09T11:09:29Z</time></trkpt><trkpt lat="40.7221883442" lon="-4.0012831986"><ele>1168.14</ele><time>2026-08-09T11:09:30Z</time></trkpt><trkpt lat="40.7220622804" lon="-4.0013508406"><ele>1168.14</ele><time>2026-08-09T11:09:33Z</time></trkpt><trkpt lat="40.7220197003" lon="-4.0013657603"><ele>1168.14</ele><time>2026-08-09T11:09:34Z</time></trkpt><trkpt lat="40.7219770364" lon="-4.0013769083"><ele>1168.14</ele><time>2026-08-09T11:09:35Z</time></trkpt><trkpt lat="40.7219387311" lon="-4.0013876371"><ele>1168.14</ele><time>2026-08-09T11:09:36Z</time></trkpt><trkpt lat="40.7219008449" lon="-4.0014009643"><ele>1168.14</ele><time>2026-08-09T11:09:37Z</time></trkpt><trkpt lat="40.7214553468" lon="-4.0016486496"><ele>1167.66</ele><time>2026-08-09T11:09:50Z</time></trkpt><trkpt lat="40.7209603954" lon="-4.0021223947"><ele>1168.14</ele><time>2026-08-09T11:10:03Z</time></trkpt><trkpt lat="40.7206635084" lon="-4.0025012568"><ele>1168.62</ele><time>2026-08-09T11:10:15Z</time></trkpt><trkpt lat="40.7206210122" lon="-4.0025295038"><ele>1168.62</ele><time>2026-08-09T11:10:16Z</time></trkpt><trkpt lat="40.7204402983" lon="-4.0026435815"><ele>1168.62</ele><time>2026-08-09T11:10:20Z</time></trkpt><trkpt lat="40.7204051781" lon="-4.0026823897"><ele>1168.62</ele><time>2026-08-09T11:10:21Z</time></trkpt><trkpt lat="40.7203463372" lon="-4.0027577430"><ele>1168.62</ele><time>2026-08-09T11:10:23Z</time></trkpt><trkpt lat="40.7203159109" lon="-4.0027795359"><ele>1168.62</ele><time>2026-08-09T11:10:24Z</time></trkpt><trkpt lat="40.7199413236" lon="-4.0029740799"><ele>1170.06</ele><time>2026-08-09T11:10:37Z</time></trkpt><trkpt lat="40.7197412476" lon="-4.0031491779"><ele>1171.50</ele><time>2026-08-09T11:10:46Z</time></trkpt><trkpt lat="40.7197086420" lon="-4.0031697974"><ele>1171.50</ele><time>2026-08-09T11:10:47Z</time></trkpt><trkpt lat="40.7196669839" lon="-4.0031891596"><ele>1171.50</ele><time>2026-08-09T11:10:48Z</time></trkpt><trkpt lat="40.7196203806" lon="-4.0032109525"><ele>1171.50</ele><time>2026-08-09T11:10:49Z</time></trkpt><trkpt lat="40.7195785549" lon="-4.0032402053"><ele>1170.06</ele><time>2026-08-09T11:10:50Z</time></trkpt><trkpt lat="40.7195462845" lon="-4.0032628365"><ele>1170.06</ele><time>2026-08-09T11:10:51Z</time></trkpt><trkpt lat="40.7195171993" lon="-4.0032730624"><ele>1170.06</ele><time>2026-08-09T11:10:52Z</time></trkpt><trkpt lat="40.7193087414" lon="-4.0033349209"><ele>1169.10</ele><time>2026-08-09T11:10:58Z</time></trkpt><trkpt lat="40.7192291971" lon="-4.0033871401"><ele>1169.10</ele><time>2026-08-09T11:11:00Z</time></trkpt><trkpt lat="40.7191809174" lon="-4.0034080110"><ele>1169.10</ele><time>2026-08-09T11:11:01Z</time></trkpt><trkpt lat="40.7187304739" lon="-4.0035904013"><ele>1169.58</ele><time>2026-08-09T11:11:13Z</time></trkpt><trkpt lat="40.7186808530" lon="-4.0036122780"><ele>1171.02</ele><time>2026-08-09T11:11:15Z</time></trkpt><trkpt lat="40.7185619976" lon="-4.0036686882"><ele>1169.58</ele><time>2026-08-09T11:11:20Z</time></trkpt><trkpt lat="40.7184282225" lon="-4.0036793333"><ele>1168.14</ele><time>2026-08-09T11:11:29Z</time></trkpt><trkpt lat="40.7183810323" lon="-4.0037028864"><ele>1168.14</ele><time>2026-08-09T11:11:47Z</time></trkpt><trkpt lat="40.7181847282" lon="-4.0037258528"><ele>1167.66</ele><time>2026-08-09T11:11:54Z</time></trkpt><trkpt lat="40.7181700598" lon="-4.0037368331"><ele>1167.66</ele><time>2026-08-09T11:11:55Z</time></trkpt><trkpt lat="40.7181538828" lon="-4.0037329774"><ele>1167.66</ele><time>2026-08-09T11:12:07Z</time></trkpt><trkpt lat="40.7179868314" lon="-4.0037571173"><ele>1167.66</ele><time>2026-08-09T11:12:12Z</time></trkpt><trkpt lat="40.7179533038" lon="-4.0037432034"><ele>1167.66</ele><time>2026-08-09T11:12:13Z</time></trkpt><trkpt lat="40.7178969774" lon="-4.0037231706"><ele>1167.66</ele><time>2026-08-09T11:12:15Z</time></trkpt><trkpt lat="40.7178666350" lon="-4.0037293732"><ele>1167.66</ele><time>2026-08-09T11:12:16Z</time></trkpt><trkpt lat="40.7176517230" lon="-4.0037717856"><ele>1167.66</ele><time>2026-08-09T11:12:25Z</time></trkpt><trkpt lat="40.7176258229" lon="-4.0037606377"><ele>1167.66</ele><time>2026-08-09T11:12:26Z</time></trkpt><trkpt lat="40.7173845917" lon="-4.0036631562"><ele>1169.10</ele><time>2026-08-09T11:12:35Z</time></trkpt><trkpt lat="40.7173225656" lon="-4.0035921615"><ele>1171.02</ele><time>2026-08-09T11:12:38Z</time></trkpt><trkpt lat="40.7173051313" lon="-4.0035845339"><ele>1171.02</ele><time>2026-08-09T11:12:39Z</time></trkpt><trkpt lat="40.7172932290" lon="-4.0035677701"><ele>1169.58</ele><time>2026-08-09T11:12:54Z</time></trkpt><trkpt lat="40.7172876131" lon="-4.0035787504"><ele>1169.58</ele><time>2026-08-09T11:13:18Z</time></trkpt><trkpt lat="40.7172833383" lon="-4.0036037285"><ele>1169.58</ele><time>2026-08-09T11:13:31Z</time></trkpt><trkpt lat="40.7172726933" lon="-4.0035973582"><ele>1169.58</ele><time>2026-08-09T11:13:56Z</time></trkpt><trkpt lat="40.7172840089" lon="-4.0035777446"><ele>1169.58</ele><time>2026-08-09T11:14:15Z</time></trkpt><trkpt lat="40.7172680832" lon="-4.0035595559"><ele>1170.54</ele><time>2026-08-09T11:14:29Z</time></trkpt><trkpt lat="40.7172581088" lon="-4.0035495814"><ele>1170.54</ele><time>2026-08-09T11:14:30Z</time></trkpt><trkpt lat="40.7172426861" lon="-4.0035420377"><ele>1170.54</ele><time>2026-08-09T11:14:31Z</time></trkpt><trkpt lat="40.7172214799" lon="-4.0035355836"><ele>1170.54</ele><time>2026-08-09T11:14:32Z</time></trkpt><trkpt lat="40.7171940710" lon="-4.0035278723"><ele>1170.54</ele><time>2026-08-09T11:14:33Z</time></trkpt><trkpt lat="40.7171649858" lon="-4.0035245195"><ele>1170.54</ele><time>2026-08-09T11:14:34Z</time></trkpt><trkpt lat="40.7171347272" lon="-4.0035252739"><ele>1171.02</ele><time>2026-08-09T11:14:35Z</time></trkpt><trkpt lat="40.7171022892" lon="-4.0035261121"><ele>1171.02</ele><time>2026-08-09T11:14:36Z</time></trkpt><trkpt lat="40.7170687616" lon="-4.0035180654"><ele>1171.02</ele><time>2026-08-09T11:14:37Z</time></trkpt><trkpt lat="40.7170355693" lon="-4.0035029780"><ele>1170.06</ele><time>2026-08-09T11:14:38Z</time></trkpt><trkpt lat="40.7170031313" lon="-4.0034854598"><ele>1170.06</ele><time>2026-08-09T11:14:39Z</time></trkpt><trkpt lat="40.7169722859" lon="-4.0034691989"><ele>1169.10</ele><time>2026-08-09T11:14:40Z</time></trkpt><trkpt lat="40.7169457152" lon="-4.0034483280"><ele>1169.10</ele><time>2026-08-09T11:14:41Z</time></trkpt><trkpt lat="40.7169232517" lon="-4.0034272056"><ele>1168.14</ele><time>2026-08-09T11:14:42Z</time></trkpt><trkpt lat="40.7168970164" lon="-4.0034144651"><ele>1168.14</ele><time>2026-08-09T11:14:43Z</time></trkpt><trkpt lat="40.7168683503" lon="-4.0034076758"><ele>1168.14</ele><time>2026-08-09T11:14:44Z</time></trkpt><trkpt lat="40.7168364152" lon="-4.0033977851"><ele>1168.14</ele><time>2026-08-09T11:14:45Z</time></trkpt><trkpt lat="40.7168086711" lon="-4.0033770818"><ele>1168.14</ele><time>2026-08-09T11:14:46Z</time></trkpt><trkpt lat="40.7167848665" lon="-4.0033518523"><ele>1167.66</ele><time>2026-08-09T11:14:47Z</time></trkpt><trkpt lat="40.7167574577" lon="-4.0033303946"><ele>1167.66</ele><time>2026-08-09T11:14:48Z</time></trkpt><trkpt lat="40.7167279534" lon="-4.0033109486"><ele>1167.66</ele><time>2026-08-09T11:14:49Z</time></trkpt><trkpt lat="40.7166976947" lon="-4.0032885689"><ele>1167.18</ele><time>2026-08-09T11:14:50Z</time></trkpt><trkpt lat="40.7164679468" lon="-4.0030231141"><ele>1166.70</ele><time>2026-08-09T11:15:00Z</time></trkpt><trkpt lat="40.7163298130" lon="-4.0028815437"><ele>1166.70</ele><time>2026-08-09T11:15:05Z</time></trkpt><trkpt lat="40.7162925135" lon="-4.0028629359"><ele>1166.70</ele><time>2026-08-09T11:15:06Z</time></trkpt><trkpt lat="40.7160598319" lon="-4.0028042626"><ele>1166.70</ele><time>2026-08-09T11:15:12Z</time></trkpt><trkpt lat="40.7160262205" lon="-4.0027768537"><ele>1166.22</ele><time>2026-08-09T11:15:13Z</time></trkpt><trkpt lat="40.7160003204" lon="-4.0027388837"><ele>1166.22</ele><time>2026-08-09T11:15:14Z</time></trkpt><trkpt lat="40.7159719057" lon="-4.0027141571"><ele>1166.22</ele><time>2026-08-09T11:15:15Z</time></trkpt><trkpt lat="40.7159380428" lon="-4.0027054399"><ele>1165.74</ele><time>2026-08-09T11:15:16Z</time></trkpt><trkpt lat="40.7159003243" lon="-4.0026987344"><ele>1165.74</ele><time>2026-08-09T11:15:17Z</time></trkpt><trkpt lat="40.7157735061" lon="-4.0026364569"><ele>1163.33</ele><time>2026-08-09T11:15:24Z</time></trkpt><trkpt lat="40.7157226279" lon="-4.0026626922"><ele>1163.33</ele><time>2026-08-09T11:15:40Z</time></trkpt><trkpt lat="40.7157014217" lon="-4.0026435815"><ele>1163.33</ele><time>2026-08-09T11:15:56Z</time></trkpt><trkpt lat="40.7156519685" lon="-4.0026028454"><ele>1162.85</ele><time>2026-08-09T11:16:02Z</time></trkpt><trkpt lat="40.7156388089" lon="-4.0025904402"><ele>1162.85</ele><time>2026-08-09T11:16:03Z</time></trkpt><trkpt lat="40.7156256493" lon="-4.0025808010"><ele>1162.85</ele><time>2026-08-09T11:16:04Z</time></trkpt><trkpt lat="40.7156119030" lon="-4.0025725029"><ele>1162.85</ele><time>2026-08-09T11:16:05Z</time></trkpt><trkpt lat="40.7156020124" lon="-4.0025638696"><ele>1162.85</ele><time>2026-08-09T11:16:06Z</time></trkpt><trkpt lat="40.7156058680" lon="-4.0025281627"><ele>1162.37</ele><time>2026-08-09T11:16:22Z</time></trkpt><trkpt lat="40.7156081311" lon="-4.0025147516"><ele>1162.37</ele><time>2026-08-09T11:16:43Z</time></trkpt><trkpt lat="40.7156252302" lon="-4.0024382249"><ele>1162.37</ele><time>2026-08-09T11:16:46Z</time></trkpt><trkpt lat="40.7156222966" lon="-4.0023892745"><ele>1162.37</ele><time>2026-08-09T11:16:47Z</time></trkpt><trkpt lat="40.7156197820" lon="-4.0023379773"><ele>1162.37</ele><time>2026-08-09T11:16:48Z</time></trkpt><trkpt lat="40.7156178541" lon="-4.0022278391"><ele>1163.81</ele><time>2026-08-09T11:16:50Z</time></trkpt><trkpt lat="40.7155667245" lon="-4.0018796548"><ele>1162.37</ele><time>2026-08-09T11:16:56Z</time></trkpt><trkpt lat="40.7154474501" lon="-4.0015068278"><ele>1161.41</ele><time>2026-08-09T11:17:04Z</time></trkpt><trkpt lat="40.7153846696" lon="-4.0014284570"><ele>1161.41</ele><time>2026-08-09T11:17:07Z</time></trkpt><trkpt lat="40.7153781317" lon="-4.0013986174"><ele>1160.45</ele><time>2026-08-09T11:17:08Z</time></trkpt><trkpt lat="40.7153749466" lon="-4.0013746452"><ele>1160.45</ele><time>2026-08-09T11:17:09Z</time></trkpt><trkpt lat="40.7153756171" lon="-4.0013492480"><ele>1160.45</ele><time>2026-08-09T11:17:10Z</time></trkpt><trkpt lat="40.7153780479" lon="-4.0013287961"><ele>1160.45</ele><time>2026-08-09T11:17:11Z</time></trkpt><trkpt lat="40.7153812330" lon="-4.0013170615"><ele>1160.45</ele><time>2026-08-09T11:17:12Z</time></trkpt><trkpt lat="40.7153868489" lon="-4.0013029799"><ele>1160.45</ele><time>2026-08-09T11:17:13Z</time></trkpt><trkpt lat="40.7153919619" lon="-4.0012914129"><ele>1160.45</ele><time>2026-08-09T11:17:14Z</time></trkpt><trkpt lat="40.7153940573" lon="-4.0012786724"><ele>1159.97</ele><time>2026-08-09T11:17:15Z</time></trkpt><trkpt lat="40.7153887767" lon="-4.0012632497"><ele>1159.97</ele><time>2026-08-09T11:17:16Z</time></trkpt><trkpt lat="40.7153725158" lon="-4.0012543648"><ele>1160.93</ele><time>2026-08-09T11:17:17Z</time></trkpt><trkpt lat="40.7153617870" lon="-4.0012551192"><ele>1160.93</ele><time>2026-08-09T11:17:18Z</time></trkpt><trkpt lat="40.7153201289" lon="-4.0012821928"><ele>1161.41</ele><time>2026-08-09T11:17:21Z</time></trkpt><trkpt lat="40.7150105014" lon="-4.0012999624"><ele>1161.41</ele><time>2026-08-09T11:17:32Z</time></trkpt><trkpt lat="40.7146618981" lon="-4.0013284609"><ele>1158.05</ele><time>2026-08-09T11:17:41Z</time></trkpt><trkpt lat="40.7146584615" lon="-4.0013204981"><ele>1158.05</ele><time>2026-08-09T11:17:42Z</time></trkpt><trkpt lat="40.7146449666" lon="-4.0012842044"><ele>1157.08</ele><time>2026-08-09T11:17:46Z</time></trkpt><trkpt lat="40.7146049850" lon="-4.0012942627"><ele>1156.12</ele><time>2026-08-09T11:17:51Z</time></trkpt><trkpt lat="40.7145942561" lon="-4.0013038181"><ele>1156.12</ele><time>2026-08-09T11:17:52Z</time></trkpt><trkpt lat="40.7145768218" lon="-4.0012899879"><ele>1155.16</ele><time>2026-08-09T11:18:04Z</time></trkpt><trkpt lat="40.7145662606" lon="-4.0012773313"><ele>1156.60</ele><time>2026-08-09T11:18:13Z</time></trkpt><trkpt lat="40.7145711221" lon="-4.0012532752"><ele>1155.64</ele><time>2026-08-09T11:18:17Z</time></trkpt><trkpt lat="40.7145665959" lon="-4.0012709610"><ele>1154.68</ele><time>2026-08-09T11:18:32Z</time></trkpt><trkpt lat="40.7145417016" lon="-4.0012982022"><ele>1154.20</ele><time>2026-08-09T11:19:03Z</time></trkpt><trkpt lat="40.7145422045" lon="-4.0012945142"><ele>1154.20</ele><time>2026-08-09T11:19:34Z</time></trkpt><trkpt lat="40.7144842856" lon="-4.0012823604"><ele>1153.24</ele><time>2026-08-09T11:20:03Z</time></trkpt><trkpt lat="40.7143959403" lon="-4.0013130382"><ele>1150.35</ele><time>2026-08-09T11:20:18Z</time></trkpt><trkpt lat="40.7143674418" lon="-4.0013290476"><ele>1149.87</ele><time>2026-08-09T11:20:28Z</time></trkpt><trkpt lat="40.7143528573" lon="-4.0013434645"><ele>1149.87</ele><time>2026-08-09T11:20:29Z</time></trkpt><trkpt lat="40.7142524421" lon="-4.0014206618"><ele>1149.39</ele><time>2026-08-09T11:20:38Z</time></trkpt><trkpt lat="40.7141886558" lon="-4.0015108511"><ele>1148.91</ele><time>2026-08-09T11:20:43Z</time></trkpt><trkpt lat="40.7141815312" lon="-4.0015463904"><ele>1148.91</ele><time>2026-08-09T11:20:44Z</time></trkpt><trkpt lat="40.7141710538" lon="-4.0015787445"><ele>1148.91</ele><time>2026-08-09T11:20:45Z</time></trkpt><trkpt lat="40.7141557988" lon="-4.0016102605"><ele>1148.91</ele><time>2026-08-09T11:20:46Z</time></trkpt><trkpt lat="40.7141372748" lon="-4.0016464703"><ele>1148.91</ele><time>2026-08-09T11:20:47Z</time></trkpt><trkpt lat="40.7141221873" lon="-4.0016908105"><ele>1148.91</ele><time>2026-08-09T11:20:48Z</time></trkpt><trkpt lat="40.7141134702" lon="-4.0017307084"><ele>1148.91</ele><time>2026-08-09T11:20:49Z</time></trkpt><trkpt lat="40.7141015679" lon="-4.0017571952"><ele>1148.91</ele><time>2026-08-09T11:20:50Z</time></trkpt><trkpt lat="40.7140820380" lon="-4.0017785691"><ele>1148.43</ele><time>2026-08-09T11:20:51Z</time></trkpt><trkpt lat="40.7139878254" lon="-4.0018690936"><ele>1146.99</ele><time>2026-08-09T11:20:55Z</time></trkpt><trkpt lat="40.7139750849" lon="-4.0019307006"><ele>1146.03</ele><time>2026-08-09T11:21:03Z</time></trkpt><trkpt lat="40.7139600813" lon="-4.0020187106"><ele>1146.03</ele><time>2026-08-09T11:21:19Z</time></trkpt><trkpt lat="40.7139417250" lon="-4.0021419246"><ele>1146.03</ele><time>2026-08-09T11:21:23Z</time></trkpt><trkpt lat="40.7139325887" lon="-4.0021729376"><ele>1146.03</ele><time>2026-08-09T11:21:24Z</time></trkpt><trkpt lat="40.7138432376" lon="-4.0023395699"><ele>1144.11</ele><time>2026-08-09T11:21:31Z</time></trkpt><trkpt lat="40.7138292398" lon="-4.0023984108"><ele>1143.14</ele><time>2026-08-09T11:21:34Z</time></trkpt><trkpt lat="40.7138229534" lon="-4.0024273284"><ele>1143.14</ele><time>2026-08-09T11:21:35Z</time></trkpt><trkpt lat="40.7138115540" lon="-4.0024568327"><ele>1143.14</ele><time>2026-08-09T11:21:36Z</time></trkpt><trkpt lat="40.7137950417" lon="-4.0024801344"><ele>1141.70</ele><time>2026-08-09T11:21:37Z</time></trkpt><trkpt lat="40.7137774397" lon="-4.0024892706"><ele>1141.22</ele><time>2026-08-09T11:21:38Z</time></trkpt><trkpt lat="40.7137601729" lon="-4.0024849121"><ele>1140.74</ele><time>2026-08-09T11:21:39Z</time></trkpt><trkpt lat="40.7137378771" lon="-4.0024768654"><ele>1139.78</ele><time>2026-08-09T11:21:40Z</time></trkpt><trkpt lat="40.7137181796" lon="-4.0024690703"><ele>1139.78</ele><time>2026-08-09T11:21:41Z</time></trkpt><trkpt lat="40.7137014158" lon="-4.0024578385"><ele>1138.82</ele><time>2026-08-09T11:21:42Z</time></trkpt><trkpt lat="40.7136847358" lon="-4.0024505462"><ele>1138.82</ele><time>2026-08-09T11:21:43Z</time></trkpt><trkpt lat="40.7136662956" lon="-4.0024520550"><ele>1138.34</ele><time>2026-08-09T11:21:44Z</time></trkpt><trkpt lat="40.7136494480" lon="-4.0024595987"><ele>1137.86</ele><time>2026-08-09T11:21:45Z</time></trkpt><trkpt lat="40.7136362046" lon="-4.0024674777"><ele>1136.90</ele><time>2026-08-09T11:21:46Z</time></trkpt><trkpt lat="40.7135174330" lon="-4.0025098063"><ele>1134.01</ele><time>2026-08-09T11:21:53Z</time></trkpt><trkpt lat="40.7134937961" lon="-4.0025247261"><ele>1134.01</ele><time>2026-08-09T11:21:54Z</time></trkpt><trkpt lat="40.7134653814" lon="-4.0025286656"><ele>1133.53</ele><time>2026-08-09T11:21:55Z</time></trkpt><trkpt lat="40.7133449335" lon="-4.0024983231"><ele>1129.69</ele><time>2026-08-09T11:21:59Z</time></trkpt><trkpt lat="40.7133180276" lon="-4.0024567489"><ele>1129.69</ele><time>2026-08-09T11:22:00Z</time></trkpt><trkpt lat="40.7132994197" lon="-4.0024140850"><ele>1129.21</ele><time>2026-08-09T11:22:01Z</time></trkpt><trkpt lat="40.7132881042" lon="-4.0023829043"><ele>1128.73</ele><time>2026-08-09T11:22:02Z</time></trkpt><trkpt lat="40.7132823206" lon="-4.0023539029"><ele>1128.73</ele><time>2026-08-09T11:22:03Z</time></trkpt><trkpt lat="40.7132781297" lon="-4.0023243986"><ele>1128.73</ele><time>2026-08-09T11:22:04Z</time></trkpt><trkpt lat="40.7132732682" lon="-4.0022974927"><ele>1128.73</ele><time>2026-08-09T11:22:05Z</time></trkpt><trkpt lat="40.7132690772" lon="-4.0022746101"><ele>1128.73</ele><time>2026-08-09T11:22:06Z</time></trkpt><trkpt lat="40.7132669818" lon="-4.0022533201"><ele>1128.73</ele><time>2026-08-09T11:22:07Z</time></trkpt><trkpt lat="40.7132682391" lon="-4.0021741111"><ele>1130.65</ele><time>2026-08-09T11:22:10Z</time></trkpt><trkpt lat="40.7132507209" lon="-4.0020521544"><ele>1128.24</ele><time>2026-08-09T11:22:15Z</time></trkpt><trkpt lat="40.7132499665" lon="-4.0020344686"><ele>1128.24</ele><time>2026-08-09T11:22:22Z</time></trkpt><trkpt lat="40.7132568397" lon="-4.0020073112"><ele>1128.24</ele><time>2026-08-09T11:22:23Z</time></trkpt><trkpt lat="40.7133109029" lon="-4.0017830953"><ele>1128.24</ele><time>2026-08-09T11:22:28Z</time></trkpt><trkpt lat="40.7133498788" lon="-4.0016091708"><ele>1129.69</ele><time>2026-08-09T11:22:31Z</time></trkpt><trkpt lat="40.7134132460" lon="-4.0012357570"><ele>1129.69</ele><time>2026-08-09T11:22:39Z</time></trkpt><trkpt lat="40.7134303451" lon="-4.0011780057"><ele>1129.69</ele><time>2026-08-09T11:22:40Z</time></trkpt><trkpt lat="40.7134713326" lon="-4.0010323282"><ele>1128.24</ele><time>2026-08-09T11:22:43Z</time></trkpt><trkpt lat="40.7136881724" lon="-4.0006791987"><ele>1127.28</ele><time>2026-08-09T11:22:54Z</time></trkpt><trkpt lat="40.7138864044" lon="-4.0004410688"><ele>1128.73</ele><time>2026-08-09T11:23:03Z</time></trkpt><trkpt lat="40.7140295673" lon="-4.0002442617"><ele>1128.73</ele><time>2026-08-09T11:23:11Z</time></trkpt><trkpt lat="40.7140547968" lon="-4.0002336167"><ele>1129.21</ele><time>2026-08-09T11:23:12Z</time></trkpt><trkpt lat="40.7141419686" lon="-4.0002112370"><ele>1129.69</ele><time>2026-08-09T11:23:16Z</time></trkpt><trkpt lat="40.7144857105" lon="-4.0000705887"><ele>1129.21</ele><time>2026-08-09T11:23:28Z</time></trkpt><trkpt lat="40.7147131115" lon="-3.9997804910"><ele>1130.17</ele><time>2026-08-09T11:23:38Z</time></trkpt><trkpt lat="40.7148881257" lon="-3.9993203245"><ele>1133.05</ele><time>2026-08-09T11:23:48Z</time></trkpt><trkpt lat="40.7149429433" lon="-3.9991930034"><ele>1134.49</ele><time>2026-08-09T11:23:51Z</time></trkpt><trkpt lat="40.7150396705" lon="-3.9988293964"><ele>1134.97</ele><time>2026-08-09T11:23:58Z</time></trkpt><trkpt lat="40.7151310332" lon="-3.9986089524"><ele>1134.01</ele><time>2026-08-09T11:24:02Z</time></trkpt><trkpt lat="40.7152011059" lon="-3.9984351955"><ele>1133.05</ele><time>2026-08-09T11:24:05Z</time></trkpt><trkpt lat="40.7152837515" lon="-3.9983072039"><ele>1133.05</ele><time>2026-08-09T11:24:07Z</time></trkpt><trkpt lat="40.7153372280" lon="-3.9982470218"><ele>1132.57</ele><time>2026-08-09T11:24:08Z</time></trkpt><trkpt lat="40.7155894395" lon="-3.9979078900"><ele>1132.57</ele><time>2026-08-09T11:24:16Z</time></trkpt><trkpt lat="40.7157590054" lon="-3.9976053871"><ele>1133.53</ele><time>2026-08-09T11:24:23Z</time></trkpt><trkpt lat="40.7157886773" lon="-3.9975589514"><ele>1133.53</ele><time>2026-08-09T11:24:24Z</time></trkpt><trkpt lat="40.7159607578" lon="-3.9973337296"><ele>1133.53</ele><time>2026-08-09T11:24:29Z</time></trkpt><trkpt lat="40.7159996498" lon="-3.9972999506"><ele>1133.53</ele><time>2026-08-09T11:24:30Z</time></trkpt><trkpt lat="40.7162743248" lon="-3.9970520139"><ele>1134.01</ele><time>2026-08-09T11:24:37Z</time></trkpt><trkpt lat="40.7163127139" lon="-3.9970136248"><ele>1134.49</ele><time>2026-08-09T11:24:38Z</time></trkpt><trkpt lat="40.7163537852" lon="-3.9969783369"><ele>1134.49</ele><time>2026-08-09T11:24:39Z</time></trkpt><trkpt lat="40.7163901627" lon="-3.9969446417"><ele>1134.97</ele><time>2026-08-09T11:24:40Z</time></trkpt><trkpt lat="40.7164266240" lon="-3.9969054982"><ele>1134.97</ele><time>2026-08-09T11:24:41Z</time></trkpt><trkpt lat="40.7168095093" lon="-3.9965656120"><ele>1136.42</ele><time>2026-08-09T11:24:50Z</time></trkpt><trkpt lat="40.7170734555" lon="-3.9963968005"><ele>1138.34</ele><time>2026-08-09T11:24:57Z</time></trkpt><trkpt lat="40.7171154488" lon="-3.9963884186"><ele>1138.34</ele><time>2026-08-09T11:24:58Z</time></trkpt><trkpt lat="40.7171513233" lon="-3.9963798691"><ele>1138.82</ele><time>2026-08-09T11:24:59Z</time></trkpt><trkpt lat="40.7171862759" lon="-3.9963658713"><ele>1139.30</ele><time>2026-08-09T11:25:00Z</time></trkpt><trkpt lat="40.7172154449" lon="-3.9963454194"><ele>1139.78</ele><time>2026-08-09T11:25:01Z</time></trkpt><trkpt lat="40.7172435243" lon="-3.9963164181"><ele>1140.26</ele><time>2026-08-09T11:25:02Z</time></trkpt><trkpt lat="40.7172653172" lon="-3.9962809626"><ele>1140.26</ele><time>2026-08-09T11:25:03Z</time></trkpt><trkpt lat="40.7172871940" lon="-3.9962346107"><ele>1140.26</ele><time>2026-08-09T11:25:04Z</time></trkpt><trkpt lat="40.7173100766" lon="-3.9961831458"><ele>1140.26</ele><time>2026-08-09T11:25:05Z</time></trkpt><trkpt lat="40.7173349708" lon="-3.9961372130"><ele>1140.26</ele><time>2026-08-09T11:25:06Z</time></trkpt><trkpt lat="40.7173678279" lon="-3.9960904419"><ele>1138.82</ele><time>2026-08-09T11:25:07Z</time></trkpt><trkpt lat="40.7174060494" lon="-3.9960426651"><ele>1138.34</ele><time>2026-08-09T11:25:08Z</time></trkpt><trkpt lat="40.7174517307" lon="-3.9959977381"><ele>1137.86</ele><time>2026-08-09T11:25:09Z</time></trkpt><trkpt lat="40.7175529841" lon="-3.9959133323"><ele>1136.42</ele><time>2026-08-09T11:25:11Z</time></trkpt><trkpt lat="40.7175989170" lon="-3.9958618674"><ele>1136.42</ele><time>2026-08-09T11:25:12Z</time></trkpt><trkpt lat="40.7177340332" lon="-3.9957219735"><ele>1134.97</ele><time>2026-08-09T11:25:15Z</time></trkpt><trkpt lat="40.7177887671" lon="-3.9956590254"><ele>1134.97</ele><time>2026-08-09T11:25:16Z</time></trkpt><trkpt lat="40.7179631107" lon="-3.9954854362"><ele>1133.05</ele><time>2026-08-09T11:25:19Z</time></trkpt><trkpt lat="40.7180132344" lon="-3.9954160340"><ele>1132.57</ele><time>2026-08-09T11:25:20Z</time></trkpt><trkpt lat="40.7180621848" lon="-3.9953328017"><ele>1131.61</ele><time>2026-08-09T11:25:21Z</time></trkpt><trkpt lat="40.7181039266" lon="-3.9952417742"><ele>1130.65</ele><time>2026-08-09T11:25:22Z</time></trkpt><trkpt lat="40.7181386277" lon="-3.9951502439"><ele>1130.65</ele><time>2026-08-09T11:25:23Z</time></trkpt><trkpt lat="40.7183231972" lon="-3.9946055878"><ele>1130.17</ele><time>2026-08-09T11:25:32Z</time></trkpt><trkpt lat="40.7184955291" lon="-3.9940065332"><ele>1130.17</ele><time>2026-08-09T11:25:42Z</time></trkpt><trkpt lat="40.7184848003" lon="-3.9939610194"><ele>1130.17</ele><time>2026-08-09T11:25:43Z</time></trkpt><trkpt lat="40.7184722275" lon="-3.9939388912"><ele>1130.17</ele><time>2026-08-09T11:25:44Z</time></trkpt><trkpt lat="40.7183901686" lon="-3.9938101452"><ele>1129.69</ele><time>2026-08-09T11:25:49Z</time></trkpt><trkpt lat="40.7183746621" lon="-3.9937959798"><ele>1129.69</ele><time>2026-08-09T11:25:50Z</time></trkpt><trkpt lat="40.7183626760" lon="-3.9937751926"><ele>1127.76</ele><time>2026-08-09T11:25:53Z</time></trkpt><trkpt lat="40.7183713093" lon="-3.9937788807"><ele>1127.76</ele><time>2026-08-09T11:26:22Z</time></trkpt><trkpt lat="40.7183510251" lon="-3.9937413298"><ele>1127.76</ele><time>2026-08-09T11:26:29Z</time></trkpt><trkpt lat="40.7183426432" lon="-3.9937127475"><ele>1127.76</ele><time>2026-08-09T11:26:30Z</time></trkpt><trkpt lat="40.7183273882" lon="-3.9936854225"><ele>1129.21</ele><time>2026-08-09T11:26:31Z</time></trkpt><trkpt lat="40.7183074392" lon="-3.9936671499"><ele>1128.73</ele><time>2026-08-09T11:26:32Z</time></trkpt><trkpt lat="40.7182800304" lon="-3.9936461952"><ele>1128.73</ele><time>2026-08-09T11:26:33Z</time></trkpt><trkpt lat="40.7182474248" lon="-3.9936165232"><ele>1127.76</ele><time>2026-08-09T11:26:34Z</time></trkpt><trkpt lat="40.7182126399" lon="-3.9935746137"><ele>1125.84</ele><time>2026-08-09T11:26:35Z</time></trkpt><trkpt lat="40.7181781065" lon="-3.9935118333"><ele>1124.88</ele><time>2026-08-09T11:26:36Z</time></trkpt><trkpt lat="40.7181563973" lon="-3.9934488013"><ele>1124.88</ele><time>2026-08-09T11:26:37Z</time></trkpt><trkpt lat="40.7181418128" lon="-3.9933835901"><ele>1124.40</ele><time>2026-08-09T11:26:38Z</time></trkpt><trkpt lat="40.7181355264" lon="-3.9933305327"><ele>1124.40</ele><time>2026-08-09T11:26:39Z</time></trkpt><trkpt lat="40.7181412261" lon="-3.9932827558"><ele>1124.40</ele><time>2026-08-09T11:26:40Z</time></trkpt><trkpt lat="40.7181660365" lon="-3.9932400919"><ele>1123.92</ele><time>2026-08-09T11:26:41Z</time></trkpt><trkpt lat="40.7181993127" lon="-3.9931959193"><ele>1123.92</ele><time>2026-08-09T11:26:42Z</time></trkpt><trkpt lat="40.7182257995" lon="-3.9931391738"><ele>1122.96</ele><time>2026-08-09T11:26:43Z</time></trkpt><trkpt lat="40.7182330079" lon="-3.9930737112"><ele>1122.96</ele><time>2026-08-09T11:26:44Z</time></trkpt><trkpt lat="40.7182257157" lon="-3.9929987770"><ele>1122.96</ele><time>2026-08-09T11:26:45Z</time></trkpt><trkpt lat="40.7182153221" lon="-3.9929241780"><ele>1122.96</ele><time>2026-08-09T11:26:46Z</time></trkpt><trkpt lat="40.7182113826" lon="-3.9927237667"><ele>1121.03</ele><time>2026-08-09T11:26:49Z</time></trkpt><trkpt lat="40.7182209380" lon="-3.9926591422"><ele>1121.03</ele><time>2026-08-09T11:26:50Z</time></trkpt><trkpt lat="40.7182365283" lon="-3.9925997145"><ele>1120.07</ele><time>2026-08-09T11:26:51Z</time></trkpt><trkpt lat="40.7182522025" lon="-3.9925455675"><ele>1119.59</ele><time>2026-08-09T11:26:52Z</time></trkpt><trkpt lat="40.7182667870" lon="-3.9924951922"><ele>1118.63</ele><time>2026-08-09T11:26:53Z</time></trkpt><trkpt lat="40.7182770129" lon="-3.9924364351"><ele>1118.63</ele><time>2026-08-09T11:26:54Z</time></trkpt><trkpt lat="40.7182788569" lon="-3.9923620038"><ele>1118.15</ele><time>2026-08-09T11:26:55Z</time></trkpt><trkpt lat="40.7182719000" lon="-3.9922869019"><ele>1117.19</ele><time>2026-08-09T11:26:56Z</time></trkpt><trkpt lat="40.7182596624" lon="-3.9922182541"><ele>1116.23</ele><time>2026-08-09T11:26:57Z</time></trkpt><trkpt lat="40.7182286493" lon="-3.9921068586"><ele>1114.79</ele><time>2026-08-09T11:26:59Z</time></trkpt><trkpt lat="40.7182138134" lon="-3.9920501970"><ele>1113.82</ele><time>2026-08-09T11:27:00Z</time></trkpt><trkpt lat="40.7181954570" lon="-3.9919968043"><ele>1113.82</ele><time>2026-08-09T11:27:01Z</time></trkpt><trkpt lat="40.7181754243" lon="-3.9919492789"><ele>1112.86</ele><time>2026-08-09T11:27:02Z</time></trkpt><trkpt lat="40.7181559782" lon="-3.9919126499"><ele>1111.42</ele><time>2026-08-09T11:27:03Z</time></trkpt><trkpt lat="40.7181428187" lon="-3.9918937907"><ele>1110.46</ele><time>2026-08-09T11:27:04Z</time></trkpt><trkpt lat="40.7181391306" lon="-3.9918871690"><ele>1110.46</ele><time>2026-08-09T11:27:05Z</time></trkpt><trkpt lat="40.7181263063" lon="-3.9918847382"><ele>1110.46</ele><time>2026-08-09T11:27:09Z</time></trkpt><trkpt lat="40.7181143202" lon="-3.9918820560"><ele>1110.46</ele><time>2026-08-09T11:27:10Z</time></trkpt><trkpt lat="40.7180997357" lon="-3.9918728359"><ele>1110.46</ele><time>2026-08-09T11:27:11Z</time></trkpt><trkpt lat="40.7180066966" lon="-3.9918165095"><ele>1109.02</ele><time>2026-08-09T11:27:21Z</time></trkpt><trkpt lat="40.7180191856" lon="-3.9918266516"><ele>1109.02</ele><time>2026-08-09T11:27:52Z</time></trkpt><trkpt lat="40.7180115581" lon="-3.9918533899"><ele>1108.54</ele><time>2026-08-09T11:28:21Z</time></trkpt><trkpt lat="40.7180103008" lon="-3.9918682259"><ele>1108.06</ele><time>2026-08-09T11:28:56Z</time></trkpt><trkpt lat="40.7180165872" lon="-3.9918695670"><ele>1108.06</ele><time>2026-08-09T11:29:31Z</time></trkpt><trkpt lat="40.7180382125" lon="-3.9918515459"><ele>1107.58</ele><time>2026-08-09T11:29:59Z</time></trkpt><trkpt lat="40.7180423196" lon="-3.9918425772"><ele>1107.10</ele><time>2026-08-09T11:30:30Z</time></trkpt><trkpt lat="40.7180407271" lon="-3.9918368775"><ele>1107.10</ele><time>2026-08-09T11:31:01Z</time></trkpt><trkpt lat="40.7180406433" lon="-3.9918215387"><ele>1106.61</ele><time>2026-08-09T11:31:28Z</time></trkpt><trkpt lat="40.7180343568" lon="-3.9918248076"><ele>1106.13</ele><time>2026-08-09T11:31:58Z</time></trkpt><trkpt lat="40.7180269808" lon="-3.9918339439"><ele>1106.13</ele><time>2026-08-09T11:32:32Z</time></trkpt><trkpt lat="40.7180295791" lon="-3.9918261487"><ele>1105.65</ele><time>2026-08-09T11:32:57Z</time></trkpt><trkpt lat="40.7180357818" lon="-3.9918190241"><ele>1105.65</ele><time>2026-08-09T11:33:24Z</time></trkpt><trkpt lat="40.7180268131" lon="-3.9918454271"><ele>1105.17</ele><time>2026-08-09T11:33:51Z</time></trkpt><trkpt lat="40.7180134021" lon="-3.9918609336"><ele>1104.69</ele><time>2026-08-09T11:34:20Z</time></trkpt><trkpt lat="40.7179408986" lon="-3.9918588381"><ele>1104.21</ele><time>2026-08-09T11:34:44Z</time></trkpt><trkpt lat="40.7178596780" lon="-3.9917268232"><ele>1102.77</ele><time>2026-08-09T11:35:01Z</time></trkpt><trkpt lat="40.7178258151" lon="-3.9915702492"><ele>1101.81</ele><time>2026-08-09T11:35:20Z</time></trkpt><trkpt lat="40.7178140804" lon="-3.9915735181"><ele>1101.33</ele><time>2026-08-09T11:35:54Z</time></trkpt><trkpt lat="40.7178121526" lon="-3.9915751945"><ele>1100.85</ele><time>2026-08-09T11:36:36Z</time></trkpt><trkpt lat="40.7178030163" lon="-3.9915620349"><ele>1100.85</ele><time>2026-08-09T11:37:12Z</time></trkpt><trkpt lat="40.7178067043" lon="-3.9914990030"><ele>1100.37</ele><time>2026-08-09T11:37:53Z</time></trkpt><trkpt lat="40.7178149186" lon="-3.9914910402"><ele>1101.81</ele><time>2026-08-09T11:38:05Z</time></trkpt><trkpt lat="40.7178149186" lon="-3.9914866816"><ele>1101.81</ele><time>2026-08-09T11:38:37Z</time></trkpt><trkpt lat="40.7178096380" lon="-3.9915102348"><ele>1101.33</ele><time>2026-08-09T11:39:08Z</time></trkpt><trkpt lat="40.7178075425" lon="-3.9915378112"><ele>1100.37</ele><time>2026-08-09T11:39:25Z</time></trkpt><trkpt lat="40.7178004179" lon="-3.9915807266"><ele>1101.33</ele><time>2026-08-09T11:40:02Z</time></trkpt><trkpt lat="40.7178225461" lon="-3.9915648848"><ele>1100.85</ele><time>2026-08-09T11:40:32Z</time></trkpt><trkpt lat="40.7178274915" lon="-3.9915712550"><ele>1100.85</ele><time>2026-08-09T11:41:03Z</time></trkpt><trkpt lat="40.7178372983" lon="-3.9915801398"><ele>1100.85</ele><time>2026-08-09T11:41:39Z</time></trkpt><trkpt lat="40.7178383879" lon="-3.9915784635"><ele>1099.89</ele><time>2026-08-09T11:42:06Z</time></trkpt><trkpt lat="40.7178208698" lon="-3.9916055370"><ele>1099.40</ele><time>2026-08-09T11:42:38Z</time></trkpt><trkpt lat="40.7178323530" lon="-3.9916236419"><ele>1099.40</ele><time>2026-08-09T11:42:41Z</time></trkpt><trkpt lat="40.7178435009" lon="-3.9916803874"><ele>1099.40</ele><time>2026-08-09T11:42:45Z</time></trkpt><trkpt lat="40.7178441714" lon="-3.9917498734"><ele>1100.85</ele><time>2026-08-09T11:42:49Z</time></trkpt><trkpt lat="40.7178564928" lon="-3.9922320005"><ele>1104.21</ele><time>2026-08-09T11:43:06Z</time></trkpt><trkpt lat="40.7176801376" lon="-3.9924031589"><ele>1106.61</ele><time>2026-08-09T11:43:16Z</time></trkpt><trkpt lat="40.7173634693" lon="-3.9923785161"><ele>1103.73</ele><time>2026-08-09T11:43:25Z</time></trkpt><trkpt lat="40.7171951607" lon="-3.9923692122"><ele>1100.37</ele><time>2026-08-09T11:43:29Z</time></trkpt><trkpt lat="40.7170112617" lon="-3.9923579805"><ele>1097.96</ele><time>2026-08-09T11:43:34Z</time></trkpt><trkpt lat="40.7169037219" lon="-3.9923235308"><ele>1097.00</ele><time>2026-08-09T11:43:38Z</time></trkpt><trkpt lat="40.7168912329" lon="-3.9922911767"><ele>1097.00</ele><time>2026-08-09T11:43:39Z</time></trkpt><trkpt lat="40.7168851979" lon="-3.9922535419"><ele>1097.00</ele><time>2026-08-09T11:43:40Z</time></trkpt><trkpt lat="40.7168829348" lon="-3.9922105428"><ele>1096.52</ele><time>2026-08-09T11:43:41Z</time></trkpt><trkpt lat="40.7168835215" lon="-3.9921710640"><ele>1096.52</ele><time>2026-08-09T11:43:42Z</time></trkpt><trkpt lat="40.7168865390" lon="-3.9921299927"><ele>1096.52</ele><time>2026-08-09T11:43:43Z</time></trkpt><trkpt lat="40.7168925740" lon="-3.9920844790"><ele>1096.52</ele><time>2026-08-09T11:43:44Z</time></trkpt><trkpt lat="40.7168992795" lon="-3.9920444135"><ele>1096.52</ele><time>2026-08-09T11:43:45Z</time></trkpt><trkpt lat="40.7168939989" lon="-3.9919787832"><ele>1095.56</ele><time>2026-08-09T11:43:47Z</time></trkpt><trkpt lat="40.7168774027" lon="-3.9919559844"><ele>1094.60</ele><time>2026-08-09T11:43:48Z</time></trkpt><trkpt lat="40.7168529276" lon="-3.9919324312"><ele>1094.60</ele><time>2026-08-09T11:43:49Z</time></trkpt><trkpt lat="40.7168190647" lon="-3.9919040166"><ele>1094.12</ele><time>2026-08-09T11:43:50Z</time></trkpt><trkpt lat="40.7167841960" lon="-3.9918757696"><ele>1093.64</ele><time>2026-08-09T11:43:51Z</time></trkpt><trkpt lat="40.7166511752" lon="-3.9917730913"><ele>1092.20</ele><time>2026-08-09T11:43:55Z</time></trkpt><trkpt lat="40.7166082598" lon="-3.9917628653"><ele>1090.75</ele><time>2026-08-09T11:44:04Z</time></trkpt><trkpt lat="40.7165966928" lon="-3.9917497896"><ele>1090.75</ele><time>2026-08-09T11:44:05Z</time></trkpt><trkpt lat="40.7165857125" lon="-3.9917162620"><ele>1090.75</ele><time>2026-08-09T11:44:06Z</time></trkpt><trkpt lat="40.7165856287" lon="-3.9916707482"><ele>1090.75</ele><time>2026-08-09T11:44:07Z</time></trkpt><trkpt lat="40.7165905740" lon="-3.9916409925"><ele>1090.75</ele><time>2026-08-09T11:44:08Z</time></trkpt><trkpt lat="40.7166018058" lon="-3.9915954787"><ele>1090.75</ele><time>2026-08-09T11:44:09Z</time></trkpt><trkpt lat="40.7166138757" lon="-3.9915494621"><ele>1090.75</ele><time>2026-08-09T11:44:10Z</time></trkpt><trkpt lat="40.7166240178" lon="-3.9914963208"><ele>1090.75</ele><time>2026-08-09T11:44:11Z</time></trkpt><trkpt lat="40.7166298851" lon="-3.9914437663"><ele>1090.75</ele><time>2026-08-09T11:44:12Z</time></trkpt><trkpt lat="40.7165258657" lon="-3.9908252656"><ele>1088.35</ele><time>2026-08-09T11:44:24Z</time></trkpt><trkpt lat="40.7165097725" lon="-3.9907681849"><ele>1088.35</ele><time>2026-08-09T11:44:25Z</time></trkpt><trkpt lat="40.7163952757" lon="-3.9904301427"><ele>1085.95</ele><time>2026-08-09T11:44:31Z</time></trkpt><trkpt lat="40.7163263764" lon="-3.9902919251"><ele>1085.95</ele><time>2026-08-09T11:44:34Z</time></trkpt><trkpt lat="40.7162970398" lon="-3.9902489260"><ele>1085.95</ele><time>2026-08-09T11:44:35Z</time></trkpt><trkpt lat="40.7162691280" lon="-3.9902218524"><ele>1085.47</ele><time>2026-08-09T11:44:36Z</time></trkpt><trkpt lat="40.7162348460" lon="-3.9902130514"><ele>1084.02</ele><time>2026-08-09T11:44:37Z</time></trkpt><trkpt lat="40.7161903381" lon="-3.9902518597"><ele>1083.06</ele><time>2026-08-09T11:44:39Z</time></trkpt><trkpt lat="40.7161664497" lon="-3.9902822021"><ele>1083.06</ele><time>2026-08-09T11:44:40Z</time></trkpt><trkpt lat="40.7159425691" lon="-3.9905179013"><ele>1084.99</ele><time>2026-08-09T11:44:47Z</time></trkpt><trkpt lat="40.7157542277" lon="-3.9907054882"><ele>1083.54</ele><time>2026-08-09T11:44:52Z</time></trkpt><trkpt lat="40.7155435905" lon="-3.9908985235"><ele>1082.58</ele><time>2026-08-09T11:44:58Z</time></trkpt><trkpt lat="40.7155254018" lon="-3.9909484796"><ele>1082.10</ele><time>2026-08-09T11:45:00Z</time></trkpt><trkpt lat="40.7155334484" lon="-3.9909819234"><ele>1082.10</ele><time>2026-08-09T11:45:01Z</time></trkpt><trkpt lat="40.7155442610" lon="-3.9909981843"><ele>1082.10</ele><time>2026-08-09T11:45:02Z</time></trkpt><trkpt lat="40.7155606057" lon="-3.9910140261"><ele>1082.10</ele><time>2026-08-09T11:45:03Z</time></trkpt><trkpt lat="40.7155610248" lon="-3.9910561871"><ele>1082.10</ele><time>2026-08-09T11:45:17Z</time></trkpt><trkpt lat="40.7156223804" lon="-3.9912408404"><ele>1084.02</ele><time>2026-08-09T11:45:33Z</time></trkpt><trkpt lat="40.7156340312" lon="-3.9912182931"><ele>1084.50</ele><time>2026-08-09T11:45:44Z</time></trkpt><trkpt lat="40.7156217936" lon="-3.9912091568"><ele>1084.50</ele><time>2026-08-09T11:46:04Z</time></trkpt><trkpt lat="40.7156470232" lon="-3.9912124258"><ele>1084.50</ele><time>2026-08-09T11:46:10Z</time></trkpt><trkpt lat="40.7156672236" lon="-3.9912197180"><ele>1084.50</ele><time>2026-08-09T11:46:11Z</time></trkpt><trkpt lat="40.7157152519" lon="-3.9912693389"><ele>1084.99</ele><time>2026-08-09T11:46:14Z</time></trkpt><trkpt lat="40.7157212030" lon="-3.9912901260"><ele>1084.99</ele><time>2026-08-09T11:46:15Z</time></trkpt><trkpt lat="40.7157249749" lon="-3.9913177025"><ele>1084.99</ele><time>2026-08-09T11:46:16Z</time></trkpt><trkpt lat="40.7157299202" lon="-3.9913394116"><ele>1084.99</ele><time>2026-08-09T11:46:17Z</time></trkpt><trkpt lat="40.7157505397" lon="-3.9913581032"><ele>1084.99</ele><time>2026-08-09T11:46:18Z</time></trkpt><trkpt lat="40.7157769427" lon="-3.9913610369"><ele>1084.99</ele><time>2026-08-09T11:46:19Z</time></trkpt><trkpt lat="40.7158094645" lon="-3.9913532417"><ele>1085.47</ele><time>2026-08-09T11:46:20Z</time></trkpt><trkpt lat="40.7158342749" lon="-3.9913412556"><ele>1085.95</ele><time>2026-08-09T11:46:21Z</time></trkpt><trkpt lat="40.7158669643" lon="-3.9913234022"><ele>1085.95</ele><time>2026-08-09T11:46:22Z</time></trkpt><trkpt lat="40.7163065113" lon="-3.9912209753"><ele>1087.87</ele><time>2026-08-09T11:46:34Z</time></trkpt><trkpt lat="40.7163182460" lon="-3.9911972545"><ele>1087.87</ele><time>2026-08-09T11:46:35Z</time></trkpt><trkpt lat="40.7163378596" lon="-3.9911504835"><ele>1088.35</ele><time>2026-08-09T11:46:45Z</time></trkpt><trkpt lat="40.7163117919" lon="-3.9911371563"><ele>1088.35</ele><time>2026-08-09T11:47:20Z</time></trkpt><trkpt lat="40.7163238619" lon="-3.9911258407"><ele>1088.35</ele><time>2026-08-09T11:47:54Z</time></trkpt><trkpt lat="40.7163287234" lon="-3.9911142737"><ele>1088.35</ele><time>2026-08-09T11:48:28Z</time></trkpt><trkpt lat="40.7163275499" lon="-3.9911253378"><ele>1088.35</ele><time>2026-08-09T11:49:13Z</time></trkpt><trkpt lat="40.7163173240" lon="-3.9911118429"><ele>1088.83</ele><time>2026-08-09T11:49:50Z</time></trkpt><trkpt lat="40.7163040806" lon="-3.9911385812"><ele>1088.83</ele><time>2026-08-09T11:50:19Z</time></trkpt><trkpt lat="40.7163168211" lon="-3.9911262598"><ele>1088.83</ele><time>2026-08-09T11:50:46Z</time></trkpt><trkpt lat="40.7163282204" lon="-3.9911496453"><ele>1088.83</ele><time>2026-08-09T11:51:17Z</time></trkpt><trkpt lat="40.7163345907" lon="-3.9911410958"><ele>1088.83</ele><time>2026-08-09T11:51:42Z</time></trkpt></trkseg></trk></gpx>